[[{"header":{"parameterUnit":"m.s-1","parameterCategory":1,"la1":30.6,"la2":29.2853,"lo1":-89.7004,"lo2":-87.6739,"dy":0.0162,"dx":0.0183,"nx":112,"ny":82,"refTime":"2024-07-24T12:00:00:Z","depth":0,"parameterNumber":2,"parameterNumberName":"U-component_of_WINDS"},"data":[0.0,0.0,0.0,0.0,0.0,0.0,0.0,0.0,0.0,0.0,0.0,0.0,0.0,0.0,0.0,0.0,0.0,0.0,0.0,0.0,0.0,0.0,0.0,0.0,0.0,0.0,0.0,0.0,0.0,0.0,0.0,0.0,0.0,0.0,0.0,0.0,0.0,0.0,0.0,0.0,0.0,0.0,0.0,0.0,0.0,0.0,0.0,0.0,0.0,0.0,0.0,0.0,0.0,0.0,0.0,0.0,0.0,0.0,0.0,0.0,0.0,0.0,0.0,0.0,0.0,0.0,0.0,0.0,0.0,0.0,0.0,0.0,0.0,0.0,0.0,0.0,0.0,0.0,0.0,0.0,0.0,0.0,0.0,0.0,0.0,0.0,0.0,0.0,0.0,0.0,0.0,1.7348,2.0154,2.17,2.1292,2.1318,1.9452,1.4984,0.0,0.0,0.0,0.0,0.0,0.0,0.0,0.0,0.0,0.0,0.0,0.0,0.0,0.0,0.0,0.0,0.0,0.0,0.0,0.0,0.0,0.0,0.0,0.0,0.0,0.0,0.0,0.0,0.0,0.0,0.0,0.0,0.0,0.0,0.0,0.0,0.0,0.0,0.0,0.0,0.0,0.0,0.0,0.0,0.0,0.0,0.0,0.0,0.0,0.0,0.0,0.0,0.0,0.0,0.0,0.0,0.0,0.0,0.0,0.0,0.0,0.0,0.0,0.0,0.0,0.0,0.0,0.0,0.0,0.0,0.0,0.0,0.0,0.0,0.0,0.0,0.0,0.0,0.0,0.0,0.0,0.0,0.0,0.0,0.0,0.0,0.0,0.0,0.0,0.0,0.0,0.0,0.0,0.0,0.0,0.0,0.0,0.0,0.0,0.0,0.0,0.0,0.0,0.0,1.6378,2.0368,2.2103,2.2558,2.1614,2.0721,1.8671,1.4932,0.0,0.0,0.0,0.0,0.0,0.0,0.0,0.0,0.0,0.0,0.0,0.0,0.0,0.0,0.0,0.0,0.0,0.0,0.0,0.0,0.0,0.0,0.0,0.0,0.0,0.0,0.0,0.0,0.0,0.0,0.0,0.0,0.0,0.0,0.0,0.0,0.0,0.0,0.0,0.0,0.0,0.0,0.0,0.0,0.0,0.0,0.0,0.0,0.0,0.0,0.0,0.0,0.0,0.0,0.0,0.0,0.0,0.0,0.0,0.0,0.0,0.0,0.0,0.0,0.0,0.0,0.0,0.0,0.0,0.0,0.0,0.0,0.0,0.0,0.0,0.0,0.0,0.0,0.0,0.0,0.0,0.0,0.0,0.0,0.0,0.0,0.0,0.0,0.0,0.0,0.0,0.0,0.0,0.0,0.0,0.0,0.0,0.0,0.0,0.0,0.0,0.0,0.0,1.5875,1.824,2.1324,2.2672,2.2868,2.1711,2.0636,1.8437,1.4824,1.4397,0.0,0.0,0.0,0.0,0.0,0.0,0.0,0.0,0.0,0.0,0.0,0.0,0.0,0.0,0.0,0.0,0.0,0.0,0.0,0.0,0.0,0.0,0.0,0.0,0.0,0.0,0.0,0.0,0.0,0.0,0.0,0.0,0.0,0.0,0.0,0.0,0.0,0.0,0.0,0.0,0.0,0.0,0.0,0.0,0.0,0.0,0.0,0.0,0.0,0.0,0.0,0.0,0.0,0.0,0.0,0.0,0.0,0.0,0.0,0.0,0.0,0.0,0.0,0.0,0.0,0.0,0.0,0.0,0.0,0.0,0.0,0.0,0.0,0.0,0.0,0.0,0.0,0.0,0.0,0.0,0.0,0.0,0.0,0.0,0.0,0.0,0.0,0.0,0.0,0.0,0.0,0.0,0.0,0.0,0.0,0.0,0.0,0.0,0.0,0.0,0.0,0.0,1.7757,1.9617,2.176,2.2611,2.2653,2.1706,2.0241,1.7927,1.4571,1.3606,0.0,0.0,0.0,0.0,0.0,0.0,0.0,0.0,0.0,0.0,0.0,0.0,0.0,0.0,0.0,0.0,0.0,0.0,0.0,0.0,0.0,0.0,0.0,0.0,0.0,0.0,0.0,0.0,0.0,0.0,0.0,0.0,0.0,0.0,0.0,0.0,0.0,0.0,0.0,0.0,0.0,0.0,0.0,0.0,0.0,0.0,0.0,0.0,0.0,0.0,0.0,0.0,0.0,0.0,0.0,0.0,0.0,0.0,0.0,0.0,0.0,0.0,0.0,0.0,0.0,0.0,0.0,0.0,0.0,0.0,0.0,0.0,0.0,0.0,0.0,0.0,0.0,0.0,0.0,0.0,0.0,0.0,0.0,0.0,0.0,0.0,0.0,0.0,0.0,0.0,0.0,0.0,0.0,0.0,0.0,0.0,0.0,0.0,0.0,0.0,0.0,0.0,1.7385,1.976,2.2278,2.1998,2.166,2.1675,1.9111,1.6484,1.4085,1.2629,0.0,0.0,0.0,0.0,0.0,0.0,0.0,0.0,0.0,0.0,0.0,0.0,0.0,0.0,0.0,0.0,0.0,0.0,0.0,0.0,0.0,0.0,0.0,0.0,0.0,0.0,0.0,0.0,0.0,0.0,0.0,0.0,0.0,0.0,0.0,0.0,0.0,0.0,0.0,0.0,0.0,0.0,0.0,0.0,0.0,0.0,0.0,0.0,0.0,0.0,0.0,0.0,0.0,0.0,0.0,0.0,0.0,0.0,0.0,0.0,0.0,0.0,0.0,0.0,0.0,0.0,0.0,0.0,0.0,0.0,0.0,0.0,0.0,0.0,0.0,0.0,0.0,0.0,0.0,0.0,0.0,0.0,0.0,0.0,0.0,0.0,0.0,0.0,0.0,0.0,0.0,0.0,0.0,0.0,0.0,0.0,0.0,0.0,0.0,0.0,0.0,0.0,1.6984,1.9107,0.0,2.1813,2.1611,2.1071,1.9265,1.7003,1.427,0.0,0.0,0.0,0.0,0.0,0.0,0.0,0.0,0.0,0.0,0.0,0.0,0.0,0.0,0.0,0.0,0.0,0.0,0.0,0.0,0.0,0.0,0.0,0.0,0.0,0.0,0.0,0.0,0.0,0.0,0.0,0.0,0.0,0.0,0.0,0.0,0.0,0.0,0.0,0.0,0.0,0.0,0.0,0.0,0.0,0.0,0.0,0.0,0.0,0.0,0.0,0.0,0.0,0.0,0.0,0.0,0.0,0.0,0.0,0.0,0.0,0.0,0.0,0.0,0.0,0.0,0.0,0.0,0.0,0.0,0.0,0.0,0.0,0.0,0.0,0.0,0.0,0.0,0.0,0.0,0.0,0.0,0.0,0.0,0.0,0.0,0.0,0.0,0.0,0.0,0.0,0.0,0.0,0.0,0.0,0.0,0.0,0.0,0.0,0.0,0.0,0.0,1.488,1.6667,1.8667,0.0,2.1353,2.1224,2.084,1.8998,1.6872,1.4517,0.0,0.0,0.0,0.0,0.0,0.0,0.0,0.0,0.0,0.0,0.0,0.0,0.0,0.0,0.0,0.0,0.0,0.0,0.0,0.0,0.0,0.0,0.0,0.0,0.0,0.0,0.0,0.0,0.0,0.0,0.0,0.0,0.0,0.0,0.0,0.0,0.0,0.0,0.0,0.0,0.0,0.0,0.0,0.0,0.0,0.0,0.0,0.0,0.0,0.0,0.0,0.0,0.0,0.0,0.0,0.0,0.0,0.0,0.0,0.0,0.0,0.0,0.0,0.0,0.0,0.0,0.0,0.0,0.0,0.0,0.0,0.0,0.0,0.0,0.0,0.0,0.0,0.0,0.0,0.0,0.0,0.0,0.0,0.0,0.0,0.0,0.0,0.0,0.0,0.0,0.0,0.0,0.0,0.0,0.0,0.0,0.0,0.0,0.0,0.0,0.0,0.0,1.4684,1.6472,1.8572,2.1113,2.0555,2.0346,2.1204,1.8108,1.5697,0.0,0.0,0.0,0.0,0.0,0.0,0.0,0.0,0.0,0.0,0.0,0.0,0.0,0.0,0.0,0.0,0.0,0.0,0.0,0.0,0.0,0.0,0.0,0.0,0.0,0.0,0.0,0.0,0.0,0.0,0.0,0.0,0.0,0.0,0.0,0.0,0.0,0.0,0.0,0.0,0.0,0.0,0.0,0.0,0.0,0.0,0.0,0.0,0.0,0.0,0.0,0.0,0.0,0.0,0.0,0.0,0.0,0.0,0.0,0.0,0.0,0.0,0.0,0.0,0.0,0.0,0.0,0.0,0.0,0.0,0.0,0.0,0.0,0.0,0.0,0.0,0.0,0.0,0.0,0.0,0.0,0.0,0.0,0.0,0.0,0.0,0.0,0.0,0.0,0.0,0.0,0.0,0.0,0.0,0.0,0.0,0.0,0.0,0.0,0.0,0.0,0.0,0.0,1.4283,1.5919,1.7739,1.9763,1.9751,1.9762,2.0199,1.8162,1.6255,1.4785,0.0,0.0,0.0,0.0,0.0,0.0,0.0,0.0,0.0,0.0,0.0,0.0,0.0,0.0,0.0,0.0,0.0,0.0,0.0,0.0,0.0,0.0,0.0,0.0,0.0,0.0,0.0,0.0,0.0,0.0,0.0,0.0,0.0,0.0,0.0,0.0,0.0,0.0,0.0,0.0,0.0,0.0,0.0,0.0,0.0,0.0,0.0,0.0,0.0,0.0,0.0,0.0,0.0,0.0,0.0,0.0,0.0,0.0,0.0,0.0,0.0,0.0,0.0,0.0,0.0,0.0,0.0,0.0,0.0,0.0,0.0,0.0,0.0,0.0,0.0,0.0,0.0,0.0,0.0,0.0,0.0,0.0,0.0,0.0,0.0,0.0,0.0,0.0,0.0,0.0,0.0,0.0,0.0,0.0,0.0,0.0,0.0,0.0,0.0,0.0,0.0,0.0,1.3759,1.53,1.689,1.859,1.8815,1.8904,1.9077,1.7573,1.5973,1.4407,0.0,0.0,0.0,0.0,0.0,0.0,0.0,0.0,0.0,0.0,0.0,0.0,0.0,0.0,0.0,0.0,0.0,0.0,0.0,0.0,0.0,0.0,0.0,0.0,0.0,0.0,0.0,0.0,0.0,0.0,0.0,0.0,0.0,0.0,0.0,0.0,0.0,0.0,0.0,0.0,0.0,0.0,0.0,0.0,0.0,0.0,0.0,0.0,0.0,0.0,0.0,0.0,0.0,0.0,0.0,0.0,0.0,0.0,0.0,0.0,0.0,0.0,0.0,0.0,0.0,0.0,0.0,0.0,0.0,0.0,0.0,0.0,0.0,0.0,0.0,0.0,0.0,0.0,0.0,0.0,0.0,0.0,0.0,0.0,0.0,0.0,0.0,0.0,0.0,0.0,0.0,0.0,0.0,0.0,0.0,0.0,0.0,0.0,0.0,0.0,0.0,0.0,1.3168,1.4676,1.6141,1.7532,1.7788,1.7853,1.7835,1.6536,1.5133,1.3713,0.0,0.0,0.0,0.0,0.0,0.0,0.0,0.0,0.0,0.0,0.0,0.0,0.0,0.0,0.0,0.0,0.0,0.0,0.0,0.0,0.0,0.0,0.0,0.0,0.0,0.0,0.0,0.0,0.0,0.0,0.0,0.0,0.0,0.0,0.0,0.0,0.0,0.0,0.0,0.0,0.0,0.0,0.0,0.0,0.0,0.0,0.0,0.0,0.0,0.0,0.0,0.0,0.0,0.0,0.0,0.0,0.0,0.0,0.0,0.0,1.4604,0.0,0.0,0.0,0.0,0.0,0.0,0.0,0.0,0.0,0.0,0.0,0.0,0.0,0.0,0.0,0.0,0.0,0.0,0.0,0.0,0.0,0.0,0.0,0.0,0.0,0.0,0.0,0.0,0.0,0.0,0.0,0.0,0.0,0.0,0.0,0.0,0.0,0.0,0.0,0.0,0.0,1.2902,1.4574,1.5954,1.671,1.6791,1.6797,1.6666,1.5782,1.4643,1.3248,1.1989,0.0,0.0,0.0,0.0,0.0,0.0,0.0,0.0,0.0,0.0,0.0,0.0,0.0,0.0,0.0,0.0,0.0,0.0,0.0,0.0,0.0,0.0,0.0,0.0,0.0,0.0,0.0,0.0,0.0,0.0,0.0,0.0,0.0,0.0,0.0,0.0,0.0,0.0,0.0,0.0,0.0,0.0,0.0,0.0,0.0,0.0,0.0,0.0,0.0,0.0,0.0,0.0,0.0,0.0,0.0,0.0,0.0,0.0,0.0,0.0,1.6068,0.0,0.0,0.0,0.0,0.0,0.0,0.0,0.0,0.0,0.0,0.0,0.0,0.0,0.0,0.0,0.0,0.0,0.0,0.0,0.0,0.0,0.0,0.0,0.0,0.0,0.0,0.0,0.0,0.0,0.0,0.0,0.0,0.0,0.0,0.0,0.0,0.0,0.0,0.0,0.0,1.307,1.421,1.5171,1.5765,1.5643,1.5414,1.5109,1.4633,1.369,1.2223,1.1335,0.0,0.0,0.0,0.0,0.0,0.0,0.0,0.0,0.0,0.0,0.0,0.0,0.0,0.0,0.0,0.0,0.0,0.0,0.0,0.0,0.0,0.0,0.0,0.0,0.0,0.0,0.0,0.0,0.0,0.0,0.0,0.0,0.0,0.0,0.0,0.0,0.0,0.0,0.0,0.0,0.0,0.0,0.0,0.0,0.0,0.0,0.0,0.0,0.0,0.0,0.0,0.0,0.0,0.0,2.0561,2.1254,2.1196,2.1434,2.1828,2.0393,1.9473,1.8864,0.0,0.0,0.0,0.0,0.0,0.0,0.0,0.0,0.0,0.0,0.0,0.0,0.0,0.0,0.0,0.0,0.0,0.0,0.0,0.0,0.0,0.0,0.0,0.0,0.0,2.0521,2.0502,0.0,0.0,0.0,0.0,0.0,0.0,0.0,0.0,0.0,0.0,0.0,0.0,1.3349,1.3946,1.4428,1.485,1.4596,1.42,1.3736,1.3552,1.2864,1.1506,1.078,0.9993,0.0,0.0,0.0,0.0,0.0,0.0,0.0,0.0,0.0,0.0,0.0,0.0,0.0,0.0,0.0,0.0,0.0,0.0,0.0,0.0,0.0,0.0,0.0,0.0,0.0,0.0,0.0,0.0,0.0,0.0,0.0,0.0,1.1746,1.2697,0.0,0.0,0.0,0.0,0.0,0.0,0.0,0.0,0.0,0.0,0.0,0.0,0.0,0.0,1.9787,2.1459,2.2333,2.2419,2.3879,2.4601,2.4649,2.4639,2.4541,2.4332,2.4095,0.0,2.0383,1.8663,0.0,0.0,0.0,0.0,0.0,0.0,0.0,0.0,0.0,0.0,0.0,0.0,0.0,0.0,0.0,0.0,0.0,0.0,0.0,0.0,0.0,0.0,2.2749,2.1686,2.1551,2.1461,0.0,1.8566,1.6515,1.542,0.0,0.0,0.0,0.0,0.0,0.0,0.0,0.0,1.3401,1.4325,1.4715,1.4117,1.4032,1.3802,1.3323,1.3259,1.2943,1.2266,1.1132,1.0229,0.9604,0.8465,0.0,0.0,0.0,0.0,0.0,0.0,0.0,0.0,0.0,0.0,0.0,0.0,0.0,0.0,0.0,0.0,0.0,0.0,0.0,0.0,0.0,0.0,0.0,0.0,0.0,0.0,0.0,0.0,0.0,1.0666,1.2161,1.2736,1.2987,1.2991,0.0,0.0,0.0,0.0,0.0,0.0,0.0,0.0,0.0,1.985,2.0771,2.1632,2.2434,2.3676,2.4274,2.4255,2.4985,2.5322,2.5303,2.5173,2.5005,2.479,2.4685,2.3896,2.2585,2.0954,1.98,1.897,0.0,0.0,0.0,0.0,0.0,1.8996,2.0285,0.0,0.0,0.0,0.0,0.0,0.0,0.0,0.0,0.0,0.0,0.0,0.0,0.0,0.0,2.2605,2.2472,2.2262,2.1896,2.0266,1.85,0.0,1.6615,1.5546,1.3125,0.0,0.0,0.0,0.0,0.0,1.3718,1.4379,1.4612,1.396,1.3648,1.3207,1.2461,1.2908,1.2744,1.1635,1.0904,1.0256,0.9669,0.8296,0.7376,0.0,0.0,0.0,0.0,0.0,0.0,0.0,0.0,0.0,0.0,0.0,0.0,0.0,0.0,0.0,0.0,0.0,0.0,0.0,0.0,0.0,0.0,0.0,0.0,0.0,0.0,0.0,0.0,1.2277,1.3234,1.3628,1.4707,1.5037,0.0,0.0,0.0,0.0,0.0,0.0,1.9499,1.984,2.0631,2.2036,2.2934,2.3777,2.4585,2.5011,2.5329,2.5529,2.531,2.5224,2.5214,2.503,2.4864,2.4716,2.4559,2.4393,2.4117,2.2736,2.1842,2.1229,2.0559,2.0279,2.0339,2.1247,2.1496,2.1596,2.3047,2.3436,2.3056,2.1995,0.0,2.0704,1.8324,0.0,0.0,0.0,0.0,1.8352,2.0239,0.0,2.1872,2.2599,2.2538,2.2272,2.1949,2.0871,1.9706,0.0,1.8427,1.7354,1.4299,0.0,0.0,0.0,0.0,1.4602,1.4337,1.4553,1.4498,1.3997,1.3399,1.2803,1.221,1.2685,1.2525,1.1353,1.0805,1.0239,0.9627,0.8231,0.7437,0.7326,0.0,0.0,0.0,0.0,0.0,0.0,0.0,0.0,0.0,0.0,0.0,0.0,0.0,0.0,0.0,0.0,0.0,0.0,0.0,0.0,0.0,0.0,0.0,0.0,0.0,0.0,0.0,0.0,0.0,1.7068,1.8866,0.0,0.0,0.0,0.0,1.8568,1.9358,2.0134,2.0875,2.2403,2.3304,2.3412,2.4238,2.5087,2.5903,2.5304,2.5399,2.6155,2.538,2.5022,2.501,2.4864,2.47,2.4512,2.4512,2.4393,2.4135,2.329,2.2923,2.2813,2.2134,2.1803,2.1817,2.2743,2.2813,2.2538,2.3392,2.3082,2.2389,2.3138,2.2423,2.1134,2.0279,1.9161,0.0,0.0,1.8665,1.9343,2.0714,2.1094,2.1222,2.1516,2.1201,2.0861,2.1022,1.9901,1.9161,0.0,1.8761,1.7375,1.6801,0.0,1.5388,1.5328,1.538,1.544,1.5409,1.4993,1.455,1.4143,1.3166,1.2685,1.3094,1.2756,1.2456,1.2344,1.1172,1.0239,0.9627,0.8354,0.751,0.7136,0.6884,0.0,0.0,0.0,0.0,0.0,0.0,0.0,0.0,0.0,0.0,0.0,0.0,0.0,0.0,0.0,0.0,0.0,0.0,0.0,0.0,0.0,0.0,0.0,0.0,0.0,0.0,0.0,0.0,1.9163,2.0314,0.0,0.0,1.9716,2.0203,2.0685,2.1354,2.2052,2.2774,2.3235,2.3787,2.4376,2.4959,2.5606,2.6374,2.6403,2.6548,2.6851,2.6548,2.6431,2.6397,2.6247,2.6113,2.6023,2.5356,2.504,2.4962,2.4649,2.4245,2.3749,2.3511,2.3253,2.306,2.3393,2.3283,2.2995,2.328,2.3132,2.2901,2.3209,2.2815,2.2089,2.1584,2.0533,1.948,1.924,1.8832,1.8621,1.9411,1.9611,1.9626,1.9752,1.9612,1.9415,1.9163,1.8707,1.8446,1.8796,1.8332,1.7553,1.6553,1.6467,1.6148,1.505,1.5537,1.5792,1.5184,1.5261,1.5159,1.4651,1.3963,1.3459,1.3265,1.3069,1.2675,1.2004,1.1236,1.0444,0.9627,0.8638,0.7905,0.751,0.7378,0.7127,0.0,0.0,0.0,0.0,0.0,0.0,0.0,0.0,0.0,0.0,0.0,0.0,0.0,0.0,0.0,0.0,0.0,0.0,0.0,0.0,0.0,0.0,0.0,0.0,0.0,0.0,1.9971,2.0623,2.1932,2.2296,2.1054,2.1904,2.2519,2.2538,2.3141,2.3631,2.3943,2.4114,2.4446,2.5073,2.5468,2.6033,2.6804,2.6991,2.7226,2.7489,2.7226,2.7095,2.7095,2.6898,2.6801,2.6764,2.6088,2.5786,2.5786,2.5786,2.5493,2.5016,2.5016,2.4634,2.4089,2.4089,2.3825,2.3453,2.3597,2.3632,2.3598,2.3353,2.3111,2.2791,2.1982,2.0879,1.9797,1.9251,1.8338,1.7653,1.8168,1.831,1.8349,1.8503,1.8426,1.8324,1.8366,1.7947,1.7666,1.8027,1.8106,1.7765,1.6667,1.6856,1.6701,1.5389,1.5839,1.6145,1.5507,1.558,1.5555,1.523,1.4524,1.3964,1.3605,1.3338,1.2928,1.2164,1.1402,1.0689,1.0015,0.9018,0.8336,0.808,0.77,0.731,0.6853,0.0,0.0,0.0,0.0,0.0,0.0,0.0,0.0,0.0,0.0,0.0,0.0,0.0,0.0,0.0,0.0,0.0,0.0,0.0,0.0,0.0,0.0,0.0,1.892,2.0496,2.1669,2.1628,2.3923,2.4748,2.2842,2.4157,2.4798,2.4062,2.4679,2.4878,2.4317,2.505,2.5491,2.5509,2.585,2.6405,2.7204,2.7046,2.7344,2.8106,2.7325,2.6972,2.6953,2.6753,2.6664,2.6646,2.6628,2.6609,2.6628,2.6628,2.6609,2.6609,2.6591,2.5889,2.4915,2.4897,2.4453,2.3926,2.4313,2.4444,2.4326,2.3634,2.3397,2.3096,2.1471,2.027,1.9235,1.8338,1.7353,1.6637,1.7146,1.7271,1.7435,1.7947,1.7666,1.7544,1.8612,1.7585,1.6795,1.7867,1.8066,1.7907,1.7394,1.7271,1.7118,1.6595,1.6522,0.0,1.6522,1.6057,1.5718,1.5718,1.478,1.4152,1.4124,1.363,1.3202,1.2979,1.1721,1.096,1.0807,0.9548,0.8839,0.8839,0.7914,0.7031,0.6202,0.0,0.0,0.0,0.0,0.0,0.0,0.0,0.0,0.0,0.0,0.0,0.0,0.0,0.0,0.0,0.0,0.0,0.0,0.0,0.0,0.0,0.0,2.1037,2.0978,2.2465,2.3779,2.44,2.5039,2.5091,2.4279,2.4888,2.5005,2.427,2.4703,2.4863,2.4464,2.4641,2.5148,2.5993,2.6107,2.6644,2.7699,2.7886,2.8106,2.8324,2.8393,2.8408,2.8408,2.8075,2.7912,2.7852,2.7043,2.6799,2.7019,2.6767,2.6817,2.6988,2.6385,2.5817,2.5265,2.4611,2.3897,2.3241,2.3367,2.3398,2.3365,2.3187,2.3122,2.279,2.1162,2.0449,1.9834,1.8029,1.7312,1.7034,1.6795,1.671,1.6752,1.6909,1.6837,1.6795,1.7118,1.6795,1.6595,1.6879,1.7229,1.7353,1.6795,1.671,1.668,1.6522,1.6522,0.0,1.6522,1.6384,1.6296,1.6296,1.5657,1.5109,1.4727,1.42,1.3326,1.2073,1.165,1.1104,1.0383,1.0011,0.9672,0.9372,0.8643,0.7676,0.0,0.0,0.0,0.0,0.0,0.0,0.0,0.0,0.0,0.0,0.0,0.0,0.0,0.0,0.0,0.0,0.0,0.0,0.0,0.0,0.0,0.0,2.1351,2.2963,2.335,2.4232,2.5024,2.5505,2.5386,2.5272,2.5302,2.5299,2.5129,2.4825,2.522,2.5313,2.498,2.5236,2.5814,2.6628,2.6645,2.7063,2.7897,2.8102,2.8183,2.8183,2.843,2.8551,2.8533,2.8308,2.8183,0.0,2.7502,2.7317,2.7486,2.728,2.7334,0.0,0.0,0.0,0.0,0.0,2.4012,2.349,2.3813,2.3925,2.3877,2.3554,2.3264,2.2727,2.0974,2.0056,1.9251,1.7338,1.6629,1.6328,1.5881,1.5744,1.5744,1.5744,1.592,1.6182,1.6398,1.6497,1.6552,1.6795,0.0,0.0,1.6552,1.668,1.6752,1.6522,1.6522,1.6522,1.6522,1.6522,1.6522,1.6522,1.6233,1.5819,1.5266,1.4739,0.0,0.0,0.0,1.1584,1.0819,1.0564,0.0,0.0,0.0,0.0,0.0,0.0,0.0,0.0,0.4048,0.3132,0.0,0.0,0.0,0.0,0.0,0.0,0.0,0.0,0.0,0.0,0.0,0.0,0.0,0.0,0.0,0.0,2.3301,2.4719,2.5484,2.5572,2.5523,2.5486,2.5344,2.5441,2.5944,2.5616,2.5429,2.5604,2.6022,2.6073,2.5727,0.0,0.0,0.0,0.0,2.7439,2.7718,2.7747,2.7672,2.7549,2.7672,2.7637,2.7496,2.7625,2.7625,2.7549,2.7566,2.7613,2.7643,2.7613,2.7601,2.7631,2.7689,2.7063,2.5976,2.5077,2.4459,0.0,0.0,0.0,0.0,2.4052,2.3367,2.2486,2.0584,1.9304,1.8106,1.6465,1.5705,1.5224,1.481,1.4698,1.4698,1.4698,1.5141,1.5708,1.6133,1.6343,1.6637,1.7021,1.674,1.6423,1.6479,1.6879,1.7034,1.6552,1.6522,1.6522,1.6522,1.6522,1.6522,1.6522,0.0,0.0,1.5743,1.5241,1.4879,1.4637,1.3259,1.2221,1.164,1.1207,1.0654,0.9961,0.8296,0.7247,0.6795,0.503,0.4491,0.5058,0.2961,0.1851,0.0,0.0,0.0,0.0,0.0,0.0,0.0,0.0,0.0,0.0,0.0,0.0,0.0,0.0,0.0,2.2574,2.4166,2.5327,2.5505,2.5321,2.5237,2.5408,2.5795,2.6056,2.6001,2.6634,2.6879,2.6499,2.6854,2.6908,2.6521,2.6918,0.0,2.7303,2.7303,2.7126,2.6768,2.6785,2.632,2.5422,0.0,0.0,2.5095,2.5861,2.5909,2.5402,2.5635,2.59,2.6166,2.5845,2.5717,2.579,2.6488,2.6201,2.5318,2.4689,2.4163,2.3712,2.3876,2.3608,2.3069,2.2302,2.1611,2.0711,1.8866,1.8172,0.0,1.5925,1.5464,1.5334,1.4846,1.4698,1.4698,1.4698,1.5141,1.5499,1.5096,1.5788,1.638,1.5983,1.5852,1.5908,1.6423,1.6595,1.6637,1.6522,1.6522,1.6522,1.6522,1.6522,1.6522,1.6522,1.6522,1.6296,1.5743,1.5593,1.5142,1.4294,1.3468,1.2617,1.1736,1.2007,1.1375,0.9702,0.8767,0.7601,0.6235,0.5133,0.4369,0.3919,0.3472,0.2207,0.0,0.0,0.0,0.0,0.0,0.0,0.0,0.0,0.0,0.0,0.0,1.9308,2.0695,0.0,2.3273,2.4117,2.4949,2.5586,2.5865,2.5749,2.5698,2.5836,2.5944,2.6277,2.6985,2.7227,2.7405,2.7549,2.7408,2.721,2.6987,2.6987,2.7083,2.7286,2.7115,2.6838,2.6505,2.6011,2.5158,2.3955,2.4155,2.3739,2.2757,2.3605,2.3819,2.3544,2.4045,2.4349,2.4524,2.4324,2.4259,2.4259,2.4445,2.4603,2.4792,2.4511,2.3849,2.3143,2.3143,2.25,2.1594,2.122,2.015,1.8846,1.795,1.7031,1.6103,1.4993,1.4599,1.4413,1.3936,1.38,1.38,1.38,1.4283,1.4641,1.4329,1.5197,1.5864,1.5287,1.541,1.5688,1.6008,1.6051,1.6139,1.6466,1.6522,1.6522,1.6522,1.6522,1.6522,1.6522,1.6522,1.6409,1.6132,1.5856,1.5341,1.4551,1.4212,1.3704,1.2876,1.2537,1.1473,0.9546,0.8276,0.6944,0.5533,0.4003,0.3345,0.36,0.3586,0.2329,0.0,0.0,0.0,0.0,0.0,0.0,0.0,0.0,1.813,1.9865,2.074,2.1664,2.3134,2.4068,2.4865,2.5638,2.5687,2.5868,2.6523,2.6322,2.6205,2.6441,2.6289,2.6581,2.7638,2.762,2.7716,2.8139,2.7718,2.7348,2.7178,2.6856,2.6791,2.7034,2.6826,2.6502,2.6068,2.515,2.3891,2.2349,2.1756,2.0926,1.9978,2.0986,2.1365,2.1319,2.2187,2.2571,2.2571,2.2571,2.2571,2.2527,2.2104,2.2553,2.3501,2.3788,2.3201,2.2285,2.2285,2.139,2.0152,1.985,1.8517,1.6972,1.6706,1.5599,1.4388,1.3959,1.3671,1.3357,1.2831,1.2666,1.2666,1.2666,1.317,1.3616,1.3637,1.4595,1.5231,1.4652,1.4915,1.5276,1.541,1.541,1.5688,1.638,1.6522,1.6522,1.6522,1.6522,1.6522,1.6522,1.6522,1.6522,1.6522,1.6107,1.5618,1.5104,1.4949,1.4572,1.3865,1.253,1.1007,0.9308,0.748,0.6126,0.514,0.2895,0.2443,0.3573,0.3135,0.1886,1.3787,1.5336,1.7143,1.889,1.8964,1.9616,0.0,0.0,2.2564,2.4245,2.4707,2.4904,2.5162,2.5305,2.5662,2.6518,2.6408,2.6555,2.7585,2.6578,2.6088,2.6981,2.7529,2.7469,2.6576,2.7889,2.8424,2.7482,2.7678,2.75,2.6825,2.6606,2.6387,2.6175,2.6512,2.6037,2.4563,2.3836,2.2235,1.9728,1.9071,1.7721,1.5955,1.7879,1.8426,1.8014,1.9358,1.9949,1.9949,1.9949,1.9949,1.99,1.9875,1.9912,2.0224,2.1519,2.1499,2.082,2.082,1.9952,1.8613,1.7246,1.6227,1.5283,1.3921,1.3623,1.365,1.314,1.324,1.3246,1.2181,1.1922,1.1922,1.1922,1.2444,1.2938,1.3007,1.3931,1.4606,1.4003,1.3956,1.419,1.4698,1.4789,1.5197,1.6337,1.6522,1.6522,1.6522,1.6522,1.6522,1.6522,1.6522,1.6522,1.6522,1.6459,1.6183,1.563,1.5101,1.4334,1.3324,1.1439,0.9894,0.8806,0.683,0.5769,0.5727,0.3061,0.2427,0.3535,0.1395,0.0279,1.7291,1.861,1.9764,0.0,2.1529,2.2239,2.4178,2.3966,2.3753,2.5024,2.5341,2.5418,2.5445,2.5515,2.5816,0.0,2.666,2.6968,2.8032,2.7255,2.6631,2.6842,2.7586,2.7763,2.6918,2.7925,2.8368,2.7707,2.7309,2.6948,2.6606,2.604,2.5856,2.6118,2.5871,2.5222,2.4156,2.3055,2.1064,1.817,1.6909,1.5689,1.448,1.4965,1.5652,1.6389,1.6995,1.721,1.7244,1.7038,1.7289,1.7725,1.7725,1.7963,1.8543,1.9901,2.0002,1.9444,1.9444,1.8218,1.6549,1.593,1.4625,1.3253,1.3053,1.2625,1.2306,1.3081,1.2761,1.2235,1.2229,1.1701,1.1216,1.1216,1.1458,1.1756,1.2178,1.2938,1.3511,1.3324,1.3552,1.3862,1.4143,1.419,1.4595,1.5776,1.6281,1.6522,1.6522,1.6522,1.6522,1.6522,1.6522,1.6522,1.6522,1.6522,1.6237,1.5679,1.5408,1.4582,1.3024,1.1397,0.9706,0.8086,0.6597,0.5536,0.5058,0.3905,0.2713,0.1459,0.0449,-0.0,1.9764,2.1026,0.0,2.2603,2.3503,2.4268,2.439,2.4321,2.4422,2.5148,2.5341,2.539,2.5409,2.5479,2.587,2.693,2.7055,2.747,2.8787,2.7972,2.7206,2.7214,2.7606,2.7672,2.7188,2.7972,2.8254,2.7619,2.6899,2.6522,2.6621,2.5583,2.5277,2.5942,2.5047,2.4173,2.3441,2.1774,1.9471,1.6572,1.4702,1.336,1.2364,1.2167,1.2893,1.4285,1.456,1.4639,1.4583,1.469,1.5129,1.582,1.582,1.6296,1.7058,1.7778,1.7875,1.7705,1.7705,1.6392,1.4604,1.4105,1.2995,1.1834,1.195,1.1661,1.1511,1.2597,1.2226,1.1544,1.1833,1.1206,1.0458,1.0246,1.0407,1.0661,1.114,1.1787,1.2297,1.255,1.2967,1.3331,1.3505,1.3684,1.4097,1.4949,1.5776,1.6293,1.6466,1.6522,1.6522,1.6522,1.6522,1.6522,1.6522,1.6522,1.6238,1.5632,1.5252,1.4299,1.259,1.0797,0.913,0.7576,0.6213,0.5203,0.4501,0.4511,0.2977,-0.0,-0.0,-0.0,0.0,0.0,2.3814,2.3862,2.4615,2.5341,2.5284,2.5264,2.5264,2.5284,2.5303,2.5322,2.539,2.5399,2.5982,2.7773,2.779,2.826,3.0179,2.8628,2.765,2.8613,2.7907,2.7251,0.0,2.8093,2.8198,2.6841,2.6606,2.6604,2.6857,2.5273,2.4626,2.5297,2.3906,2.2825,2.2051,1.9659,1.7091,1.4572,1.2316,1.026,0.8609,0.9339,1.0194,1.0973,1.203,1.2336,1.2111,1.3044,1.381,1.4264,1.4264,1.4746,1.541,1.4619,1.4808,1.5408,1.5408,1.4387,1.281,1.1169,1.1183,1.1516,0.9901,1.0514,1.1682,1.1308,1.1545,1.163,1.06,1.0113,0.9651,0.8947,0.9325,0.9799,0.9798,1.0324,1.1065,1.1715,1.1864,1.207,1.2813,1.342,1.3815,1.3862,1.4858,1.582,1.6423,1.6522,1.6522,1.6522,1.6522,1.6522,1.6522,1.6522,1.6238,1.5632,1.4448,1.3135,1.1777,0.9116,0.7576,0.7311,0.5462,0.4546,0.4514,0.4514,0.2977,-0.0,-0.0,-0.0,2.253,0.0,2.3778,2.4358,2.4825,2.5181,2.5332,2.5222,2.5141,2.5274,2.5303,2.5303,2.5322,2.537,2.5975,2.7752,2.7942,2.8442,3.0067,2.9026,2.8156,2.8308,2.783,0.0,0.0,0.0,0.0,2.6808,2.6284,2.5946,2.5715,2.4448,2.3778,2.3829,2.2884,2.1922,2.0935,1.8997,1.6652,1.3839,1.1166,0.9119,0.7684,0.8836,0.9394,0.951,1.059,1.1039,1.0924,1.1581,1.2262,1.2877,1.2653,1.3114,1.3786,1.3485,1.2838,1.2173,1.2712,1.2249,1.1169,1.0014,0.9464,0.9169,0.8608,0.925,1.0249,1.0629,1.0692,1.0697,1.0711,1.006,0.9187,0.8228,0.862,0.9093,0.9044,0.9622,1.0312,1.1015,1.1166,1.1216,1.1484,1.2061,1.2783,1.3674,1.4812,1.582,1.6423,1.6522,1.6522,1.6522,1.6522,1.6522,1.6522,1.6139,1.5644,1.5062,1.381,1.228,1.0463,0.9065,0.7687,0.6396,0.5156,0.4504,0.4514,0.2469,0.1009,-0.0,-0.0,-0.0,2.3634,2.3688,2.3444,2.4955,2.5174,2.5176,2.5737,2.5485,2.519,2.5312,2.5023,2.4753,2.4753,2.456,2.5072,2.7159,2.7518,2.8163,2.9973,2.9315,2.8602,2.8464,2.8081,2.7641,0.0,0.0,0.0,2.6556,2.599,2.5552,2.5207,2.4043,2.3334,2.3062,2.207,2.0838,1.9533,1.7765,1.5267,1.2045,0.9492,0.7791,0.7001,0.7799,0.809,0.7961,0.9,0.961,0.9868,1.0541,1.1349,1.2163,1.2026,1.2173,1.248,1.2181,1.1231,1.0147,1.0954,1.0524,0.947,0.8559,0.8195,0.7962,0.7632,0.8156,0.8935,0.9482,0.9619,0.9726,1.0235,0.9771,0.9048,0.8559,0.862,0.8791,0.8692,0.9072,0.9666,1.0312,1.0415,1.0517,1.0762,1.1166,1.1904,1.3226,1.41,1.4971,1.6051,1.638,1.6522,1.6522,1.6522,1.6522,1.6522,1.5964,1.5219,1.44,1.2916,1.1247,0.9429,0.8268,0.6949,0.5428,0.4782,0.3943,0.2865,0.0953,-0.0,-0.0,-0.0,-0.0,2.343,2.2957,2.2905,2.5504,2.563,2.5373,2.6425,2.5991,2.536,2.5312,2.4462,2.3705,2.3667,0.0,2.3438,2.6044,2.6626,2.7551,2.9915,2.9479,2.9015,0.0,0.0,0.0,0.0,0.0,0.0,2.6089,0.0,2.5512,2.528,2.3967,2.3109,2.2795,2.1307,1.9629,1.7861,1.5965,1.3107,0.9301,0.7326,0.6338,0.6338,0.6338,0.6338,0.6338,0.7403,0.8275,0.8885,1.0041,1.1151,1.2173,1.2071,1.1907,1.1527,1.0732,0.9838,0.9186,1.004,0.9291,0.7767,0.6915,0.7177,0.7702,0.6915,0.7242,0.7962,0.7962,0.8375,0.8938,0.9252,0.9345,0.9357,0.9613,0.9309,0.8864,0.8764,0.8784,0.9008,0.9614,0.9769,0.9969,1.061,1.0771,1.1208,1.2522,1.2764,1.347,1.5309,1.6095,1.6466,1.6466,1.6466,1.6479,1.6479,1.5864,1.4971,1.3695,1.1737,0.9995,0.8692,0.6836,0.5428,0.4511,0.434,0.2865,-0.0,-0.0,-0.0,-0.0,-0.0,-0.0,2.222,2.2269,2.2485,2.3946,2.4663,2.5251,2.6073,2.5692,2.4955,2.415,2.3297,2.2488,2.1905,0.0,0.0,2.4503,2.6187,0.0,2.9134,2.9507,0.0,2.9692,0.0,2.8475,2.8437,2.8122,0.0,0.0,2.5654,2.5515,2.4974,2.3284,2.1691,2.0278,1.9868,1.8736,1.6954,1.4316,1.1717,0.9296,0.8008,0.7022,0.6338,0.6338,0.6338,0.6412,0.8165,0.9039,0.9265,1.0858,1.17,1.1867,1.0741,1.0324,1.0099,0.9491,0.8582,0.7736,0.8435,0.7947,0.6915,0.602,0.5888,0.6013,0.5818,0.6334,0.7046,0.7046,0.8045,0.9166,0.9004,0.984,1.0596,0.9953,0.9947,0.9911,0.9329,0.8978,0.8857,0.9008,0.9061,0.9263,0.9917,1.0064,1.0364,1.1157,1.2181,1.3301,1.4732,1.5466,1.582,1.582,1.6238,1.6337,1.5864,1.4824,1.3617,1.2272,1.0311,0.8731,0.7699,0.5823,0.4691,0.4511,0.2301,0.0784,-0.0,-0.0,-0.0,-0.0,-0.0,-0.0,2.1736,2.1265,2.1156,2.3635,2.3999,2.4198,2.578,2.4907,2.3506,2.2449,2.1199,0.0,1.9851,2.0651,0.0,0.0,0.0,0.0,2.8427,2.9341,2.9639,0.0,2.875,0.0,2.8087,2.7833,2.7255,0.0,2.5903,2.5135,2.3635,2.2528,2.1128,1.9354,1.9299,1.82,1.6009,1.3027,1.0846,0.9296,0.8313,0.7249,0.6338,0.6338,0.6338,0.6338,0.0,0.8237,0.868,0.9675,1.0289,1.045,0.9595,0.9028,0.8643,0.8343,0.6892,0.5359,0.6473,0.6043,0.5001,0.5306,0.5379,0.5369,0.5369,0.5756,0.6141,0.6141,0.7116,0.8227,0.8595,0.9449,1.0285,1.0544,1.0419,1.0099,0.9824,0.9357,0.8958,0.8831,0.8804,0.891,0.9309,0.9361,0.9562,1.0261,1.1007,1.1837,1.285,1.4286,1.5186,1.5186,1.5511,1.5454,1.4824,1.3559,1.2223,1.0855,0.9061,0.7777,0.7025,0.536,0.386,0.2525,0.0841,-0.0,-0.0,-0.0,-0.0,-0.0,-0.0,-0.0,2.136,2.0312,1.9786,2.3498,2.3319,2.2832,2.5131,2.3567,2.1347,2.0333,0.0,1.7578,1.7665,1.8721,2.0141,2.1855,0.0,2.6548,2.7592,2.8852,2.916,2.7724,2.8194,2.8302,2.7489,2.7448,2.7312,2.6858,2.5973,2.4497,2.2184,2.174,2.0782,1.9177,1.9034,1.7716,1.5234,1.2538,1.0559,0.9296,0.8389,0.7403,0.6338,0.6412,0.6416,0.6338,0.0,0.0,0.8012,0.8012,0.8426,0.9051,0.8782,0.8198,0.7427,0.7241,0.54,0.3286,0.4861,0.4244,0.295,0.4236,0.4843,0.5106,0.5312,0.5372,0.5428,0.5428,0.6009,0.6932,0.7991,0.8567,0.926,1.0942,1.0473,0.9704,1.0161,0.9722,0.9097,0.8864,0.8804,0.8804,0.8804,0.8804,0.9008,0.9562,0.9762,1.0012,1.061,1.2908,1.4411,1.4307,1.4457,1.4239,1.3392,1.231,1.0997,0.9409,0.8006,0.6965,0.6354,0.5127,0.3091,0.0056,-0.0,-0.0,-0.0,-0.0,-0.0,-0.0,-0.0,-0.0,1.991,2.0064,2.0579,2.0812,2.1673,2.2504,2.2765,2.0934,0.0,0.0,1.6947,1.6128,1.5492,1.7038,1.8805,2.0057,2.2968,2.536,2.6225,0.0,2.8369,0.0,0.0,0.0,0.0,0.0,0.0,0.0,0.0,0.0,2.2548,2.0768,1.9299,1.8269,1.7472,1.6489,1.5234,1.3875,1.189,0.9296,0.9145,0.8089,0.6338,0.7176,0.7099,0.6416,0.0,0.0,0.9069,0.9069,0.9567,1.0302,0.8712,0.8051,0.7742,0.6279,0.5423,0.4998,0.5295,0.4201,0.2495,0.1341,0.1941,0.3418,0.4913,0.5386,0.5376,0.5376,0.6017,0.6776,0.6928,0.8052,0.9235,0.9556,0.9254,0.9089,0.99,0.961,0.9097,0.8864,0.8804,0.8804,0.8804,0.8804,0.8857,0.8956,0.9465,0.9865,0.9961,1.1837,1.2908,1.2289,1.3212,1.3135,1.1384,1.1351,1.0375,0.7871,0.7074,0.6174,0.4905,0.4626,0.3091,0.0056,-0.0,-0.0,-0.0,-0.0,-0.0,-0.0,-0.0,-0.0,1.6192,1.4091,1.2456,1.1679,1.2702,1.4291,1.5721,0.0,0.0,0.0,1.4718,1.4349,1.4058,1.586,0.0,1.889,2.1582,2.389,2.4819,2.6179,0.0,0.0,0.0,0.0,0.0,0.0,0.0,0.0,0.0,0.0,2.0934,1.9477,1.8462,1.8008,1.707,1.6149,1.5234,1.4171,1.2184,0.9296,0.9296,0.8237,0.6338,0.6795,0.6718,0.6338,0.7326,0.0,0.7706,0.7714,0.8016,0.8367,0.7446,0.7086,0.698,0.6175,0.4444,0.256,0.2567,0.2025,0.1146,0.0269,0.0604,0.1472,0.2345,0.3485,0.4625,0.5239,0.5697,0.6141,0.6593,0.7288,0.7986,0.8441,0.8635,0.8847,0.9088,0.9176,0.8987,0.8372,0.8209,0.8103,0.7723,0.7996,0.8209,0.8209,0.8844,0.9152,0.8771,1.03,1.1217,1.0697,1.1801,1.1787,0.9843,0.9866,0.8328,0.4497,0.3542,0.3231,0.3307,0.2575,0.1455,0.0056,-0.0,-0.0,-0.0,-0.0,-0.0,-0.0,-0.0,-0.0,1.2635,0.7722,0.3196,0.1977,0.2383,0.4106,0.7866,0.9634,0.0,0.0,1.2785,1.2818,1.3089,1.4859,1.6744,0.0,2.0484,2.2491,2.3511,2.5032,2.5905,0.0,2.6929,0.0,0.0,0.0,0.0,0.0,0.0,0.0,1.9044,1.8395,1.8008,1.8008,1.7285,1.6358,1.5234,1.4386,1.2405,0.9296,0.9296,0.8237,0.6338,0.649,0.649,0.6338,0.657,0.0,0.0,0.6433,0.5938,0.5413,0.5153,0.5038,0.4985,0.4501,0.2536,-0.0,-0.0,-0.0,-0.0,-0.0,-0.0,-0.0,-0.0,0.1338,0.3209,0.4903,0.5372,0.5561,0.6268,0.6396,0.6593,0.7312,0.7884,0.8298,0.7947,0.8495,0.8775,0.789,0.7723,0.7509,0.6912,0.7289,0.7723,0.7723,0.8209,0.8434,0.7961,0.8924,0.9155,0.8047,0.9134,0.9204,0.7315,0.7149,0.5416,0.1374,-0.0221,-0.0445,0.0724,0.0279,-0.0,-0.0,-0.0,-0.0,-0.0,-0.0,-0.0,-0.0,-0.0,-0.0,1.1021,0.4717,-0.2168,-0.4171,-0.5415,-0.4561,0.1573,0.0,0.5888,1.0807,1.1838,1.1994,1.2556,1.3938,1.5711,1.7946,0.0,2.153,2.2421,2.4804,2.5471,2.2875,0.0,0.0,0.0,0.0,0.0,0.0,0.0,0.0,0.0,1.8008,1.8008,1.8008,1.794,1.701,1.5234,1.5092,1.3114,0.9296,0.9296,0.8237,0.6338,0.7253,0.7176,0.6338,0.0,0.0,0.0,0.6832,0.4849,0.2527,0.139,0.0929,0.0625,-0.1219,-0.1073,-0.0,-0.0,-0.0,-0.0,-0.0,-0.0,-0.0,-0.0,0.0134,0.1071,0.4439,0.5386,0.5442,0.5495,0.5491,0.5557,0.5624,0.6256,0.6788,0.6306,0.7398,0.8299,0.7817,0.7723,0.767,0.7616,0.767,0.7723,0.7723,0.7777,0.802,0.8644,0.8081,0.6239,0.2567,0.3839,0.416,0.2242,0.2082,0.1539,0.0221,-0.2506,-0.4042,-0.3881,-0.1398,-0.0,-0.0,-0.0,-0.0,-0.0,-0.0,-0.0,-0.0,-0.0,-0.0,0.7884,-0.095,-1.0202,-1.1399,-1.093,-0.8717,-0.321,0.0,0.3556,0.9904,1.1599,1.2077,1.2517,1.358,1.504,1.7068,1.8053,1.9255,2.1221,2.2429,2.2876,2.2228,0.0,0.0,0.0,0.0,0.0,0.0,0.0,0.0,0.0,1.6664,1.7432,1.8008,1.7432,1.6507,1.5234,1.3988,1.2011,0.9296,0.8689,0.7629,0.6338,0.6725,0.6651,0.6349,0.0,0.0,0.0,0.3383,0.2121,0.0894,-0.2013,-0.31,-0.3197,-0.4001,-0.3894,-0.295,-0.0737,-0.0,-0.0,-0.0,-0.0,-0.0,-0.0,-0.0,0.0737,0.4378,0.5393,0.5376,0.5372,0.5432,0.5428,0.5428,0.6002,0.6421,0.6046,0.6846,0.7348,0.6524,0.6357,0.6249,0.5823,0.6091,0.6357,0.6357,0.6745,0.7036,0.7074,0.5132,0.2632,-0.0439,0.1529,0.2131,-0.0165,-0.1438,-0.233,-0.267,-0.3858,-0.449,-0.4504,-0.246,-0.0894,-0.0,-0.0,-0.0,-0.0,-0.0,-0.0,-0.0,-0.0,-0.0,0.7584,-0.0812,-0.9494,-0.9752,-0.8905,-0.6827,0.0,0.0183,0.3326,0.9604,1.1349,1.1927,1.2498,1.3292,1.4392,1.6132,1.6935,1.8117,2.0315,2.0873,2.1211,0.0,0.0,0.0,0.0,0.0,0.0,0.0,0.0,0.0,0.0,1.4458,1.5834,1.7148,1.6507,1.572,1.4736,1.3034,1.1205,0.9296,0.8399,0.7338,0.6268,0.6278,0.5964,0.5404,0.0,0.0,0.0,0.0152,-0.1344,-0.1615,-0.4333,-0.5375,-0.5391,-0.5426,-0.5386,-0.5049,-0.2479,-0.087,-0.0,-0.0,-0.0,-0.0,-0.0,-0.0,0.0537,0.3092,0.4576,0.5382,0.5379,0.5372,0.5432,0.5428,0.5693,0.5962,0.573,0.6199,0.645,0.5631,0.5487,0.5324,0.4897,0.5164,0.5487,0.5487,0.5987,0.6046,0.516,0.2646,-0.011,-0.298,-0.1429,-0.1044,-0.3097,-0.4177,-0.4809,-0.4798,-0.4584,-0.448,-0.449,-0.3016,-0.1506,-0.0056,-0.0,-0.0,-0.0,-0.0,-0.0,-0.0,-0.0,-0.0,1.1397,0.77,0.3542,0.4057,0.2765,0.2303,0.5949,0.5318,0.5295,0.9952,1.0897,1.1265,1.24,1.2935,1.3725,1.5269,1.7137,1.8756,1.9865,2.0746,2.1311,0.0,0.0,0.0,0.0,0.0,0.0,0.0,0.0,0.0,0.0,1.1547,1.3172,1.5163,1.5234,1.4736,1.3745,1.2684,1.1205,0.9296,0.8655,0.7594,0.6278,0.6291,0.5176,0.0,0.0,0.0,0.0,-0.2116,-0.5313,-0.5341,-0.5398,-0.5368,-0.5428,-0.5428,-0.5369,-0.5379,-0.5326,-0.3017,-0.0,-0.0,-0.0,-0.0,-0.0,-0.0,-0.0,0.0067,0.2614,0.5393,0.5382,0.5379,0.5376,0.5432,0.5243,0.5091,0.4948,0.538,0.577,0.5525,0.5487,0.5487,0.5487,0.5487,0.5487,0.5487,0.5727,0.5164,0.3192,0.1216,-0.1497,-0.5454,-0.585,-0.6237,-0.7236,-0.6213,-0.5487,-0.5487,-0.4842,-0.4522,-0.448,-0.3014,-0.1505,-0.0056,-0.0,-0.0,-0.0,-0.0,-0.0,-0.0,-0.0,-0.0,1.0277,0.6135,0.1285,0.0776,0.0248,0.0594,0.3395,0.4187,0.5597,1.0001,1.1205,1.1672,1.2459,1.3126,1.4325,1.6697,1.7745,0.0,0.0,0.0,0.0,0.0,0.0,0.0,0.0,0.0,0.0,0.0,0.0,0.0,0.0,0.9241,1.1415,1.4014,1.414,1.4027,1.3673,1.1366,0.9884,0.9301,0.7727,0.6743,0.6281,0.6305,0.0,0.0,0.0,0.0,0.0,-0.3346,-0.5419,-0.5398,-0.5416,-0.5406,-0.5428,-0.5428,-0.5428,-0.5369,-0.5379,-0.409,-0.2406,-0.2011,-0.1006,-0.0,-0.0,-0.0,-0.0,-0.0,0.0803,0.2009,0.3215,0.45,0.5389,0.5386,0.5253,0.5051,0.4877,0.4893,0.4905,0.4853,0.4842,0.4842,0.4842,0.4842,0.4842,0.4842,0.4908,0.3953,0.1271,-0.0772,-0.3254,-0.6564,-0.7047,-0.7031,-0.6874,-0.6041,-0.5487,-0.5487,-0.4897,-0.4522,-0.448,-0.4027,-0.307,-0.1505,-0.1506,-0.1507,-0.1507,-0.1507,-0.1507,-0.1452,-0.0447,-0.0,1.2186,1.0141,0.7285,0.6558,0.603,0.595,0.69,0.7282,0.8134,1.0556,1.1327,1.1758,1.2478,1.3126,1.4262,1.6425,1.7606,0.0,0.0,0.0,0.0,0.0,0.0,0.0,0.0,0.0,0.0,0.0,0.0,0.0,0.0,0.0,1.0504,1.2155,1.2797,1.3171,1.3171,1.0565,0.9296,0.9301,0.7265,0.5879,0.5087,0.4318,0.0,0.0,0.0,0.0,0.0,-0.3756,-0.4801,-0.5381,-0.5403,-0.5428,-0.5428,-0.5428,-0.5428,-0.5428,-0.5376,-0.49,-0.422,-0.3823,-0.2009,-0.0,-0.0,-0.0,-0.0,-0.0,-0.0,0.0268,0.1405,0.2546,0.3549,0.4243,0.4276,0.4302,0.4746,0.4657,0.4477,0.4477,0.4473,0.4525,0.4525,0.4522,0.4519,0.4522,0.4477,0.3405,0.0388,-0.2487,-0.5039,-0.6885,-0.7467,-0.7616,-0.745,-0.674,-0.6195,-0.5928,-0.5277,-0.4791,-0.4529,-0.4477,-0.4027,-0.307,-0.3074,-0.3074,-0.3074,-0.3074,-0.3074,-0.3019,-0.2122,-0.1061,0.0,1.7622,1.8549,1.8225,1.7223,1.5928,1.4487,1.3206,0.0,1.1471,1.1341,1.1645,1.2605,1.3126,1.3881,1.5298,1.7179,0.0,0.0,0.0,0.0,0.0,0.0,0.0,0.0,0.0,0.0,0.0,0.0,0.0,0.0,0.0,1.0195,0.9881,1.1435,1.2238,1.2238,1.0237,0.9352,0.9352,0.7322,0.5237,0.3278,0.1015,0.0,0.0,0.0,0.0,0.0,-0.3561,-0.391,-0.5376,-0.5432,-0.5428,-0.5428,-0.5428,-0.5428,-0.5428,-0.5372,-0.5376,-0.5379,-0.5389,-0.3086,-0.0268,-0.0202,-0.0135,-0.0,-0.0,-0.0,-0.0,-0.0,-0.0,0.0399,0.213,0.2511,0.2869,0.4274,0.4431,0.4324,0.4324,0.4373,0.4421,0.448,0.4525,0.4522,0.4477,0.4317,0.3128,0.0277,-0.3944,-0.6658,-0.6701,-0.7343,-0.8049,-0.8752,-0.8103,-0.7396,-0.6696,-0.5982,-0.5273,-0.468,-0.4581,-0.4588,-0.4588,-0.4543,-0.4494,-0.4494,-0.4494,-0.4494,-0.4494,-0.4494,-0.3021,1.2175,0.0,1.3803,1.3075,1.3176,1.3174,0.0,1.2258,1.2475,1.1741,1.1809,1.2505,1.4267,1.4515,1.5571,1.904,0.0,0.0,0.0,0.0,0.0,0.0,0.0,0.0,0.0,0.0,0.0,0.0,0.0,0.0,0.0,0.0,1.0009,0.9881,1.0988,1.163,1.163,0.9969,0.9479,1.0132,0.753,0.601,0.5446,0.1687,0.0,0.0,0.0,0.0,-0.5345,-0.4934,-0.5001,-0.5376,-0.5432,-0.5428,-0.5428,-0.5428,-0.5428,-0.5428,-0.5432,-0.5432,-0.5432,-0.5379,-0.4223,-0.2674,-0.221,-0.1075,-0.0,-0.0,-0.0,-0.0,-0.0,-0.0,0.0134,0.0519,0.0629,0.0732,0.1064,0.2001,0.2736,0.2736,0.3067,0.3569,0.4366,0.4525,0.4522,0.4477,0.2558,0.0553,-0.088,-0.4692,-0.729,-0.7402,-0.8103,-0.8593,-0.8804,-0.8103,-0.7616,-0.7456,-0.6745,-0.6258,-0.61,-0.555,-0.5277,-0.5277,-0.4739,-0.4525,-0.4525,-0.4525,-0.4525,-0.4525,-0.448,-0.4141,1.0204,1.1916,1.3499,1.2934,1.3396,1.3787,1.3132,1.2842,1.2565,1.2033,0.0,1.2808,1.4242,1.49,0.0,0.0,0.0,0.0,0.0,0.0,0.0,0.0,0.0,0.0,0.0,0.0,0.0,0.0,0.0,0.0,0.0,0.0,1.1441,1.1304,1.1588,1.1681,1.1423,0.9738,0.9092,0.9515,0.7175,0.5609,0.4747,0.246,0.0,0.0,0.0,0.0,-0.302,-0.4736,-0.5382,-0.5376,-0.5432,-0.5428,-0.5428,-0.5428,-0.5428,-0.5428,-0.5428,-0.5428,-0.5428,-0.5376,-0.4967,-0.4356,-0.4025,-0.3226,-0.2285,-0.1478,-0.0671,-0.0,-0.0,-0.0,-0.0,-0.0,-0.0,-0.0,-0.0,0.0623,0.162,0.2968,0.2905,0.3012,0.4307,0.4473,0.4473,0.4487,0.1947,-0.0941,-0.3481,-0.5873,-0.7495,-0.7676,-0.8374,-0.8804,-0.8804,-0.8427,-0.8049,-0.7723,-0.7343,-0.6966,-0.6588,-0.5873,-0.5378,-0.5058,-0.4677,-0.4519,-0.4519,-0.4519,-0.4519,-0.4519,-0.4525,-0.4473,0.9824,1.261,1.5225,1.446,1.5033,1.5695,1.5297,0.0,0.0,0.0,0.0,0.0,1.4386,1.5465,0.0,0.0,0.0,0.0,0.0,0.0,0.0,0.0,0.0,0.0,0.0,0.0,0.0,0.0,0.0,0.0,0.0,0.0,0.0,1.3183,1.2468,1.1935,1.1485,0.9524,0.8573,0.8573,0.6612,0.5132,0.3923,0.3036,0.1643,0.0,0.0,0.0,-0.0268,-0.3625,-0.5183,-0.5376,-0.5432,-0.5428,-0.5428,-0.5428,-0.5428,-0.5428,-0.5428,-0.5428,-0.5428,-0.5372,-0.5376,-0.5379,-0.5386,-0.5389,-0.5049,-0.3551,-0.2008,-0.067,-0.0134,-0.0,-0.0,-0.0,-0.0,-0.0,-0.0,-0.0,0.0897,0.394,0.3421,0.2959,0.4252,0.448,0.4366,0.3866,0.1614,-0.1609,-0.616,-0.7035,-0.7436,-0.7836,-0.8427,-0.8804,-0.8804,-0.8804,-0.8533,-0.7883,-0.7883,-0.7509,-0.6642,-0.6091,-0.5437,-0.4519,-0.4625,-0.4625,-0.4519,-0.4519,-0.4519,-0.4519,-0.4519,-0.4522,1.2109,1.4748,1.6065,1.2687,1.4074,1.6018,1.5014,1.4963,0.0,0.0,0.0,0.0,0.0,1.8531,0.0,0.0,0.0,0.0,0.0,0.0,0.0,0.0,0.0,0.0,0.0,0.0,0.0,0.0,0.0,0.0,0.0,0.0,0.0,1.3945,1.2589,1.1807,1.1733,0.9567,0.8409,0.8409,0.6444,0.6346,0.7735,0.2762,0.0281,0.0,0.0,-0.0,-0.0134,-0.2275,-0.4023,-0.5376,-0.5432,-0.5428,-0.5428,-0.5428,-0.5428,-0.5428,-0.5428,-0.5428,-0.5428,-0.5428,-0.5432,-0.5432,-0.5432,-0.5432,-0.5365,-0.509,-0.4767,-0.3897,-0.0804,-0.0,-0.0,-0.0,-0.0,-0.0,-0.0,-0.0,0.0897,0.394,0.4333,0.4206,0.448,0.448,0.3627,0.1054,0.0277,-0.1767,-0.6673,-0.6944,-0.7187,-0.848,-0.8752,-0.8804,-0.8804,-0.8804,-0.8752,-0.8646,-0.8646,-0.8049,-0.6642,-0.7074,-0.647,-0.4519,-0.5054,-0.5058,-0.4519,-0.4519,-0.4519,-0.4519,-0.4519,-0.4519,1.1072,1.3671,1.5636,1.4118,1.6212,1.8471,1.7692,1.6772,0.0,0.0,0.0,0.0,0.0,0.0,0.0,0.0,0.0,0.0,0.0,0.0,0.0,0.0,0.0,0.0,0.0,0.0,0.0,0.0,0.0,0.0,0.0,0.0,0.0,0.0,1.3511,1.2251,1.172,0.9403,0.8174,0.8179,0.6265,0.5927,0.685,0.3156,0.0956,-0.0,0.0,-0.0,-0.0134,-0.1942,-0.3756,-0.5386,-0.5369,-0.5428,-0.5428,-0.5428,-0.5428,-0.5428,-0.5428,-0.5428,-0.5428,-0.5428,-0.5428,-0.5428,-0.5428,-0.5428,-0.5428,-0.5428,-0.5372,-0.5043,-0.3349,-0.2209,-0.1197,-0.0259,-0.0,-0.0,-0.0,-0.0,0.0672,0.2856,0.3928,0.449,0.4473,0.448,0.3463,0.0443,-0.205,-0.4494,-0.7063,-0.7263,-0.7616,-0.8699,-0.8804,-0.8804,-0.8804,-0.8804,-0.8804,-0.8804,-0.8804,-0.8315,-0.7235,-0.7509,-0.7074,-0.566,-0.5932,-0.5764,-0.5058,-0.5058,-0.4838,-0.4519,-0.4519,-0.4677,1.0446,1.2745,1.5173,1.6063,0.0,2.0212,2.0365,1.8736,0.0,0.0,0.0,0.0,0.0,0.0,0.0,0.0,0.0,0.0,0.0,0.0,0.0,0.0,0.0,0.0,0.0,0.0,0.0,0.0,0.0,0.0,0.0,0.0,0.0,0.0,1.4236,1.261,1.1705,0.9279,0.7892,0.7702,0.6145,0.5369,0.5376,0.3956,0.2142,-0.0,-0.0,-0.027,-0.0741,-0.2146,-0.3758,-0.5393,-0.5369,-0.5428,-0.5428,-0.562,-0.5557,-0.5428,-0.562,-0.5557,-0.5428,-0.5428,-0.5428,-0.5428,-0.5428,-0.5428,-0.5428,-0.5428,-0.5564,-0.5634,-0.5442,-0.4361,-0.2998,-0.1568,-0.0636,-0.0,-0.0,-0.0,0.0452,0.19,0.3469,0.449,0.4522,0.448,0.3466,0.0443,-0.3779,-0.6728,-0.7177,-0.7628,-0.8143,-0.8752,-0.8962,-0.8956,-0.8804,-0.8804,-0.8804,-0.8804,-0.8804,-0.848,-0.7723,-0.7883,-0.7509,-0.6642,-0.675,-0.6475,-0.576,-0.576,-0.5492,-0.5007,-0.5007,-0.5301,1.2445,1.3904,1.5287,1.7266,1.8335,1.9444,2.1387,2.0481,0.0,2.1215,0.0,0.0,0.0,0.0,0.0,0.0,0.0,0.0,0.0,0.0,0.0,0.0,0.0,0.0,0.0,0.0,0.0,0.0,0.0,0.0,0.0,0.0,0.0,0.0,0.0,1.2634,1.1826,0.9296,0.7567,0.6785,0.5815,0.5369,0.5379,0.5252,0.3288,-0.0,-0.0,-0.0944,-0.2498,-0.2618,-0.3758,-0.5393,-0.5369,-0.5428,-0.5491,-0.6334,-0.6075,-0.5491,-0.6334,-0.6075,-0.5428,-0.5428,-0.5428,-0.5428,-0.5428,-0.5428,-0.5428,-0.5428,-0.6009,-0.64,-0.5638,-0.5309,-0.5176,-0.5052,-0.2427,-0.0,-0.0,-0.0,0.0465,0.1908,0.3469,0.449,0.4522,0.448,0.3466,0.0442,-0.3773,-0.6609,-0.6652,-0.7794,-0.8646,-0.8804,-0.9361,-0.9458,-0.8857,-0.8804,-0.8804,-0.8804,-0.8804,-0.848,-0.7723,-0.8374,-0.8049,-0.6642,-0.7289,-0.7235,-0.6529,-0.6529,-0.648,-0.6426,-0.6426,-0.6644,1.0856,1.2974,1.5396,1.7356,1.8703,0.0,0.0,2.1114,2.1342,2.2211,2.3151,0.0,0.0,0.0,0.0,0.0,0.0,0.0,0.0,0.0,0.0,0.0,0.0,0.0,0.0,0.0,0.0,0.0,0.0,0.0,0.0,0.0,0.0,0.0,0.0,1.1819,1.0996,0.8977,0.7567,0.6719,0.5815,0.5428,0.5369,0.5386,0.403,0.1606,0.0471,-0.1012,-0.2701,-0.2684,-0.3758,-0.5393,-0.5369,-0.5752,-0.6268,-0.6588,-0.6854,-0.7055,-0.7377,-0.692,-0.6203,-0.6203,-0.5815,-0.5428,-0.5428,-0.5428,-0.5428,-0.5428,-0.562,-0.5818,-0.5498,-0.5822,-0.6086,-0.5519,-0.3501,-0.1372,-0.0247,-0.0,0.0455,0.1902,0.3469,0.449,0.4477,0.3458,0.1831,-0.0495,-0.4416,-0.7285,-0.7853,-0.8396,-0.8935,-0.9361,-0.9256,-0.9061,-0.8804,-0.8804,-0.8804,-0.8804,-0.8804,-0.8699,-0.8374,-0.8646,-0.8533,-0.799,-0.8262,-0.8049,-0.7289,-0.7289,-0.7074,-0.6588,-0.6588,-0.6905,1.0569,1.2953,1.5759,1.7299,0.0,0.0,2.1469,2.1959,2.2442,2.3272,2.4413,0.0,0.0,0.0,0.0,0.0,0.0,0.0,0.0,0.0,0.0,0.0,0.0,0.0,0.0,0.0,0.0,0.0,0.0,0.0,0.0,0.0,0.0,0.0,0.0,1.126,1.0123,0.8726,0.7567,0.6719,0.5815,0.5428,0.5428,0.5386,0.4436,0.2611,0.0807,-0.1012,-0.2701,-0.2684,-0.3951,-0.5774,-0.5498,-0.6075,-0.7111,-0.7111,-0.7502,-0.8027,-0.8291,-0.7832,-0.7046,-0.6785,-0.6264,-0.5752,-0.5491,-0.5428,-0.5428,-0.5428,-0.5624,-0.5752,-0.5491,-0.5815,-0.6141,-0.5572,-0.4437,-0.2896,-0.0494,-0.0,0.0287,0.1289,0.3135,0.4324,0.3685,0.2168,0.0332,-0.1701,-0.507,-0.7699,-0.858,-0.8922,-0.9309,-0.9762,-0.9211,-0.8804,-0.8804,-0.8804,-0.8804,-0.8804,-0.8804,-0.8804,-0.8804,-0.8804,-0.8804,-0.8804,-0.8804,-0.854,-0.8049,-0.8049,-0.7777,-0.7289,-0.7289,-0.7603,1.2274,1.4267,1.649,0.0,0.0,0.0,2.3404,2.3079,2.2936,2.4766,0.0,2.6172,0.0,0.0,0.0,0.0,0.0,0.0,0.0,0.0,0.0,0.0,0.0,0.0,0.0,0.0,0.0,0.0,0.0,0.0,0.0,0.0,0.0,0.0,0.0,1.0961,0.9338,0.842,0.7567,0.6719,0.5815,0.5428,0.5428,0.5386,0.4436,0.2611,0.0807,-0.1012,-0.2701,-0.2751,-0.4268,-0.6588,-0.5752,-0.647,-0.8027,-0.8027,-0.8027,-0.8156,-0.9011,-0.8748,-0.7897,-0.6981,-0.6719,-0.6527,-0.5686,-0.5428,-0.5428,-0.5428,-0.6009,-0.6461,-0.562,-0.5428,-0.5432,-0.5376,-0.5386,-0.4438,-0.081,-0.0,-0.0,-0.0,0.2408,0.3819,0.1833,0.0666,-0.0775,-0.3018,-0.5688,-0.7753,-0.858,-0.9377,-0.9814,-0.9814,-0.9211,-0.8804,-0.8804,-0.8811,-0.8811,-0.8804,-0.8804,-0.8804,-0.8804,-0.8804,-0.8804,-0.8804,-0.8804,-0.8804,-0.8804,-0.8804,-0.8804,-0.8804,-0.8804,-0.8965,1.2457,1.5196,0.0,1.9046,0.0,0.0,0.0,2.4437,0.0,0.0,0.0,0.0,0.0,0.0,0.0,0.0,0.0,0.0,0.0,0.0,0.0,0.0,0.0,0.0,0.0,0.0,0.0,0.0,0.0,0.0,0.0,0.0,0.0,0.0,1.1344,1.0415,0.9338,0.842,0.7567,0.6719,0.5815,0.5428,0.5428,0.5376,0.4431,0.2611,0.0804,-0.1008,-0.2771,-0.4108,-0.5096,-0.5752,-0.5491,-0.647,-0.8027,-0.8027,-0.8801,-0.9843,-1.0104,-0.9652,-0.8748,-0.7892,-0.7632,-0.7312,-0.5818,-0.5815,-0.6203,-0.5557,-0.5557,-0.5752,-0.5491,-0.5428,-0.5428,-0.5432,-0.5425,-0.4778,-0.2417,-0.0907,-0.0,-0.0,-0.0112,-0.0056,0.0389,-0.1104,-0.3406,-0.6602,-0.78,-0.8751,-1.0033,-1.0805,-1.1015,-1.0559,-1.032,-1.0012,-0.9562,-0.951,-0.9309,-0.8804,-0.8804,-0.8804,-0.8804,-0.8804,-0.8804,-0.8804,-0.8804,-0.8804,-0.8804,-0.8804,-0.8804,-0.8804,-0.8804,-0.8851,1.4656,1.7382,0.0,2.1194,2.2945,2.4544,2.4907,0.0,0.0,0.0,0.0,0.0,0.0,0.0,0.0,0.0,0.0,0.0,0.0,0.0,0.0,0.0,0.0,0.0,0.0,0.0,0.0,0.0,0.0,0.0,0.0,0.0,0.0,0.0,1.0863,1.004,0.8812,0.8285,0.7372,0.6203,0.562,0.5428,0.5428,0.5372,0.4837,0.3623,0.1073,-0.1008,-0.2827,-0.4648,-0.5579,-0.5947,-0.5947,-0.699,-0.8484,-0.8484,-0.939,-1.0624,-1.0624,-1.0047,-0.9139,-0.8285,-0.8027,-0.7702,-0.5951,-0.6009,-0.6527,-0.562,-0.5428,-0.5428,-0.5428,-0.5428,-0.5428,-0.5428,-0.5367,-0.5054,-0.3915,-0.1756,-0.0177,-0.0789,-0.2068,-0.2961,-0.2441,-0.375,-0.577,-0.8309,-0.9384,-1.012,-1.0712,-1.1366,-1.1566,-1.0864,-1.0813,-1.0517,-0.9865,-0.9814,-0.951,-0.8857,-0.8804,-0.8804,-0.8804,-0.8804,-0.8804,-0.8804,-0.8804,-0.8804,-0.8804,-0.8804,-0.8804,-0.8804,-0.8804,-0.8804,1.7744,0.0,0.0,2.3294,2.3687,0.0,2.548,0.0,0.0,0.0,0.0,0.0,0.0,0.0,0.0,0.0,0.0,0.0,0.0,0.0,0.0,0.0,0.0,0.0,0.0,0.0,0.0,0.0,0.0,0.0,0.0,0.0,0.0,0.0,1.0541,0.9779,0.8156,0.8027,0.7181,0.0,0.5477,0.5342,0.5342,0.5365,0.5316,0.4986,0.148,-0.1006,-0.2802,-0.4625,-0.5815,-0.6563,-0.6563,-0.7618,-0.9204,-0.9204,-0.9786,-1.0624,-1.0624,-1.011,-0.9268,-0.8291,-0.8027,-0.7767,-0.5951,-0.5997,-0.6506,-0.5617,-0.5418,-0.5411,-0.5425,-0.5418,-0.5342,-0.5342,-0.5348,-0.5339,-0.5171,-0.2633,-0.0782,-0.1976,-0.353,-0.4945,-0.5859,-0.6825,-0.7771,-0.8835,-1.0637,-1.1665,-1.1074,-1.1516,-1.1665,-1.1074,-1.0973,-1.0669,-0.9961,-0.9917,-0.9562,-0.8857,-0.8804,-0.8804,-0.8804,-0.8804,-0.8804,-0.8804,-0.8804,-0.8804,-0.8804,-0.8804,-0.8804,-0.8804,-0.8804,-0.8804,1.6698,1.9122,0.0,0.0,2.4279,2.5067,2.6228,0.0,0.0,0.0,0.0,0.0,0.0,0.0,0.0,0.0,0.0,0.0,0.0,0.0,0.0,0.0,0.0,0.0,0.0,0.0,0.0,0.0,0.0,0.0,0.0,0.0,0.0,0.9248,1.0108,1.0104,0.9011,0.8355,0.7832,0.0,0.5876,0.5179,0.5182,0.5308,0.4625,0.3151,0.0938,-0.0861,-0.2465,-0.4234,-0.5203,-0.5428,-0.5428,-0.6591,-0.8291,-0.8291,-0.9262,-1.0624,-1.0624,-1.0498,-1.004,-0.8479,-0.8484,-0.8554,-0.6145,-0.5921,-0.6285,-0.5588,-0.5274,-0.5209,-0.5328,-0.527,-0.5179,-0.5179,-0.5182,-0.5171,-0.5128,-0.4398,-0.3457,-0.2419,-0.4015,-0.5914,-0.683,-0.7765,-0.9044,-1.0839,-1.203,-1.2618,-1.2461,-1.2559,-1.2618,-1.2461,-1.2461,-1.195,-1.0669,-1.0568,-1.0064,-0.8857,-0.8804,-0.8804,-0.8804,-0.8804,-0.8804,-0.8804,-0.8804,-0.8804,-0.8804,-0.8804,-0.8804,-0.8804,-0.8804,-0.8804,1.7031,0.0,0.0,2.3885,0.0,2.5159,2.5777,0.0,0.0,0.0,0.0,0.0,0.0,0.0,0.0,0.0,0.0,0.0,0.0,0.0,0.0,0.0,0.0,0.0,0.0,0.0,0.0,0.0,0.0,0.0,0.0,1.0956,0.9648,0.8248,0.8816,0.8892,0.8331,0.7519,0.7082,0.7019,0.5685,0.503,0.5033,0.5185,0.4775,0.3872,0.1158,-0.0829,-0.2328,-0.4045,-0.48,-0.5026,-0.5454,-0.6489,-0.7716,-0.8269,-0.9262,-1.0367,-1.0514,-1.0301,-0.9849,-0.8941,-0.8601,-0.8186,-0.6403,-0.6089,-0.6212,-0.5813,-0.5586,-0.5538,-0.5691,-0.5583,-0.5435,-0.4996,-0.4975,-0.4969,-0.4928,-0.4824,-0.4599,-0.3916,-0.5273,-0.6874,-0.7818,-0.92,-1.0687,-1.2089,-1.2666,-1.2881,-1.2881,-1.2881,-1.2881,-1.2881,-1.2881,-1.2461,-1.1366,-1.0965,-1.0364,-0.9361,-0.8956,-0.8804,-0.8804,-0.8804,-0.8804,-0.8804,-0.8804,-0.8804,-0.8804,-0.8804,-0.8804,-0.8804,-0.8804,-0.8804,1.7031,0.0,2.2115,2.4293,2.49,0.0,2.5145,0.0,0.0,0.0,0.0,0.0,0.0,0.0,0.0,0.0,0.0,0.0,0.0,0.0,0.0,0.0,0.0,0.0,0.0,0.0,0.0,0.0,0.0,0.0,1.0022,0.9234,0.8339,0.7239,0.7403,0.7359,0.7111,0.652,0.6164,0.6048,0.525,0.4867,0.484,0.4973,0.5079,0.5142,0.1845,-0.049,-0.2193,-0.3853,-0.4652,-0.4937,-0.5644,-0.6488,-0.7434,-0.8404,-0.9364,-1.016,-1.0454,-1.011,-0.953,-0.9338,-0.8639,-0.7742,-0.688,-0.6472,-0.63,-0.622,-0.6087,-0.5951,-0.5984,-0.5908,-0.5612,-0.4893,-0.4769,-0.4806,-0.4677,-0.4772,-0.5076,-0.5572,-0.6891,-0.8231,-0.9238,-1.083,-1.2236,-1.2958,-1.2978,-1.2881,-1.2881,-1.2881,-1.2881,-1.2881,-1.2881,-1.2608,-1.1864,-1.1166,-1.0517,-0.9865,-0.9159,-0.8804,-0.8804,-0.8804,-0.8804,-0.8804,-0.8804,-0.8804,-0.8804,-0.8804,-0.8804,-0.8804,-0.8804,-0.8804,0.0,0.0,2.193,0.0,2.4689,2.5267,0.0,0.0,0.0,0.0,0.0,0.0,0.0,0.0,0.0,0.0,0.0,0.0,0.0,0.0,0.0,0.0,0.0,0.0,0.0,0.0,0.0,0.0,0.0,0.0,0.8974,0.7952,0.6981,0.6036,0.6964,0.7121,0.634,0.622,0.616,0.616,0.5188,0.4653,0.458,0.458,0.4677,0.4813,0.3075,0.0845,-0.1763,-0.3669,-0.4562,-0.4721,-0.4834,-0.5906,-0.7374,-0.7721,-0.8801,-1.016,-1.0454,-1.0491,-1.0301,-0.953,-0.9017,-0.8483,-0.7623,-0.7096,-0.6817,-0.6953,-0.6402,-0.5847,-0.5951,-0.5466,-0.4831,-0.4752,-0.4606,-0.4573,-0.4553,-0.4982,-0.5622,-0.6338,-0.8573,-1.0747,-1.2006,-1.2521,-1.2949,-1.36,-1.3238,-1.2881,-1.2881,-1.2881,-1.2881,-1.2881,-1.2881,-1.2608,-1.1864,-1.1166,-1.0517,-0.9865,-0.9159,-0.8804,-0.8804,-0.8804,-0.8804,-0.8804,-0.8804,-0.8804,-0.8804,-0.8804,-0.8804,-0.8804,-0.8804,-0.8804,1.5182,1.7969,2.0711,0.0,2.4339,2.4732,2.5349,0.0,0.0,0.0,0.0,0.0,0.0,0.0,0.0,0.0,0.0,0.0,0.0,0.0,0.0,0.0,0.0,0.0,0.0,0.0,0.0,0.0,0.0,1.0039,0.7629,0.6663,0.5836,0.5117,0.5583,0.5791,0.5787,0.5453,0.5228,0.5224,0.4819,0.4584,0.4519,0.4519,0.4541,0.4622,0.3978,0.173,-0.1646,-0.3659,-0.4525,-0.4618,-0.5005,-0.5888,-0.7012,-0.7703,-0.8673,-0.9666,-0.9967,-1.0174,-1.0219,-0.9688,-0.912,-0.8568,-0.8069,-0.7323,-0.6804,-0.7298,-0.7139,-0.6809,-0.6454,-0.6075,-0.5566,-0.4787,-0.4838,-0.5269,-0.5896,-0.6117,-0.6796,-0.9036,-1.0797,-1.2347,-1.3632,-1.3627,-1.3505,-1.3779,-1.3488,-1.3145,-1.291,-1.3086,-1.3145,-1.29,-1.2881,-1.2774,-1.2452,-1.1774,-1.1216,-1.0965,-0.9917,-0.9361,-0.9361,-0.9008,-0.8804,-0.8804,-0.8804,-0.8804,-0.8804,-0.9159,-0.9361,-0.9361,-0.9361,-0.9361,0.0,0.0,1.8736,2.2049,2.3296,2.3969,0.0,0.0,0.0,0.0,0.0,0.0,0.0,0.0,0.0,0.0,0.0,0.0,0.0,0.0,0.0,0.0,0.0,0.0,0.0,0.0,0.0,0.0,0.0,0.9137,0.6745,0.5928,0.5218,0.4515,0.4519,0.4732,0.5218,0.4732,0.4519,0.4519,0.4519,0.4519,0.4519,0.4519,0.4525,0.448,0.449,0.2339,-0.1274,-0.358,-0.4591,-0.4787,-0.5328,-0.6091,-0.6993,-0.7845,-0.8621,-0.923,-0.9579,-0.9826,-0.998,-0.984,-0.933,-0.8722,-0.8594,-0.7926,-0.7289,-0.783,-0.783,-0.7509,-0.6804,-0.648,-0.6041,-0.5003,-0.5109,-0.591,-0.7329,-0.7781,-0.8689,-1.1434,-1.2676,-1.3632,-1.4732,-1.4318,-1.3905,-1.4163,-1.38,-1.3477,-1.3232,-1.3535,-1.3584,-1.3096,-1.3037,-1.2998,-1.2891,-1.2236,-1.1814,-1.1814,-1.0712,-0.9961,-0.9814,-0.9309,-0.9061,-0.9061,-0.9061,-0.9061,-0.9061,-0.9718,-1.0064,-1.0064,-1.0064,-1.0064,0.0,1.3901,0.0,1.861,2.112,0.0,0.0,0.0,0.0,0.0,0.0,0.0,0.0,0.0,0.0,0.0,0.0,0.0,0.0,0.0,0.0,0.0,0.0,0.0,0.0,0.0,0.0,0.0,0.0,0.8153,0.6696,0.5928,0.5218,0.4515,0.4519,0.4515,0.457,0.4515,0.4519,0.4519,0.4519,0.4519,0.4519,0.4519,0.4525,0.448,0.449,0.2785,-0.0331,-0.3294,-0.4864,-0.5433,-0.5483,-0.6357,-0.7699,-0.8072,-0.8621,-0.923,-0.9579,-0.9693,-0.9746,-1.0007,-0.9655,-0.92,-0.9522,-0.9203,-0.8699,-0.8752,-0.8262,-0.7509,-0.6804,-0.6091,-0.5542,-0.5487,-0.5487,-0.6072,-0.8199,-1.0101,-1.1679,-1.2551,-1.3726,-1.4778,-1.5454,-1.4595,-1.4105,-1.5075,-1.4336,-1.3756,-1.398,-1.4326,-1.4292,-1.3555,-1.3477,-1.3311,-1.291,-1.2236,-1.1814,-1.1814,-1.1166,-1.0466,-0.9814,-0.9762,-0.9762,-0.9762,-0.9762,-0.9762,-0.9769,-1.0415,-1.0771,-1.0771,-1.0771,-1.0771,0.0,0.0,0.0,1.6681,1.8945,0.0,0.0,0.0,0.0,0.0,0.0,0.0,0.0,0.0,0.0,0.0,0.0,0.0,0.0,0.0,0.0,0.0,0.0,0.0,0.0,0.0,0.0,0.0,0.0,0.0,0.6691,0.5928,0.5218,0.4515,0.4519,0.4519,0.4519,0.4519,0.4519,0.4519,0.4519,0.4519,0.4519,0.4519,0.4525,0.4366,0.2449,0.0998,-0.0221,-0.3239,-0.4916,-0.5542,-0.6036,-0.6799,-0.7788,-0.8375,-0.8743,-0.8978,-0.9085,-0.9245,-0.9385,-0.9299,-0.9259,-0.917,-0.9145,-0.8978,-0.8804,-0.8804,-0.8593,-0.8103,-0.6912,-0.6745,-0.7004,-0.7463,-0.8495,-0.9724,-1.1048,-1.1889,-1.2859,-1.431,-1.4982,-1.5466,-1.6051,-1.5197,-1.443,-1.4512,-1.399,-1.3525,-1.335,-1.3652,-1.3682,-1.3164,-1.3105,-1.3047,-1.2891,-1.2666,-1.2501,-1.2501,-1.1832,-1.1316,-1.1116,-1.0661,-1.0415,-1.0415,-1.088,-1.088,-1.0415,-1.1116,-1.1466,-1.1466,-1.1466,-1.1466,1.0821,0.0,0.0,0.0,0.0,0.0,0.0,0.0,0.0,0.0,0.0,0.0,0.0,0.0,0.0,0.0,0.0,0.0,0.0,0.0,0.0,0.0,0.0,0.0,0.0,0.0,0.0,0.0,0.0,0.0,0.6691,0.6145,0.5441,0.4515,0.4519,0.4519,0.4519,0.4519,0.4519,0.4519,0.4519,0.4519,0.4519,0.4522,0.4473,0.4314,0.1333,-0.0,-0.0222,-0.3239,-0.5026,-0.5923,-0.6421,-0.7182,-0.8156,-0.8646,-0.8804,-0.8804,-0.8804,-0.8931,-0.9078,-0.8985,-0.9018,-0.9024,-0.8978,-0.8884,-0.8804,-0.8804,-0.8646,-0.8156,-0.6912,-0.7117,-0.7853,-0.8528,-1.0375,-1.215,-1.2956,-1.329,-1.3867,-1.5309,-1.5764,-1.6051,-1.6423,-1.5522,-1.456,-1.4143,-1.3748,-1.3457,-1.332,-1.3545,-1.3555,-1.3135,-1.3096,-1.3037,-1.2891,-1.3008,-1.3027,-1.2891,-1.2584,-1.2218,-1.1823,-1.1366,-1.1166,-1.1166,-1.1584,-1.1692,-1.1484,-1.1931,-1.2187,-1.2187,-1.2187,-1.2187,0.0,0.0,0.0,0.0,0.0,0.0,0.0,0.0,0.0,0.0,0.0,0.0,0.0,0.0,0.0,0.0,0.0,0.0,0.0,0.0,0.0,0.0,0.0,0.0,0.0,0.0,0.0,0.0,0.0,0.8103,0.6642,0.6534,0.5932,0.4519,0.4519,0.4519,0.4519,0.4519,0.4519,0.4519,0.4519,0.4519,0.4519,0.4473,0.4428,0.4209,0.128,-0.0056,-0.0388,-0.3342,-0.5348,-0.6588,-0.6642,-0.7509,-0.8804,-0.8804,-0.8804,-0.8804,-0.8804,-0.8804,-0.8851,-0.9084,-0.9038,-0.8858,-0.909,-0.9031,-0.8804,-0.8752,-0.8262,-0.7557,-0.6858,-0.7149,-0.7817,-0.8619,-1.0847,-1.3004,-1.3611,-1.425,-1.4926,-1.5499,-1.6095,-1.6479,-1.6466,-1.5466,-1.4571,-1.4143,-1.3738,-1.3633,-1.399,-1.4048,-1.3945,-1.3525,-1.3486,-1.332,-1.291,-1.3262,-1.3311,-1.291,-1.3262,-1.2979,-1.1882,-1.1814,-1.1814,-1.1814,-1.1814,-1.2187,-1.2881,-1.2881,-1.2881,-1.2881,-1.2881,-1.2881,0.9444,0.0,0.0,0.0,0.0,0.0,0.0,0.0,0.0,0.0,0.0,0.0,0.0,0.0,0.0,0.0,0.0,0.0,0.0,0.0,0.0,0.0,0.0,0.0,0.0,0.0,0.0,0.0,0.7235,0.6799,0.5869,0.5332,0.4897,0.4519,0.4519,0.4519,0.4519,0.4519,0.4522,0.4473,0.4473,0.448,0.4487,0.449,0.3299,0.1225,0.0389,-0.1221,-0.3398,-0.4904,-0.595,-0.6642,-0.7182,-0.7996,-0.8804,-0.8804,-0.8804,-0.8804,-0.8804,-0.8804,-0.8824,-0.8898,-0.8871,-0.8824,-0.8898,-0.8871,-0.8699,-0.8156,-0.783,-0.7771,-0.8059,-0.8258,-0.8971,-1.1148,-1.226,-1.3243,-1.4733,-1.5219,-1.5543,-1.6151,-1.638,-1.6337,-1.5712,-1.5119,-1.4387,-1.3382,-1.3115,-1.3096,-1.3213,-1.3232,-1.3184,-1.3066,-1.3057,-1.3008,-1.2891,-1.2988,-1.3008,-1.2891,-1.2988,-1.29,-1.2618,-1.2608,-1.2608,-1.2608,-1.2608,-1.2715,-1.2881,-1.2881,-1.2881,-1.2881,-1.2881,-1.2881,1.1073,0.0,0.0,0.0,0.0,0.0,0.0,1.5857,0.0,0.0,0.0,0.0,0.0,0.0,0.0,0.0,0.0,0.0,0.0,0.0,0.0,0.0,0.0,0.0,0.0,0.0,0.0,0.6642,0.6912,0.6745,0.5982,0.5007,0.4519,0.4525,0.4519,0.4522,0.4477,0.4473,0.4477,0.4487,0.3858,0.3236,0.2619,0.2623,0.167,-0.0056,-0.1332,-0.2894,-0.4591,-0.5736,-0.6327,-0.6696,-0.7396,-0.8156,-0.8804,-0.8804,-0.8804,-0.8804,-0.8804,-0.8804,-0.8804,-0.8804,-0.8804,-0.8804,-0.8804,-0.8593,-0.8262,-0.783,-0.745,-0.7444,-0.8423,-0.912,-1.0074,-1.226,-1.3385,-1.4275,-1.5342,-1.582,-1.6095,-1.6423,-1.6522,-1.6337,-1.5888,-1.5377,-1.4789,-1.4025,-1.3515,-1.3286,-1.3286,-1.3065,-1.2881,-1.2881,-1.2881,-1.2881,-1.2881,-1.3037,-1.3066,-1.2891,-1.3047,-1.3066,-1.2891,-1.2608,-1.2608,-1.2881,-1.2608,-1.2608,-1.2881,-1.2881,-1.2881,-1.2881,-1.2881,-1.2881,1.3457,1.3635,0.0,0.0,0.0,0.0,1.6679,1.6222,0.0,0.0,0.0,0.0,0.0,0.0,0.0,0.0,0.0,0.0,0.0,0.0,0.0,0.0,0.0,0.0,0.0,0.732,0.6534,0.6372,0.6966,0.7074,0.6426,0.5175,0.4525,0.448,0.4356,0.4304,0.4497,0.4314,0.4144,0.3981,0.2623,0.1167,-0.0277,-0.0444,-0.05,-0.0665,-0.3453,-0.4643,-0.4695,-0.6159,-0.6696,-0.6696,-0.7396,-0.8156,-0.8804,-0.8699,-0.8699,-0.8699,-0.8752,-0.8752,-0.8699,-0.8752,-0.8804,-0.8804,-0.8699,-0.8209,-0.767,-0.7616,-0.7182,-0.7058,-0.8515,-0.9913,-1.1294,-1.2734,-1.4413,-1.5632,-1.5676,-1.6139,-1.6522,-1.6522,-1.6522,-1.6466,-1.6423,-1.5952,-1.5499,-1.5164,-1.4422,-1.3862,-1.3815,-1.3324,-1.3017,-1.3017,-1.2929,-1.2881,-1.2881,-1.3223,-1.3281,-1.29,-1.3173,-1.3161,-1.2783,-1.208,-1.1981,-1.2666,-1.203,-1.2089,-1.2881,-1.2881,-1.2881,-1.2881,-1.2881,-1.2881,1.4852,1.5458,1.6066,1.4389,0.0,0.0,0.0,1.4502,0.0,0.0,0.0,0.0,0.0,0.0,0.0,0.0,0.0,0.0,0.0,0.0,0.0,0.0,0.0,0.0,0.0,0.6745,0.615,0.5007,0.5062,0.5066,0.4916,0.4639,0.448,0.4494,0.3297,0.3241,0.4497,0.3244,0.2062,0.089,0.0556,-0.0334,-0.1838,-0.3072,-0.3635,-0.3683,-0.5018,-0.5513,-0.5437,-0.6907,-0.7128,-0.6696,-0.7396,-0.8156,-0.8752,-0.8156,-0.7937,-0.7996,-0.8593,-0.8427,-0.799,-0.8586,-0.8804,-0.8699,-0.8103,-0.783,-0.7557,-0.6966,-0.7106,-0.7864,-0.9789,-1.132,-1.2821,-1.4642,-1.5342,-1.572,-1.6238,-1.6423,-1.6522,-1.6522,-1.6522,-1.6337,-1.5864,-1.5676,-1.5276,-1.4226,-1.4329,-1.4329,-1.3862,-1.3684,-1.3637,-1.3637,-1.319,-1.2881,-1.2881,-1.2959,-1.2969,-1.2881,-1.2419,-1.2104,-1.203,-1.1366,-1.1065,-1.1225,-1.1074,-1.1633,-1.2881,-1.2881,-1.2881,-1.2881,-1.2881,-1.2881,1.6365,1.6566,1.6792,1.5113,0.0,0.0,0.0,0.0,1.3242,0.0,0.0,0.0,0.0,0.0,0.0,0.0,0.0,0.0,0.0,0.0,0.0,0.0,0.0,0.0,0.0,0.6154,0.5296,0.4999,0.4677,0.4629,0.4956,0.4695,0.4141,0.3357,0.2623,0.2233,0.224,0.1505,-0.0,-0.2235,-0.2233,-0.2623,-0.335,-0.4144,-0.448,-0.4525,-0.5344,-0.5605,-0.5592,-0.7069,-0.7509,-0.7182,-0.7563,-0.8156,-0.8699,-0.7996,-0.7943,-0.8321,-0.8699,-0.854,-0.8262,-0.8262,-0.8262,-0.8103,-0.7396,-0.7128,-0.7128,-0.7106,-0.7805,-0.9064,-1.1204,-1.2695,-1.4011,-1.5297,-1.582,-1.6151,-1.6423,-1.6522,-1.6522,-1.6522,-1.6522,-1.6423,-1.6095,-1.6051,-1.582,-1.5242,-1.488,-1.4606,-1.4283,-1.3742,-1.3324,-1.3324,-1.3055,-1.2881,-1.2881,-1.2881,-1.2881,-1.2881,-1.2187,-1.1814,-1.1814,-1.0864,-1.0466,-1.0813,-1.1116,-1.1832,-1.2881,-1.255,-1.2559,-1.2881,-1.2881,-1.2881,0.0,0.0,0.0,0.0,0.0,1.3186,0.0,0.0,0.0,1.3517,0.0,0.0,0.0,0.0,0.0,0.0,0.0,0.0,0.0,0.0,0.0,0.0,0.0,0.0,0.0,0.5526,0.4392,0.5156,0.4667,0.4628,0.5283,0.4787,0.3635,0.1842,0.1786,0.0949,-0.0841,-0.0893,-0.2066,-0.4507,-0.4497,-0.4543,-0.4691,-0.4691,-0.4743,-0.4952,-0.5655,-0.5919,-0.6032,-0.7337,-0.7937,-0.7889,-0.7777,-0.8156,-0.8699,-0.7996,-0.8103,-0.8593,-0.8752,-0.8593,-0.8321,-0.783,-0.7503,-0.7176,-0.675,-0.6583,-0.6784,-0.7753,-0.8954,-1.0506,-1.2609,-1.3954,-1.497,-1.562,-1.6151,-1.6522,-1.6522,-1.6522,-1.6522,-1.6522,-1.6522,-1.6522,-1.6522,-1.6522,-1.6479,-1.6324,-1.5611,-1.4971,-1.4744,-1.3836,-1.32,-1.3113,-1.2978,-1.2881,-1.2881,-1.2881,-1.2881,-1.2881,-1.2187,-1.1765,-1.1616,-1.0415,-1.0167,-1.0965,-1.1416,-1.203,-1.2881,-1.2187,-1.2187,-1.2881,-1.2764,-1.2774,0.0,0.0,0.0,0.0,1.0772,0.0,0.0,0.0,0.9219,0.798,0.0,0.0,0.0,0.0,0.0,0.0,0.0,0.0,0.0,0.0,0.0,0.0,0.0,0.0,0.0,0.0,0.3818,0.4146,0.3993,0.4094,0.4612,0.4535,0.3193,0.0336,0.0224,-0.112,-0.3943,-0.3999,-0.4157,-0.4484,-0.448,-0.4802,-0.5382,-0.5382,-0.5764,-0.6426,-0.7122,-0.745,-0.7503,-0.8315,-0.8699,-0.8593,-0.7937,-0.8156,-0.8699,-0.7996,-0.7777,-0.7937,-0.8586,-0.7937,-0.6966,-0.7509,-0.6794,-0.5869,-0.6421,-0.6622,-0.7009,-0.8903,-1.0414,-1.1905,-1.39,-1.4937,-1.562,-1.6238,-1.6466,-1.6522,-1.6522,-1.6522,-1.6522,-1.6522,-1.6522,-1.6522,-1.6522,-1.6522,-1.6337,-1.5776,-1.6051,-1.5932,-1.4835,-1.4571,-1.4283,-1.3732,-1.3238,-1.2881,-1.2881,-1.2881,-1.2881,-1.2881,-1.2187,-1.1516,-1.0965,-1.0218,-1.0415,-1.1665,-1.1166,-1.1584,-1.2881,-1.2187,-1.2187,-1.2881,-1.2236,-1.2295,0.0,0.0,0.0,0.0,0.0,0.0,0.5288,0.0,0.372,0.0,0.0,0.0,0.0,0.0,0.0,0.0,0.0,0.0,0.0,0.0,0.0,0.0,0.0,0.0,0.0,0.0,0.0,0.0,0.0,0.3036,0.4452,0.2823,0.131,0.0056,-0.167,-0.2732,-0.3137,-0.4591,-0.5317,-0.5305,-0.5179,-0.5445,-0.6145,-0.6145,-0.6312,-0.6642,-0.7396,-0.7723,-0.7777,-0.848,-0.8804,-0.8752,-0.848,-0.8533,-0.8699,-0.7996,-0.7996,-0.8321,-0.8209,-0.7777,-0.7128,-0.6573,-0.6032,-0.5647,-0.6401,-0.7191,-0.8227,-1.0272,-1.1816,-1.3219,-1.479,-1.5664,-1.6194,-1.6423,-1.6522,-1.6522,-1.6522,-1.6522,-1.6522,-1.6522,-1.6522,-1.638,-1.6051,-1.5964,-1.6008,-1.6095,-1.5744,-1.5377,-1.5231,-1.4926,-1.4468,-1.3862,-1.3552,-1.3286,-1.2929,-1.2881,-1.2881,-1.2881,-1.2206,-1.1484,-1.0813,-1.0517,-1.0813,-1.1765,-1.1516,-1.1882,-1.2881,-1.2187,-1.2365,-1.342,-1.3092,-1.315,-0.1793,0.0,0.0,0.0,0.0,0.0,0.0,0.0,0.0,0.0,0.0,0.0,0.0,0.0,0.0,0.0,0.0,0.0,0.0,0.0,0.0,0.0,0.0,0.0,0.0,0.0,0.0,0.0,0.0,0.0,0.3166,0.1167,-0.0581,-0.1752,-0.3871,-0.4563,-0.3613,-0.5399,-0.6237,-0.6064,-0.5882,-0.6199,-0.6912,-0.6912,-0.702,-0.7235,-0.7777,-0.7996,-0.8049,-0.8586,-0.8804,-0.8804,-0.8804,-0.8804,-0.8752,-0.8209,-0.8321,-0.8699,-0.8209,-0.7723,-0.7182,-0.5706,-0.5483,-0.5964,-0.6645,-0.8115,-0.9913,-1.1737,-1.3219,-1.4448,-1.5576,-1.6269,-1.671,-1.671,-1.671,-1.671,-1.671,-1.6595,-1.6522,-1.6522,-1.6522,-1.638,-1.5908,-1.5864,-1.5952,-1.6194,-1.5656,-1.5287,-1.5543,-1.5231,-1.4744,-1.4097,-1.3909,-1.3637,-1.32,-1.3027,-1.2881,-1.2881,-1.2206,-1.1692,-1.1384,-1.1366,-1.1648,-1.2355,-1.2492,-1.2851,-1.3382,-1.2851,-1.312,-1.405,-1.3711,-1.3711,0.0,0.0,0.0,-0.8766,0.0,0.0,0.0,0.0,-0.6422,0.0,0.0,0.0,0.0,0.0,0.0,0.0,0.0,0.0,0.0,0.0,0.0,0.0,0.0,0.0,0.0,0.0,0.0,0.0,0.0,0.0,0.0089,0.0048,-0.1975,-0.6268,-0.647,-0.6778,-0.7236,-0.729,-0.7112,-0.6588,-0.6588,-0.6966,-0.767,-0.767,-0.8049,-0.8752,-0.8752,-0.8752,-0.8752,-0.8804,-0.8804,-0.8804,-0.8804,-0.8804,-0.8804,-0.8752,-0.8758,-0.8804,-0.8752,-0.783,-0.6426,-0.5007,-0.5479,-0.6699,-0.7388,-0.9468,-1.1874,-1.324,-1.4539,-1.5676,-1.6293,-1.6866,-1.7271,-1.7271,-1.7271,-1.7271,-1.7271,-1.6879,-1.6522,-1.6522,-1.6522,-1.6466,-1.6466,-1.6466,-1.6281,-1.572,-1.6095,-1.6238,-1.5676,-1.5588,-1.532,-1.4744,-1.4143,-1.3779,-1.3768,-1.3238,-1.2881,-1.2881,-1.2187,-1.2129,-1.2774,-1.2754,-1.3072,-1.3721,-1.4329,-1.4606,-1.4652,-1.4606,-1.4652,-1.4652,-1.3396,-1.349,0.0,0.0,-1.473,-1.3339,0.0,0.0,0.0,0.0,0.0,0.0,0.0,0.0,0.0,0.0,0.0,0.0,0.0,0.0,0.0,0.0,0.0,0.0,0.0,0.0,0.0,0.0,0.0,0.0,0.0,0.0,0.0,-0.5443,-0.5515,-0.7412,-0.7828,-0.7616,-0.6879,-0.7365,-0.7521,-0.7343,-0.7343,-0.7723,-0.8427,-0.8427,-0.8586,-0.8804,-0.8804,-0.8804,-0.8804,-0.8804,-0.8804,-0.8804,-0.8804,-0.8804,-0.8804,-0.8804,-0.8804,-0.8646,-0.767,-0.6421,-0.5226,-0.5167,-0.6122,-0.7541,-0.9167,-1.0947,-1.2859,-1.4902,-1.5804,-1.6348,-1.7286,-1.7706,-1.7827,-1.7827,-1.7827,-1.7747,-1.7394,-1.7146,-1.6909,-1.6552,-1.6522,-1.638,-1.5952,-1.6238,-1.6423,-1.6238,-1.6051,-1.5952,-1.6194,-1.5864,-1.5365,-1.4744,-1.4143,-1.3647,-1.3238,-1.3017,-1.2881,-1.2881,-1.2666,-1.2842,-1.3457,-1.3484,-1.3758,-1.4376,-1.4606,-1.4698,-1.4698,-1.4698,-1.4698,-1.4709,-1.4272,-1.4492,-2.0701,-2.0076,0.0,-1.6642,-1.476,0.0,-1.2093,0.0,0.0,0.0,0.0,0.0,0.0,0.0,0.0,0.0,0.0,0.0,0.0,0.0,0.0,0.0,0.0,0.0,0.0,0.0,-0.0876,-0.0296,0.0,0.0,0.0,0.0,-0.7668,-0.8456,-0.8397,-0.8171,-0.7753,-0.7984,-0.8103,-0.8103,-0.8103,-0.8321,-0.8804,-0.8804,-0.8646,-0.8427,-0.8699,-0.8646,-0.8427,-0.8699,-0.8804,-0.8804,-0.8804,-0.8804,-0.8804,-0.8804,-0.8646,-0.8209,-0.702,-0.5987,-0.5332,-0.5751,-0.7164,-0.8968,-1.0573,-1.2455,-1.4415,-1.5966,-1.6676,-1.7177,-1.7894,-1.8263,-1.838,-1.838,-1.8263,-1.8027,-1.7666,-1.7271,-1.6909,-1.6552,-1.6522,-1.638,-1.6008,-1.6238,-1.6423,-1.6194,-1.6051,-1.6051,-1.6466,-1.5952,-1.5454,-1.505,-1.4283,-1.3552,-1.2978,-1.2881,-1.2881,-1.2881,-1.3104,-1.3372,-1.3768,-1.4226,-1.4641,-1.5017,-1.5242,-1.5344,-1.5344,-1.5107,-1.5017,-1.5017,-1.4789,-1.4926]},{"header":{"parameterUnit":"m.s-1","parameterCategory":1,"la1":30.6,"la2":29.2853,"lo1":-89.7004,"lo2":-87.6739,"dy":0.0162,"dx":0.0183,"nx":112,"ny":82,"refTime":"2024-07-24T12:00:00:Z","depth":0,"parameterNumber":3,"parameterNumberName":"V-component_of_WINDS"},"data":[0.0,0.0,0.0,0.0,0.0,0.0,0.0,0.0,0.0,0.0,0.0,0.0,0.0,0.0,0.0,0.0,0.0,0.0,0.0,0.0,0.0,0.0,0.0,0.0,0.0,0.0,0.0,0.0,0.0,0.0,0.0,0.0,0.0,0.0,0.0,0.0,0.0,0.0,0.0,0.0,0.0,0.0,0.0,0.0,0.0,0.0,0.0,0.0,0.0,0.0,0.0,0.0,0.0,0.0,0.0,0.0,0.0,0.0,0.0,0.0,0.0,0.0,0.0,0.0,0.0,0.0,0.0,0.0,0.0,0.0,0.0,0.0,0.0,0.0,0.0,0.0,0.0,0.0,0.0,0.0,0.0,0.0,0.0,0.0,0.0,0.0,0.0,0.0,0.0,0.0,0.0,-0.5889,-0.9185,-1.1357,-1.1985,-1.1575,-1.0343,-0.8136,0.0,0.0,0.0,0.0,0.0,0.0,0.0,0.0,0.0,0.0,0.0,0.0,0.0,0.0,0.0,0.0,0.0,0.0,0.0,0.0,0.0,0.0,0.0,0.0,0.0,0.0,0.0,0.0,0.0,0.0,0.0,0.0,0.0,0.0,0.0,0.0,0.0,0.0,0.0,0.0,0.0,0.0,0.0,0.0,0.0,0.0,0.0,0.0,0.0,0.0,0.0,0.0,0.0,0.0,0.0,0.0,0.0,0.0,0.0,0.0,0.0,0.0,0.0,0.0,0.0,0.0,0.0,0.0,0.0,0.0,0.0,0.0,0.0,0.0,0.0,0.0,0.0,0.0,0.0,0.0,0.0,0.0,0.0,0.0,0.0,0.0,0.0,0.0,0.0,0.0,0.0,0.0,0.0,0.0,0.0,0.0,0.0,0.0,0.0,0.0,0.0,0.0,0.0,0.0,-0.3258,-0.7313,-0.961,-1.1002,-1.1311,-1.1486,-1.051,-0.815,0.0,0.0,0.0,0.0,0.0,0.0,0.0,0.0,0.0,0.0,0.0,0.0,0.0,0.0,0.0,0.0,0.0,0.0,0.0,0.0,0.0,0.0,0.0,0.0,0.0,0.0,0.0,0.0,0.0,0.0,0.0,0.0,0.0,0.0,0.0,0.0,0.0,0.0,0.0,0.0,0.0,0.0,0.0,0.0,0.0,0.0,0.0,0.0,0.0,0.0,0.0,0.0,0.0,0.0,0.0,0.0,0.0,0.0,0.0,0.0,0.0,0.0,0.0,0.0,0.0,0.0,0.0,0.0,0.0,0.0,0.0,0.0,0.0,0.0,0.0,0.0,0.0,0.0,0.0,0.0,0.0,0.0,0.0,0.0,0.0,0.0,0.0,0.0,0.0,0.0,0.0,0.0,0.0,0.0,0.0,0.0,0.0,0.0,0.0,0.0,0.0,0.0,0.0,-0.0867,-0.4169,-0.7239,-0.916,-1.0482,-1.1122,-1.1438,-1.0645,-0.8345,-0.7535,0.0,0.0,0.0,0.0,0.0,0.0,0.0,0.0,0.0,0.0,0.0,0.0,0.0,0.0,0.0,0.0,0.0,0.0,0.0,0.0,0.0,0.0,0.0,0.0,0.0,0.0,0.0,0.0,0.0,0.0,0.0,0.0,0.0,0.0,0.0,0.0,0.0,0.0,0.0,0.0,0.0,0.0,0.0,0.0,0.0,0.0,0.0,0.0,0.0,0.0,0.0,0.0,0.0,0.0,0.0,0.0,0.0,0.0,0.0,0.0,0.0,0.0,0.0,0.0,0.0,0.0,0.0,0.0,0.0,0.0,0.0,0.0,0.0,0.0,0.0,0.0,0.0,0.0,0.0,0.0,0.0,0.0,0.0,0.0,0.0,0.0,0.0,0.0,0.0,0.0,0.0,0.0,0.0,0.0,0.0,0.0,0.0,0.0,0.0,0.0,0.0,0.0,-0.218,-0.48,-0.624,-0.8174,-0.9616,-1.0295,-1.0649,-1.004,-0.8077,-0.7235,0.0,0.0,0.0,0.0,0.0,0.0,0.0,0.0,0.0,0.0,0.0,0.0,0.0,0.0,0.0,0.0,0.0,0.0,0.0,0.0,0.0,0.0,0.0,0.0,0.0,0.0,0.0,0.0,0.0,0.0,0.0,0.0,0.0,0.0,0.0,0.0,0.0,0.0,0.0,0.0,0.0,0.0,0.0,0.0,0.0,0.0,0.0,0.0,0.0,0.0,0.0,0.0,0.0,0.0,0.0,0.0,0.0,0.0,0.0,0.0,0.0,0.0,0.0,0.0,0.0,0.0,0.0,0.0,0.0,0.0,0.0,0.0,0.0,0.0,0.0,0.0,0.0,0.0,0.0,0.0,0.0,0.0,0.0,0.0,0.0,0.0,0.0,0.0,0.0,0.0,0.0,0.0,0.0,0.0,0.0,0.0,0.0,0.0,0.0,0.0,0.0,0.0,-0.3301,-0.479,-0.4431,-0.6673,-0.8099,-0.7889,-0.831,-0.804,-0.6718,-0.5822,0.0,0.0,0.0,0.0,0.0,0.0,0.0,0.0,0.0,0.0,0.0,0.0,0.0,0.0,0.0,0.0,0.0,0.0,0.0,0.0,0.0,0.0,0.0,0.0,0.0,0.0,0.0,0.0,0.0,0.0,0.0,0.0,0.0,0.0,0.0,0.0,0.0,0.0,0.0,0.0,0.0,0.0,0.0,0.0,0.0,0.0,0.0,0.0,0.0,0.0,0.0,0.0,0.0,0.0,0.0,0.0,0.0,0.0,0.0,0.0,0.0,0.0,0.0,0.0,0.0,0.0,0.0,0.0,0.0,0.0,0.0,0.0,0.0,0.0,0.0,0.0,0.0,0.0,0.0,0.0,0.0,0.0,0.0,0.0,0.0,0.0,0.0,0.0,0.0,0.0,0.0,0.0,0.0,0.0,0.0,0.0,0.0,0.0,0.0,0.0,0.0,0.0,-0.3417,-0.4323,0.0,-0.6049,-0.6866,-0.6948,-0.7686,-0.7526,-0.6021,0.0,0.0,0.0,0.0,0.0,0.0,0.0,0.0,0.0,0.0,0.0,0.0,0.0,0.0,0.0,0.0,0.0,0.0,0.0,0.0,0.0,0.0,0.0,0.0,0.0,0.0,0.0,0.0,0.0,0.0,0.0,0.0,0.0,0.0,0.0,0.0,0.0,0.0,0.0,0.0,0.0,0.0,0.0,0.0,0.0,0.0,0.0,0.0,0.0,0.0,0.0,0.0,0.0,0.0,0.0,0.0,0.0,0.0,0.0,0.0,0.0,0.0,0.0,0.0,0.0,0.0,0.0,0.0,0.0,0.0,0.0,0.0,0.0,0.0,0.0,0.0,0.0,0.0,0.0,0.0,0.0,0.0,0.0,0.0,0.0,0.0,0.0,0.0,0.0,0.0,0.0,0.0,0.0,0.0,0.0,0.0,0.0,0.0,0.0,0.0,0.0,0.0,-0.3265,-0.3505,-0.4053,0.0,-0.5423,-0.5687,-0.5976,-0.6495,-0.635,-0.5284,0.0,0.0,0.0,0.0,0.0,0.0,0.0,0.0,0.0,0.0,0.0,0.0,0.0,0.0,0.0,0.0,0.0,0.0,0.0,0.0,0.0,0.0,0.0,0.0,0.0,0.0,0.0,0.0,0.0,0.0,0.0,0.0,0.0,0.0,0.0,0.0,0.0,0.0,0.0,0.0,0.0,0.0,0.0,0.0,0.0,0.0,0.0,0.0,0.0,0.0,0.0,0.0,0.0,0.0,0.0,0.0,0.0,0.0,0.0,0.0,0.0,0.0,0.0,0.0,0.0,0.0,0.0,0.0,0.0,0.0,0.0,0.0,0.0,0.0,0.0,0.0,0.0,0.0,0.0,0.0,0.0,0.0,0.0,0.0,0.0,0.0,0.0,0.0,0.0,0.0,0.0,0.0,0.0,0.0,0.0,0.0,0.0,0.0,0.0,0.0,0.0,0.0,-0.3832,-0.3841,-0.4117,-0.4923,-0.4651,-0.4511,-0.4701,-0.4389,-0.4279,0.0,0.0,0.0,0.0,0.0,0.0,0.0,0.0,0.0,0.0,0.0,0.0,0.0,0.0,0.0,0.0,0.0,0.0,0.0,0.0,0.0,0.0,0.0,0.0,0.0,0.0,0.0,0.0,0.0,0.0,0.0,0.0,0.0,0.0,0.0,0.0,0.0,0.0,0.0,0.0,0.0,0.0,0.0,0.0,0.0,0.0,0.0,0.0,0.0,0.0,0.0,0.0,0.0,0.0,0.0,0.0,0.0,0.0,0.0,0.0,0.0,0.0,0.0,0.0,0.0,0.0,0.0,0.0,0.0,0.0,0.0,0.0,0.0,0.0,0.0,0.0,0.0,0.0,0.0,0.0,0.0,0.0,0.0,0.0,0.0,0.0,0.0,0.0,0.0,0.0,0.0,0.0,0.0,0.0,0.0,0.0,0.0,0.0,0.0,0.0,0.0,0.0,0.0,-0.471,-0.5172,-0.5508,-0.5761,-0.5663,-0.548,-0.513,-0.5037,-0.4815,-0.4415,0.0,0.0,0.0,0.0,0.0,0.0,0.0,0.0,0.0,0.0,0.0,0.0,0.0,0.0,0.0,0.0,0.0,0.0,0.0,0.0,0.0,0.0,0.0,0.0,0.0,0.0,0.0,0.0,0.0,0.0,0.0,0.0,0.0,0.0,0.0,0.0,0.0,0.0,0.0,0.0,0.0,0.0,0.0,0.0,0.0,0.0,0.0,0.0,0.0,0.0,0.0,0.0,0.0,0.0,0.0,0.0,0.0,0.0,0.0,0.0,0.0,0.0,0.0,0.0,0.0,0.0,0.0,0.0,0.0,0.0,0.0,0.0,0.0,0.0,0.0,0.0,0.0,0.0,0.0,0.0,0.0,0.0,0.0,0.0,0.0,0.0,0.0,0.0,0.0,0.0,0.0,0.0,0.0,0.0,0.0,0.0,0.0,0.0,0.0,0.0,0.0,0.0,-0.5876,-0.6494,-0.6996,-0.7323,-0.7175,-0.688,-0.6569,-0.631,-0.5853,-0.5244,0.0,0.0,0.0,0.0,0.0,0.0,0.0,0.0,0.0,0.0,0.0,0.0,0.0,0.0,0.0,0.0,0.0,0.0,0.0,0.0,0.0,0.0,0.0,0.0,0.0,0.0,0.0,0.0,0.0,0.0,0.0,0.0,0.0,0.0,0.0,0.0,0.0,0.0,0.0,0.0,0.0,0.0,0.0,0.0,0.0,0.0,0.0,0.0,0.0,0.0,0.0,0.0,0.0,0.0,0.0,0.0,0.0,0.0,0.0,0.0,0.0,0.0,0.0,0.0,0.0,0.0,0.0,0.0,0.0,0.0,0.0,0.0,0.0,0.0,0.0,0.0,0.0,0.0,0.0,0.0,0.0,0.0,0.0,0.0,0.0,0.0,0.0,0.0,0.0,0.0,0.0,0.0,0.0,0.0,0.0,0.0,0.0,0.0,0.0,0.0,0.0,0.0,-0.7224,-0.7886,-0.8583,-0.942,-0.9014,-0.8707,-0.8699,-0.811,-0.7422,-0.6725,0.0,0.0,0.0,0.0,0.0,0.0,0.0,0.0,0.0,0.0,0.0,0.0,0.0,0.0,0.0,0.0,0.0,0.0,0.0,0.0,0.0,0.0,0.0,0.0,0.0,0.0,0.0,0.0,0.0,0.0,0.0,0.0,0.0,0.0,0.0,0.0,0.0,0.0,0.0,0.0,0.0,0.0,0.0,0.0,0.0,0.0,0.0,0.0,0.0,0.0,0.0,0.0,0.0,0.0,0.0,0.0,0.0,0.0,0.0,0.0,-0.0861,0.0,0.0,0.0,0.0,0.0,0.0,0.0,0.0,0.0,0.0,0.0,0.0,0.0,0.0,0.0,0.0,0.0,0.0,0.0,0.0,0.0,0.0,0.0,0.0,0.0,0.0,0.0,0.0,0.0,0.0,0.0,0.0,0.0,0.0,0.0,0.0,0.0,0.0,0.0,0.0,0.0,-0.8101,-0.951,-1.061,-1.106,-1.1009,-1.0856,-1.0771,-1.0446,-0.983,-0.8894,-0.786,0.0,0.0,0.0,0.0,0.0,0.0,0.0,0.0,0.0,0.0,0.0,0.0,0.0,0.0,0.0,0.0,0.0,0.0,0.0,0.0,0.0,0.0,0.0,0.0,0.0,0.0,0.0,0.0,0.0,0.0,0.0,0.0,0.0,0.0,0.0,0.0,0.0,0.0,0.0,0.0,0.0,0.0,0.0,0.0,0.0,0.0,0.0,0.0,0.0,0.0,0.0,0.0,0.0,0.0,0.0,0.0,0.0,0.0,0.0,0.0,-0.2905,0.0,0.0,0.0,0.0,0.0,0.0,0.0,0.0,0.0,0.0,0.0,0.0,0.0,0.0,0.0,0.0,0.0,0.0,0.0,0.0,0.0,0.0,0.0,0.0,0.0,0.0,0.0,0.0,0.0,0.0,0.0,0.0,0.0,0.0,0.0,0.0,0.0,0.0,0.0,0.0,-0.8983,-1.0805,-1.2176,-1.2653,-1.2895,-1.3049,-1.3134,-1.2609,-1.1848,-1.0767,-0.9854,0.0,0.0,0.0,0.0,0.0,0.0,0.0,0.0,0.0,0.0,0.0,0.0,0.0,0.0,0.0,0.0,0.0,0.0,0.0,0.0,0.0,0.0,0.0,0.0,0.0,0.0,0.0,0.0,0.0,0.0,0.0,0.0,0.0,0.0,0.0,0.0,0.0,0.0,0.0,0.0,0.0,0.0,0.0,0.0,0.0,0.0,0.0,0.0,0.0,0.0,0.0,0.0,0.0,0.0,-0.3395,-0.4469,-0.4168,-0.4654,-0.5696,-0.4568,-0.481,-0.5902,0.0,0.0,0.0,0.0,0.0,0.0,0.0,0.0,0.0,0.0,0.0,0.0,0.0,0.0,0.0,0.0,0.0,0.0,0.0,0.0,0.0,0.0,0.0,0.0,0.0,-0.5595,-0.5589,0.0,0.0,0.0,0.0,0.0,0.0,0.0,0.0,0.0,0.0,0.0,0.0,-0.9968,-1.1911,-1.3395,-1.403,-1.4406,-1.4769,-1.5122,-1.4469,-1.3615,-1.2557,-1.1765,-1.0764,0.0,0.0,0.0,0.0,0.0,0.0,0.0,0.0,0.0,0.0,0.0,0.0,0.0,0.0,0.0,0.0,0.0,0.0,0.0,0.0,0.0,0.0,0.0,0.0,0.0,0.0,0.0,0.0,0.0,0.0,0.0,0.0,0.4275,0.4279,0.0,0.0,0.0,0.0,0.0,0.0,0.0,0.0,0.0,0.0,0.0,0.0,0.0,0.0,-0.1949,-0.3351,-0.4038,-0.4003,-0.4157,-0.4338,-0.4513,-0.4456,-0.516,-0.6463,-0.6288,0.0,-0.6476,-0.6019,0.0,0.0,0.0,0.0,0.0,0.0,0.0,0.0,0.0,0.0,0.0,0.0,0.0,0.0,0.0,0.0,0.0,0.0,0.0,0.0,0.0,0.0,-0.6685,-0.7626,-0.7421,-0.7077,0.0,-0.6666,-0.6134,-0.6152,0.0,0.0,0.0,0.0,0.0,0.0,0.0,0.0,-1.1345,-1.2842,-1.4087,-1.4876,-1.4982,-1.5195,-1.5668,-1.5593,-1.5222,-1.4489,-1.3325,-1.2298,-1.1548,-1.0361,0.0,0.0,0.0,0.0,0.0,0.0,0.0,0.0,0.0,0.0,0.0,0.0,0.0,0.0,0.0,0.0,0.0,0.0,0.0,0.0,0.0,0.0,0.0,0.0,0.0,0.0,0.0,0.0,0.0,0.4309,0.4217,0.3833,0.345,0.3029,0.0,0.0,0.0,0.0,0.0,0.0,0.0,0.0,0.0,-0.2746,-0.3197,-0.3378,-0.3303,-0.4068,-0.4499,-0.4495,-0.4518,-0.4522,-0.4519,-0.4893,-0.5601,-0.6642,-0.702,-0.7477,-0.7777,-0.7113,-0.6625,-0.621,0.0,0.0,0.0,0.0,0.0,-0.668,-0.6396,0.0,0.0,0.0,0.0,0.0,0.0,0.0,0.0,0.0,0.0,0.0,0.0,0.0,0.0,-0.8961,-0.9136,-0.9335,-0.9979,-1.0215,-0.9888,0.0,-0.9021,-0.9203,-0.754,0.0,0.0,0.0,0.0,0.0,-1.2406,-1.4069,-1.5131,-1.5102,-1.5359,-1.574,-1.6313,-1.6011,-1.5667,-1.537,-1.4405,-1.3548,-1.289,-1.1739,-1.0833,0.0,0.0,0.0,0.0,0.0,0.0,0.0,0.0,0.0,0.0,0.0,0.0,0.0,0.0,0.0,0.0,0.0,0.0,0.0,0.0,0.0,0.0,0.0,0.0,0.0,0.0,0.0,0.0,0.4529,0.4141,0.3844,0.3497,0.2889,0.0,0.0,0.0,0.0,0.0,0.0,-0.3351,-0.4172,-0.4668,-0.4734,-0.4927,-0.5,-0.4946,-0.4805,-0.4809,-0.4905,-0.4805,-0.4732,-0.4787,-0.5492,-0.6199,-0.6912,-0.745,-0.8103,-0.8718,-0.794,-0.7414,-0.7155,-0.663,-0.6152,-0.588,-0.6852,-0.7402,-0.7648,-0.7377,-0.7445,-0.7603,-0.6882,0.0,-0.718,-0.8159,0.0,0.0,0.0,0.0,-1.0596,-1.0312,0.0,-1.0491,-1.0598,-1.1175,-1.178,-1.2292,-1.3296,-1.3292,0.0,-1.0855,-1.1109,-0.9919,0.0,0.0,0.0,0.0,-1.3322,-1.4028,-1.5269,-1.5961,-1.5545,-1.5757,-1.6095,-1.6501,-1.6163,-1.5817,-1.5555,-1.494,-1.4288,-1.3621,-1.2796,-1.2256,-1.2072,0.0,0.0,0.0,0.0,0.0,0.0,0.0,0.0,0.0,0.0,0.0,0.0,0.0,0.0,0.0,0.0,0.0,0.0,0.0,0.0,0.0,0.0,0.0,0.0,0.0,0.0,0.0,0.0,0.0,0.5096,0.4053,0.0,0.0,0.0,0.0,-0.3232,-0.3588,-0.4648,-0.6732,-0.6477,-0.6299,-0.6273,-0.6438,-0.6663,-0.6941,-0.5958,-0.5631,-0.5918,-0.5627,-0.5433,-0.5487,-0.6199,-0.6966,-0.767,-0.767,-0.8103,-0.8784,-0.8477,-0.8343,-0.8247,-0.7406,-0.7348,-0.7726,-0.7555,-0.8247,-0.9335,-0.957,-0.9502,-0.9388,-0.9466,-0.8889,-0.8378,-0.9836,-1.0349,0.0,0.0,-1.3252,-1.3544,-1.3324,-1.3309,-1.3325,-1.3445,-1.39,-1.4337,-1.4516,-1.583,-1.6149,0.0,-1.3819,-1.4387,-1.3484,0.0,-1.4796,-1.4802,-1.4917,-1.544,-1.6742,-1.6434,-1.623,-1.656,-1.6405,-1.6163,-1.5885,-1.6108,-1.5872,-1.4908,-1.4692,-1.4288,-1.3621,-1.3435,-1.3007,-1.2298,-1.1289,0.0,0.0,0.0,0.0,0.0,0.0,0.0,0.0,0.0,0.0,0.0,0.0,0.0,0.0,0.0,0.0,0.0,0.0,0.0,0.0,0.0,0.0,0.0,0.0,0.0,0.0,0.0,0.0,0.5001,0.3081,0.0,0.0,-0.2246,-0.3744,-0.6621,-0.6836,-0.7218,-0.8065,-0.84,-0.8423,-0.8275,-0.781,-0.7767,-0.8126,-0.726,-0.6866,-0.6944,-0.6866,-0.6774,-0.6827,-0.7526,-0.8046,-0.8267,-0.8546,-0.8806,-0.9024,-0.8971,-0.8824,-0.8644,-0.8326,-0.8579,-0.9084,-0.9038,-0.9525,-1.0298,-1.0426,-1.042,-1.0316,-1.0394,-1.0458,-1.0714,-1.1658,-1.2768,-1.3959,-1.4965,-1.5872,-1.6475,-1.6001,-1.588,-1.5893,-1.5923,-1.6095,-1.6363,-1.6806,-1.7369,-1.7505,-1.6484,-1.6652,-1.6658,-1.564,-1.6041,-1.6361,-1.5929,-1.6516,-1.7159,-1.7467,-1.7633,-1.767,-1.7384,-1.6864,-1.6621,-1.6751,-1.6283,-1.5722,-1.5159,-1.4643,-1.4115,-1.3621,-1.3301,-1.3091,-1.3007,-1.204,-1.0975,0.0,0.0,0.0,0.0,0.0,0.0,0.0,0.0,0.0,0.0,0.0,0.0,0.0,0.0,0.0,0.0,0.0,0.0,0.0,0.0,0.0,0.0,0.0,0.0,0.0,0.0,0.4018,0.3729,0.1871,-0.0633,-0.376,-0.4208,-0.551,-0.8483,-0.8767,-0.9071,-0.9613,-1.0174,-1.044,-1.0258,-0.9459,-0.9219,-0.9558,-0.8445,-0.7936,-0.8012,-0.7936,-0.7898,-0.7898,-0.861,-0.8968,-0.8955,-0.9238,-0.9385,-0.9385,-0.9385,-0.9279,-0.9105,-0.9105,-0.9456,-0.9978,-0.9978,-1.0545,-1.1439,-1.1765,-1.1912,-1.1894,-1.1771,-1.2031,-1.2504,-1.3208,-1.4552,-1.596,-1.6735,-1.7786,-1.8521,-1.7932,-1.7759,-1.7719,-1.7558,-1.7639,-1.7773,-1.7814,-1.8263,-1.8535,-1.8185,-1.8106,-1.7921,-1.741,-1.7608,-1.7754,-1.747,-1.814,-1.8573,-1.8399,-1.8568,-1.8538,-1.8071,-1.7541,-1.7167,-1.7104,-1.6618,-1.5894,-1.4955,-1.4464,-1.393,-1.329,-1.2999,-1.2961,-1.3122,-1.2323,-1.153,-1.0757,0.0,0.0,0.0,0.0,0.0,0.0,0.0,0.0,0.0,0.0,0.0,0.0,0.0,0.0,0.0,0.0,0.0,0.0,0.0,0.0,0.0,0.0,0.0,0.178,0.1703,0.1468,0.1181,0.0365,-0.1676,-0.5589,-0.5967,-0.6761,-0.8639,-0.9227,-1.0115,-1.1534,-1.1948,-1.2159,-1.2167,-1.1374,-1.1073,-1.1338,-0.9577,-0.8819,-0.9064,-0.8813,-0.8634,-0.8693,-0.9408,-0.9771,-0.9764,-0.9758,-0.9751,-0.9758,-0.9758,-0.9751,-0.9751,-0.9744,-1.0003,-1.0384,-1.0376,-1.1338,-1.2788,-1.3826,-1.4184,-1.4116,-1.3714,-1.3576,-1.3741,-1.4551,-1.5484,-1.6574,-1.7786,-1.8855,-1.9566,-1.9043,-1.893,-1.8779,-1.8263,-1.8535,-1.865,-1.7585,-1.8612,-1.9406,-1.8341,-1.8145,-1.8302,-1.8817,-1.893,-1.9095,-1.9603,-1.969,0.0,-1.969,-1.9136,-1.8732,-1.8732,-1.8416,-1.7792,-1.6832,-1.7059,-1.6376,-1.4227,-1.4156,-1.3718,-1.2654,-1.2614,-1.2623,-1.2623,-1.2187,-1.1702,-1.1189,0.0,0.0,0.0,0.0,0.0,0.0,0.0,0.0,0.0,0.0,0.0,0.0,0.0,0.0,0.0,0.0,0.0,0.0,0.0,0.0,0.0,0.0,0.1794,0.1789,-0.0834,-0.2814,-0.2888,-0.313,-0.4255,-0.6733,-0.7372,-0.8488,-1.0553,-1.1585,-1.2464,-1.3352,-1.3518,-1.3442,-1.3173,-1.2946,-1.278,-1.255,-1.1479,-1.093,-1.1015,-1.0334,-1.006,-1.006,-1.0847,-1.1207,-1.1253,-1.1619,-1.1445,-1.0916,-1.1569,-1.1452,-1.0835,-1.066,-1.0959,-1.1581,-1.2744,-1.4076,-1.5383,-1.5687,-1.5782,-1.576,-1.564,-1.5596,-1.5737,-1.6312,-1.6707,-1.7165,-1.8347,-1.8893,-1.9169,-1.9406,-1.9479,-1.9442,-1.9281,-1.9369,-1.9406,-1.9095,-1.9406,-1.9603,-1.9332,-1.8968,-1.8855,-1.9406,-1.9479,-1.953,-1.969,-1.969,0.0,-1.969,-1.9525,-1.942,-1.942,-1.891,-1.8248,-1.7473,-1.7074,-1.6023,-1.4012,-1.3885,-1.3652,-1.3054,-1.3047,-1.3131,-1.3323,-1.3437,-1.3295,0.0,0.0,0.0,0.0,0.0,0.0,0.0,0.0,0.0,0.0,0.0,0.0,0.0,0.0,0.0,0.0,0.0,0.0,0.0,0.0,0.0,0.0,0.154,0.0501,-0.0662,-0.2975,-0.4525,-0.4497,-0.482,-0.5661,-0.7136,-0.8159,-0.9583,-1.151,-1.2712,-1.3672,-1.435,-1.457,-1.4383,-1.3861,-1.387,-1.3567,-1.3009,-1.2512,-1.2328,-1.2328,-1.1849,-1.1608,-1.16,-1.2089,-1.2328,0.0,-1.2606,-1.2449,-1.2022,-1.2576,-1.2457,0.0,0.0,0.0,0.0,0.0,-1.5668,-1.6678,-1.683,-1.6909,-1.6875,-1.6723,-1.6825,-1.7126,-1.7756,-1.8297,-1.8836,-1.9683,-2.0083,-2.0254,-2.0235,-2.0243,-2.0243,-2.0243,-2.0104,-1.9894,-1.9717,-1.966,-1.9639,-1.9406,0.0,0.0,-1.9639,-1.953,-1.9442,-1.969,-1.969,-1.969,-1.969,-1.969,-1.969,-1.969,-1.9346,-1.8852,-1.8194,-1.7488,0.0,0.0,0.0,-1.3991,-1.348,-1.3582,0.0,0.0,0.0,0.0,0.0,0.0,0.0,0.0,-1.5374,-1.5567,0.0,0.0,0.0,0.0,0.0,0.0,0.0,0.0,0.0,0.0,0.0,0.0,0.0,0.0,0.0,0.0,-0.0051,-0.1512,-0.415,-0.4567,-0.4615,-0.4494,-0.5329,-0.6225,-0.7012,-0.8571,-1.021,-1.1872,-1.3116,-1.4156,-1.4853,0.0,0.0,0.0,0.0,-1.3906,-1.3295,-1.3235,-1.3347,-1.3511,-1.3347,-1.333,-1.3485,-1.3399,-1.3399,-1.3511,-1.352,-1.3468,-1.3408,-1.3468,-1.3537,-1.3476,-1.3356,-1.3567,-1.4251,-1.567,-1.6653,0.0,0.0,0.0,0.0,-1.7635,-1.793,-1.8536,-1.9279,-2.0077,-2.0828,-2.1265,-2.1616,-2.1743,-2.1151,-2.0991,-2.0991,-2.0991,-2.0649,-2.0196,-1.9834,-1.9737,-1.9566,-1.9155,-1.9427,-1.9747,-1.9726,-1.9332,-1.9169,-1.9639,-1.969,-1.969,-1.969,-1.969,-1.969,-1.969,0.0,0.0,-1.8762,-1.8164,-1.7344,-1.6256,-1.5388,-1.4629,-1.3995,-1.4344,-1.4663,-1.4908,-1.5851,-1.6868,-1.7936,-1.8771,-1.9649,-2.0478,-1.8178,-1.7991,0.0,0.0,0.0,0.0,0.0,0.0,0.0,0.0,0.0,0.0,0.0,0.0,0.0,0.0,0.0,-0.0443,-0.1266,-0.2494,-0.4268,-0.5152,-0.5364,-0.4595,-0.5365,-0.6256,-0.7028,-0.8912,-1.0792,-1.2357,-1.3462,-1.4458,-1.5235,-1.4768,0.0,-1.4213,-1.4213,-1.4423,-1.4838,-1.4847,-1.5426,-1.6509,0.0,0.0,-1.6297,-1.5925,-1.6033,-1.6575,-1.6648,-1.6342,-1.58,-1.6465,-1.6701,-1.6588,-1.537,-1.5666,-1.6917,-1.7855,-1.8625,-1.9288,-1.9334,-1.9722,-2.0231,-2.0616,-2.1144,-2.173,-2.2286,-2.1849,0.0,-2.1818,-2.1284,-2.0628,-2.091,-2.0991,-2.0991,-2.0991,-2.0649,-2.0382,-2.0682,-2.0208,-1.9782,-2.0004,-2.0108,-2.0089,-1.9747,-1.9603,-1.9566,-1.969,-1.969,-1.969,-1.969,-1.969,-1.969,-1.969,-1.969,-1.942,-1.8762,-1.8583,-1.7966,-1.6662,-1.598,-1.5442,-1.5021,-1.5577,-1.6021,-1.6227,-1.73,-1.8351,-1.9332,-2.0399,-2.1474,-2.2513,-2.1321,-2.0998,0.0,0.0,0.0,0.0,0.0,0.0,0.0,0.0,0.0,0.0,0.0,0.3535,0.2449,0.0,0.0609,-0.2216,-0.3063,-0.3881,-0.5321,-0.5767,-0.5815,-0.5551,-0.6469,-0.7349,-0.7993,-0.9709,-1.1212,-1.2122,-1.3442,-1.4392,-1.4805,-1.4805,-1.4628,-1.4204,-1.4569,-1.4953,-1.5303,-1.6017,-1.7049,-1.8382,-1.7955,-1.8215,-1.9095,-1.8609,-1.8526,-1.8812,-1.8618,-1.8348,-1.7982,-1.8413,-1.8531,-1.8531,-1.8089,-1.804,-1.8178,-1.8555,-1.9399,-2.0295,-2.0295,-2.089,-2.1688,-2.1974,-2.2776,-2.3692,-2.4038,-2.3766,-2.332,-2.3309,-2.2588,-2.1775,-2.1667,-2.1661,-2.1661,-2.1661,-2.1275,-2.1007,-2.1244,-2.0632,-2.0124,-2.0565,-2.0449,-2.0261,-2.0035,-2.0,-1.9929,-1.9711,-1.969,-1.969,-1.969,-1.969,-1.969,-1.969,-1.969,-1.9555,-1.9226,-1.8897,-1.8283,-1.7264,-1.6937,-1.6773,-1.6856,-1.7495,-1.8095,-1.8635,-1.9615,-2.0455,-2.1204,-2.1863,-2.2724,-2.3732,-2.33,-2.3125,0.0,0.0,0.0,0.0,0.0,0.0,0.0,0.0,0.3854,0.3637,0.3844,0.3431,0.1516,0.2106,0.1358,-0.3375,-0.4587,-0.5204,-0.6062,-0.6319,-0.6473,-0.6654,-0.7662,-0.8573,-0.9114,-1.0395,-1.148,-1.2235,-1.3295,-1.4085,-1.4451,-1.504,-1.5157,-1.4678,-1.5332,-1.5924,-1.6368,-1.7611,-1.9004,-2.0479,-2.0826,-2.1387,-2.2091,-2.1356,-2.1088,-2.1134,-2.051,-2.0234,-2.0234,-2.0234,-2.0234,-2.0283,-2.0885,-2.0486,-1.9545,-1.9349,-2.008,-2.1148,-2.1148,-2.1862,-2.2878,-2.3038,-2.4024,-2.5163,-2.5481,-2.558,-2.5431,-2.4798,-2.4041,-2.3253,-2.2564,-2.2388,-2.2388,-2.2388,-2.2027,-2.1685,-2.1718,-2.1039,-2.0583,-2.1023,-2.0813,-2.055,-2.0449,-2.0449,-2.0261,-1.9782,-1.969,-1.969,-1.969,-1.969,-1.969,-1.969,-1.969,-1.969,-1.969,-1.9196,-1.8612,-1.7921,-1.7975,-1.8157,-1.8483,-1.9203,-1.9959,-2.0784,-2.1572,-2.2279,-2.2947,-2.316,-2.3742,-2.4645,-2.4645,-2.4654,0.5605,0.5431,0.5119,0.4885,0.4335,0.3902,0.0,0.0,0.408,0.433,0.4412,0.3944,0.2367,0.116,-0.0336,-0.2553,-0.4775,-0.6009,-0.5175,-0.675,-0.779,-0.7293,-0.822,-0.9125,-0.9673,-1.0289,-1.1556,-1.3777,-1.3425,-1.3786,-1.5177,-1.5284,-1.5621,-1.6197,-1.6728,-1.7978,-2.0069,-2.0629,-2.2042,-2.4362,-2.3762,-2.4279,-2.5658,-2.4163,-2.3798,-2.4233,-2.3275,-2.2848,-2.2848,-2.2848,-2.2848,-2.2892,-2.2965,-2.2907,-2.2659,-2.1708,-2.1782,-2.2326,-2.2326,-2.3053,-2.4147,-2.4976,-2.5719,-2.6471,-2.7322,-2.6882,-2.5945,-2.5242,-2.4259,-2.3294,-2.2789,-2.266,-2.266,-2.266,-2.2334,-2.2074,-2.2192,-2.1554,-2.1055,-2.146,-2.1491,-2.1337,-2.0991,-2.0926,-2.0632,-1.9818,-1.969,-1.969,-1.969,-1.969,-1.969,-1.969,-1.969,-1.969,-1.969,-1.9615,-1.9286,-1.8627,-1.8984,-1.9108,-1.8853,-1.9714,-2.0512,-2.1129,-2.1827,-2.2716,-2.3853,-2.4064,-2.4646,-2.5557,-2.5548,-2.5545,0.6942,0.6182,0.525,0.0,0.5119,0.4626,0.4372,0.455,0.4725,0.4525,0.4525,0.4311,0.3633,0.1616,-0.0451,0.0,-0.4222,-0.6041,-0.6472,-0.7176,-0.7952,-0.8592,-0.883,-0.9357,-1.0535,-1.107,-1.1896,-1.3364,-1.399,-1.4632,-1.5284,-1.6193,-1.6952,-1.7617,-1.8284,-1.9617,-2.1655,-2.2656,-2.4338,-2.6687,-2.6928,-2.7589,-2.8572,-2.7278,-2.6572,-2.6355,-2.5922,-2.5756,-2.5686,-2.526,-2.4922,-2.4735,-2.4735,-2.4611,-2.4275,-2.3097,-2.301,-2.3483,-2.3483,-2.4397,-2.5606,-2.5995,-2.6796,-2.763,-2.7833,-2.7386,-2.6694,-2.5952,-2.491,-2.3884,-2.3492,-2.3214,-2.2996,-2.2996,-2.2855,-2.2703,-2.2546,-2.2074,-2.1728,-2.1957,-2.1794,-2.1552,-2.1368,-2.1337,-2.1039,-2.0193,-1.9839,-1.969,-1.969,-1.969,-1.969,-1.969,-1.969,-1.969,-1.969,-1.969,-1.9697,-1.9623,-1.9811,-2.0162,-2.0742,-2.1436,-2.2189,-2.2995,-2.3587,-2.4219,-2.4862,-2.5009,-2.5284,-2.5701,-2.5699,-2.5703,0.7145,0.6378,0.0,0.574,0.5426,0.4937,0.441,0.4672,0.4969,0.4604,0.4525,0.4477,0.448,0.2734,0.0677,-0.1117,-0.3382,-0.5464,-0.6845,-0.7365,-0.7865,-0.8646,-0.8572,-0.9259,-1.1123,-1.1372,-1.2066,-1.3545,-1.4681,-1.5467,-1.5838,-1.7501,-1.8704,-1.9284,-2.0556,-2.1957,-2.3543,-2.4938,-2.6677,-2.8704,-2.9487,-3.0183,-3.0794,-2.9926,-2.913,-2.8495,-2.8421,-2.8271,-2.8014,-2.7339,-2.674,-2.6199,-2.6199,-2.5952,-2.5529,-2.4696,-2.4602,-2.4821,-2.4821,-2.573,-2.6897,-2.7095,-2.771,-2.8394,-2.8324,-2.798,-2.745,-2.671,-2.5632,-2.4615,-2.426,-2.376,-2.3351,-2.3424,-2.3374,-2.3259,-2.2968,-2.2643,-2.2415,-2.2409,-2.2124,-2.1861,-2.1823,-2.1688,-2.1399,-2.0765,-2.0193,-1.9854,-1.9711,-1.969,-1.969,-1.969,-1.969,-1.969,-1.969,-1.969,-1.9874,-2.028,-2.0518,-2.11,-2.2139,-2.2894,-2.363,-2.4398,-2.4921,-2.5291,-2.5524,-2.5582,-2.5628,-2.5703,-2.5703,-2.5703,0.0,0.0,0.5553,0.5345,0.4896,0.4525,0.4515,0.4512,0.4512,0.4515,0.4519,0.4522,0.4477,0.4421,0.3305,0.0061,-0.237,-0.4224,-0.5321,-0.7005,-0.7733,-0.6474,-0.7152,-0.8658,0.0,-1.0854,-1.1897,-1.5108,-1.5284,-1.5906,-1.7275,-1.9392,-2.0848,-2.1415,-2.3906,-2.5573,-2.6396,-2.7817,-2.9306,-3.0723,-3.1066,-3.1578,-3.2128,-3.1781,-3.1374,-3.0986,-3.0737,-3.0152,-2.9421,-2.9126,-2.8315,-2.7255,-2.7255,-2.7019,-2.6691,-2.7066,-2.6852,-2.6421,-2.6421,-2.7057,-2.7946,-2.8537,-2.8573,-2.8504,-2.9166,-2.8888,-2.8204,-2.747,-2.6394,-2.5372,-2.4972,-2.4266,-2.3738,-2.3929,-2.3826,-2.3656,-2.3509,-2.3325,-2.3069,-2.2746,-2.2669,-2.2582,-2.2304,-2.1899,-2.1582,-2.1552,-2.083,-2.0158,-1.9747,-1.969,-1.969,-1.969,-1.969,-1.969,-1.969,-1.969,-1.9874,-2.028,-2.1022,-2.1752,-2.2384,-2.3593,-2.4398,-2.4682,-2.5156,-2.5457,-2.5601,-2.5601,-2.5628,-2.5703,-2.5703,-2.5703,0.2567,0.0,0.1819,0.256,0.3268,0.3819,0.4353,0.4846,0.5058,0.457,0.4519,0.4519,0.4522,0.4473,0.3651,0.109,-0.122,-0.3303,-0.5166,-0.6768,-0.7808,-0.7917,-0.8708,0.0,0.0,0.0,0.0,-1.5167,-1.5793,-1.685,-1.8769,-2.0514,-2.227,-2.4038,-2.5415,-2.6831,-2.8292,-2.9535,-3.0829,-3.2211,-3.313,-3.3447,-3.3285,-3.3563,-3.331,-3.2627,-3.2354,-3.2059,-3.1727,-3.0367,-2.9422,-2.8752,-2.8253,-2.7805,-2.75,-2.7648,-2.7847,-2.7995,-2.7733,-2.8005,-2.8537,-2.8879,-2.9126,-2.9302,-2.9533,-2.9338,-2.8942,-2.8429,-2.7674,-2.6812,-2.5858,-2.5216,-2.4736,-2.4413,-2.4173,-2.3999,-2.3871,-2.3666,-2.3437,-2.3093,-2.3021,-2.2996,-2.2908,-2.2565,-2.2141,-2.1672,-2.0862,-2.0158,-1.9747,-1.969,-1.969,-1.969,-1.969,-1.969,-1.969,-1.9929,-2.0296,-2.0731,-2.1469,-2.2268,-2.3092,-2.3926,-2.4568,-2.4955,-2.534,-2.5543,-2.5601,-2.5643,-2.5683,-2.5703,-2.5703,-2.5703,-0.1912,-0.2751,-0.2982,-0.18,-0.1044,0.0055,0.2705,0.4265,0.5011,0.4577,0.4638,0.47,0.47,0.4774,0.4252,0.2615,0.024,-0.2588,-0.5894,-0.6903,-0.7731,-0.8838,-1.0221,-1.1662,0.0,0.0,0.0,-1.5642,-1.6637,-1.8058,-2.0141,-2.2128,-2.4058,-2.6067,-2.7013,-2.829,-2.9793,-3.0925,-3.2188,-3.3548,-3.4519,-3.4783,-3.4412,-3.4821,-3.4694,-3.4143,-3.3884,-3.3513,-3.305,-3.1733,-3.0558,-2.9547,-2.9034,-2.8505,-2.8031,-2.8183,-2.8512,-2.8854,-2.8536,-2.8718,-2.9145,-2.9364,-2.9549,-2.9713,-2.978,-2.9661,-2.9456,-2.9182,-2.854,-2.7656,-2.649,-2.5789,-2.5202,-2.434,-2.4173,-2.4153,-2.4044,-2.3945,-2.3774,-2.3437,-2.3392,-2.3346,-2.3212,-2.3021,-2.2626,-2.1903,-2.1303,-2.0701,-2.0,-1.9782,-1.969,-1.969,-1.969,-1.969,-1.969,-2.007,-2.0567,-2.1149,-2.1928,-2.2807,-2.3785,-2.4358,-2.4847,-2.5263,-2.5493,-2.5616,-2.5641,-2.5685,-2.5703,-2.5703,-2.5703,-2.5703,-0.784,-0.8755,-0.8507,-0.7494,-0.741,-0.6091,-0.0173,0.2904,0.4529,0.4577,0.4866,0.5147,0.5139,0.0,0.5089,0.4475,0.1687,-0.2168,-0.7251,-0.7624,-0.7775,0.0,0.0,0.0,0.0,0.0,0.0,-1.6701,0.0,-1.94,-2.1496,-2.4177,-2.6235,-2.753,-2.8794,-2.994,-3.0937,-3.2022,-3.3273,-3.4713,-3.5223,-3.5493,-3.5493,-3.5493,-3.5493,-3.5493,-3.5207,-3.447,-3.3449,-3.31,-3.171,-2.9755,-2.9691,-2.9104,-2.8352,-2.8704,-2.8981,-2.9133,-2.8953,-2.9243,-2.9765,-2.9954,-2.9893,-2.9782,-2.9954,-2.9877,-2.9713,-2.9713,-2.897,-2.7921,-2.687,-2.6029,-2.5193,-2.3943,-2.3937,-2.4189,-2.408,-2.4135,-2.4094,-2.3795,-2.3732,-2.3628,-2.3282,-2.323,-2.2979,-2.2245,-2.2107,-2.1661,-2.0501,-1.9965,-1.9711,-1.9711,-1.9711,-1.9726,-1.9726,-2.0124,-2.0701,-2.1497,-2.2427,-2.3404,-2.4376,-2.4859,-2.5263,-2.5582,-2.5592,-2.5641,-2.5703,-2.5703,-2.5703,-2.5703,-2.5703,-2.5703,-1.2958,-1.3713,-1.3047,-1.1809,-0.916,-0.5483,-0.0228,0.2757,0.4682,0.5575,0.5701,0.5555,0.5309,0.0,0.0,0.3009,0.0457,0.0,-0.7399,-0.9233,0.0,-1.0588,0.0,-1.5947,-1.6253,-1.6981,0.0,0.0,-1.9953,-2.0662,-2.2585,-2.4969,-2.7269,-2.9504,-2.9876,-3.0575,-3.1554,-3.2729,-3.3788,-3.4694,-3.5034,-3.5304,-3.5493,-3.5493,-3.5493,-3.546,-3.5018,-3.4641,-3.4278,-3.317,-3.2364,-3.1741,-3.0757,-3.0198,-2.9965,-2.9651,-2.9683,-2.9914,-2.9907,-2.992,-2.9954,-3.0266,-3.0292,-3.0228,-3.0286,-3.0122,-2.9924,-2.9924,-2.9509,-2.8852,-2.792,-2.7221,-2.6558,-2.5761,-2.5092,-2.4686,-2.4787,-2.4501,-2.417,-2.4094,-2.4074,-2.3976,-2.3649,-2.3566,-2.3414,-2.3003,-2.2434,-2.1811,-2.0943,-2.0431,-2.0158,-2.0158,-1.9874,-1.9818,-2.0124,-2.0782,-2.1477,-2.2139,-2.316,-2.3988,-2.4605,-2.4975,-2.5311,-2.5582,-2.5659,-2.5672,-2.5703,-2.5703,-2.5703,-2.5703,-2.5703,-2.5703,-1.5938,-1.7529,-1.7752,-1.5496,-1.0874,-0.5364,0.0281,0.3667,0.5752,0.6597,0.6481,0.0,0.5739,0.5485,0.0,0.0,0.0,0.0,-0.8421,-1.0174,-1.1675,0.0,-1.5855,0.0,-1.8678,-1.967,-2.0819,0.0,-2.1544,-2.214,-2.4474,-2.6377,-2.8294,-3.0234,-3.0293,-3.0897,-3.2109,-3.3284,-3.4139,-3.4694,-3.4963,-3.5239,-3.5493,-3.5493,-3.5493,-3.5493,0.0,-3.4981,-3.4813,-3.4022,-3.3392,-3.2892,-3.2133,-3.1485,-3.0904,-3.0602,-3.046,-3.039,-3.0452,-3.0381,-3.0293,-3.0479,-3.0506,-3.0448,-3.0448,-3.0318,-3.0182,-3.0182,-2.9927,-2.9418,-2.8334,-2.7835,-2.7328,-2.6263,-2.5787,-2.5474,-2.5099,-2.486,-2.4612,-2.4263,-2.419,-2.4151,-2.3937,-2.3917,-2.3816,-2.3459,-2.3076,-2.2617,-2.2035,-2.1179,-2.0616,-2.0616,-2.0398,-2.0416,-2.0782,-2.149,-2.2165,-2.2758,-2.376,-2.4478,-2.4907,-2.5218,-2.5451,-2.5638,-2.5689,-2.5703,-2.5703,-2.5703,-2.5703,-2.5703,-2.5703,-2.5703,-1.7843,-2.0401,-2.1975,-1.8775,-1.201,-0.4749,0.0548,0.4956,0.7875,0.7907,0.0,0.6747,0.6343,0.6218,0.535,0.278,0.0,-0.6129,-1.0248,-1.122,-1.2679,-1.5926,-1.8048,-1.9817,-2.1284,-2.2526,-2.3327,-2.3554,-2.308,-2.3864,-2.6437,-2.7951,-2.9271,-3.0393,-3.046,-3.1155,-3.2484,-3.3534,-3.4269,-3.4694,-3.4944,-3.5207,-3.5493,-3.546,-3.5479,-3.5493,0.0,0.0,-3.5053,-3.5053,-3.4433,-3.3486,-3.3355,-3.2578,-3.154,-3.1362,-3.1018,-3.0625,-3.0692,-3.0684,-3.0639,-3.0626,-3.0576,-3.0513,-3.0518,-3.0467,-3.0398,-3.0398,-3.0209,-2.973,-2.8572,-2.8241,-2.7877,-2.6417,-2.6418,-2.6481,-2.547,-2.5327,-2.5164,-2.4355,-2.419,-2.419,-2.419,-2.419,-2.4094,-2.3816,-2.3714,-2.3588,-2.3282,-2.2023,-2.1165,-2.1212,-2.1134,-2.121,-2.1641,-2.2207,-2.2799,-2.3436,-2.428,-2.4904,-2.5248,-2.5485,-2.5635,-2.5703,-2.5703,-2.5703,-2.5703,-2.5703,-2.5703,-2.5703,-2.5703,-2.5703,-2.0085,-2.2382,-2.3569,-2.1931,-1.0983,-0.0835,-0.1742,0.556,0.0,0.0,0.8728,0.7607,0.7307,0.6626,0.5348,0.2953,0.02,-0.4643,-1.3147,0.0,-1.4533,0.0,0.0,0.0,0.0,0.0,0.0,0.0,0.0,0.0,-2.6871,-2.8849,-3.0293,-3.1015,-3.1359,-3.1844,-3.2484,-3.3087,-3.381,-3.4694,-3.4734,-3.5035,-3.5493,-3.5273,-3.5289,-3.5479,0.0,0.0,-3.4754,-3.4754,-3.4499,-3.396,-3.3091,-3.2594,-3.2248,-3.1211,-3.0756,-3.0689,-3.0818,-3.0868,-3.0837,-3.0713,-3.0642,-3.0591,-3.0584,-3.0544,-3.0487,-3.0487,-3.0247,-2.9946,-2.9711,-2.9284,-2.8851,-2.8561,-2.8064,-2.7563,-2.72,-2.6224,-2.5164,-2.4355,-2.419,-2.419,-2.419,-2.419,-2.417,-2.4113,-2.3876,-2.3671,-2.361,-2.2617,-2.2023,-2.2285,-2.1773,-2.1752,-2.2586,-2.3017,-2.358,-2.4407,-2.4873,-2.5232,-2.5529,-2.5581,-2.5635,-2.5703,-2.5703,-2.5703,-2.5703,-2.5703,-2.5703,-2.5703,-2.5703,-2.5703,-1.8141,-2.2332,-2.5825,-2.4486,-1.3039,-0.1881,-0.1134,0.0,0.0,0.0,0.9064,0.7995,0.7673,0.702,0.0,0.3204,0.0094,-0.432,-1.105,-1.3411,0.0,0.0,0.0,0.0,0.0,0.0,0.0,0.0,0.0,0.0,-2.8681,-2.9992,-3.0878,-3.119,-3.1603,-3.2039,-3.2484,-3.2983,-3.3705,-3.4694,-3.4694,-3.4981,-3.5493,-3.5369,-3.5383,-3.5493,-3.5223,0.0,-3.5122,-3.516,-3.5072,-3.485,-3.3939,-3.3337,-3.284,-3.1769,-3.113,-3.0812,-3.089,-3.0891,-3.0897,-3.0819,-3.0736,-3.0648,-3.0653,-3.0583,-3.0491,-3.0491,-3.0369,-3.0182,-3.0047,-2.9785,-2.9545,-2.9439,-2.869,-2.7847,-2.7358,-2.6276,-2.5203,-2.4487,-2.4357,-2.4393,-2.4495,-2.4428,-2.4357,-2.4357,-2.4134,-2.3998,-2.4098,-2.3549,-2.3126,-2.307,-2.279,-2.2885,-2.3617,-2.3967,-2.4358,-2.487,-2.5201,-2.5401,-2.5549,-2.5574,-2.5623,-2.5703,-2.5703,-2.5703,-2.5703,-2.5703,-2.5703,-2.5703,-2.5703,-2.5703,-1.5327,-2.1362,-2.6999,-2.5842,-1.5047,-0.393,-0.1001,0.6808,0.0,0.0,0.9417,0.8484,0.8021,0.7449,0.6302,0.0,0.0402,-0.3814,-0.8557,-1.2344,-1.6187,0.0,-2.1709,0.0,0.0,0.0,0.0,0.0,0.0,0.0,-3.0477,-3.0918,-3.119,-3.119,-3.1507,-3.1933,-3.2484,-3.289,-3.3625,-3.4694,-3.4694,-3.4981,-3.5493,-3.5446,-3.5446,-3.5493,-3.5451,0.0,0.0,-3.5575,-3.5483,-3.5172,-3.448,-3.3708,-3.2866,-3.2029,-3.1343,-3.0859,-3.0859,-3.0879,-3.0898,-3.0898,-3.082,-3.0742,-3.0742,-3.0654,-3.0535,-3.0527,-3.0467,-3.0374,-3.0136,-3.0089,-3.0047,-2.988,-2.9168,-2.824,-2.7264,-2.634,-2.5485,-2.4647,-2.4495,-2.4561,-2.4716,-2.4607,-2.4495,-2.4495,-2.4357,-2.4321,-2.4501,-2.4354,-2.4164,-2.3876,-2.3795,-2.3978,-2.4498,-2.4729,-2.4946,-2.5158,-2.537,-2.5504,-2.5517,-2.5565,-2.5625,-2.5703,-2.5703,-2.5703,-2.5703,-2.5703,-2.5703,-2.5703,-2.5703,-2.5703,-1.3794,-1.9838,-2.5415,-2.4927,-1.4678,-0.4581,-0.4124,0.0,1.4304,1.2162,1.0612,0.9456,0.8833,0.8007,0.716,0.6311,0.0,-0.1978,-0.9002,-1.2232,-1.6071,-2.1803,0.0,0.0,0.0,0.0,0.0,0.0,0.0,0.0,0.0,-3.119,-3.119,-3.119,-3.123,-3.1657,-3.2484,-3.255,-3.3291,-3.4694,-3.4694,-3.4981,-3.5493,-3.5258,-3.5273,-3.5493,0.0,0.0,0.0,-3.5561,-3.5057,-3.4008,-3.3506,-3.2741,-3.1849,-3.1031,-3.0723,-3.0723,-3.0723,-3.0801,-3.0898,-3.0898,-3.0898,-3.0879,-3.0879,-3.0781,-3.0665,-3.0617,-3.0544,-3.0475,-3.0386,-3.0367,-3.0355,-3.0343,-3.0079,-2.9402,-2.787,-2.7135,-2.632,-2.4793,-2.4495,-2.4512,-2.4528,-2.4512,-2.4495,-2.4495,-2.4478,-2.4502,-2.4579,-2.4688,-2.4793,-2.4946,-2.4585,-2.4532,-2.4997,-2.505,-2.5168,-2.5351,-2.5443,-2.5522,-2.5586,-2.5606,-2.5625,-2.5703,-2.5703,-2.5703,-2.5703,-2.5703,-2.5703,-2.5703,-2.5703,-2.5703,-0.965,-1.7396,-2.4631,-2.2863,-1.2574,-0.2938,-0.3086,0.0,1.4813,1.1908,1.0352,0.9351,0.8887,0.7528,0.6153,0.5096,0.1818,-0.2322,-0.7359,-1.1305,-1.5576,-2.0638,0.0,0.0,0.0,0.0,0.0,0.0,0.0,0.0,0.0,-3.1841,-3.1449,-3.119,-3.1449,-3.1878,-3.2484,-3.2955,-3.3684,-3.4694,-3.4851,-3.5138,-3.5493,-3.5422,-3.5456,-3.5551,0.0,0.0,0.0,-3.513,-3.4681,-3.4148,-3.2907,-3.2195,-3.1753,-3.0914,-3.0613,-3.0639,-3.0694,-3.0723,-3.0781,-3.0879,-3.0898,-3.0898,-3.0898,-3.0801,-3.0694,-3.0666,-3.0583,-3.0487,-3.0467,-3.0417,-3.0398,-3.0398,-2.9832,-2.8965,-2.7847,-2.6957,-2.6054,-2.5003,-2.4804,-2.4831,-2.4975,-2.4891,-2.4804,-2.4804,-2.4741,-2.4742,-2.4873,-2.4946,-2.5038,-2.5152,-2.4992,-2.4987,-2.5253,-2.533,-2.5362,-2.5407,-2.5432,-2.5466,-2.5543,-2.5546,-2.559,-2.5703,-2.5703,-2.5703,-2.5703,-2.5703,-2.5703,-2.5703,-2.5703,-2.5703,-0.4557,-1.2395,-1.9794,-1.7684,-0.8828,-0.0627,0.0,0.7615,1.4406,1.1497,1.0309,0.9572,0.8915,0.7444,0.5669,0.3576,0.0776,-0.2587,-0.6748,-1.104,-1.513,0.0,0.0,0.0,0.0,0.0,0.0,0.0,0.0,0.0,0.0,-3.2666,-3.2109,-3.1582,-3.1878,-3.223,-3.2713,-3.3302,-3.3981,-3.4694,-3.4982,-3.528,-3.5545,-3.5603,-3.5637,-3.5628,0.0,0.0,0.0,-3.4765,-3.4212,-3.3614,-3.2367,-3.1696,-3.1376,-3.0775,-3.0544,-3.0582,-3.0642,-3.0671,-3.0723,-3.0859,-3.0898,-3.0898,-3.0898,-3.082,-3.0757,-3.0704,-3.0617,-3.0525,-3.0506,-3.0467,-3.0417,-3.0398,-2.9634,-2.8664,-2.7854,-2.6852,-2.5868,-2.5139,-2.501,-2.5046,-2.5192,-2.5099,-2.501,-2.501,-2.4936,-2.4942,-2.508,-2.5174,-2.5215,-2.5176,-2.5174,-2.5174,-2.5221,-2.5302,-2.5329,-2.5271,-2.5351,-2.5409,-2.5466,-2.5486,-2.5542,-2.5664,-2.5684,-2.5703,-2.5703,-2.5703,-2.5703,-2.5703,-2.5703,-2.5703,0.1248,-0.4116,-0.9289,-0.8603,-0.3238,0.2083,0.295,0.8469,1.2943,1.1249,1.0897,1.0458,0.905,0.8122,0.6291,0.235,0.0636,-0.222,-0.7976,-1.1918,-1.4716,0.0,0.0,0.0,0.0,0.0,0.0,0.0,0.0,0.0,0.0,-3.3536,-3.3226,-3.2517,-3.2484,-3.2713,-3.3184,-3.3478,-3.3981,-3.4694,-3.504,-3.5346,-3.5603,-3.568,-3.5701,0.0,0.0,0.0,0.0,-3.4603,-3.3547,-3.1919,-3.1831,-3.1241,-3.0398,-3.0398,-3.0448,-3.0506,-3.0595,-3.0633,-3.0723,-3.0859,-3.0898,-3.0898,-3.0898,-3.0898,-3.0879,-3.0742,-3.065,-3.0583,-3.0525,-3.0506,-3.0487,-3.0417,-2.9737,-2.8871,-2.8063,-2.7048,-2.6028,-2.5182,-2.501,-2.501,-2.501,-2.501,-2.501,-2.501,-2.5057,-2.5099,-2.5091,-2.5322,-2.5386,-2.5118,-2.5089,-2.5015,-2.4826,-2.4921,-2.501,-2.501,-2.5203,-2.5322,-2.5409,-2.5467,-2.5522,-2.5605,-2.5664,-2.5703,-2.5703,-2.5703,-2.5703,-2.5703,-2.5703,-2.5703,0.1239,-0.2926,-0.6933,-0.6438,-0.1523,0.3366,0.401,0.8779,1.2645,1.1205,1.0494,0.9881,0.8969,0.7693,0.6191,0.4396,0.1943,0.0,0.0,0.0,0.0,0.0,0.0,0.0,0.0,0.0,0.0,0.0,0.0,0.0,0.0,-3.4486,-3.387,-3.2816,-3.2911,-3.3045,-3.3214,-3.3969,-3.447,-3.4713,-3.5217,-3.5518,-3.5622,-3.5757,0.0,0.0,0.0,0.0,0.0,-3.323,-3.2382,-3.1831,-3.1114,-3.066,-3.0398,-3.0398,-3.0398,-3.0448,-3.0506,-3.0548,-3.0569,-3.0676,-3.0726,-3.0762,-3.0762,-3.082,-3.0879,-3.0742,-3.0673,-3.0657,-3.0593,-3.0569,-3.0564,-3.0544,-2.9417,-2.8283,-2.8016,-2.6724,-2.5529,-2.5261,-2.5203,-2.5203,-2.5203,-2.5203,-2.5203,-2.5203,-2.525,-2.5318,-2.53,-2.5262,-2.5142,-2.4932,-2.4779,-2.4723,-2.4787,-2.4923,-2.501,-2.501,-2.5192,-2.5322,-2.5409,-2.5425,-2.546,-2.5522,-2.5542,-2.5561,-2.5561,-2.5561,-2.5561,-2.5564,-2.5602,-2.5625,0.3697,0.138,-0.0927,-0.0559,0.2638,0.5872,0.6519,0.9577,1.1947,1.0931,1.0333,0.9779,0.8942,0.7617,0.6238,0.5061,0.2828,0.0,0.0,0.0,0.0,0.0,0.0,0.0,0.0,0.0,0.0,0.0,0.0,0.0,0.0,0.0,-3.3571,-3.2509,-3.3121,-3.3437,-3.3437,-3.4288,-3.4694,-3.4713,-3.5315,-3.5612,-3.5635,-3.5815,0.0,0.0,0.0,0.0,0.0,-3.2341,-3.165,-3.1318,-3.0641,-3.0398,-3.0398,-3.0398,-3.0398,-3.0398,-3.0487,-3.0507,-3.051,-3.0582,-3.0657,-3.0703,-3.0762,-3.082,-3.0879,-3.0801,-3.0781,-3.0741,-3.0651,-3.0637,-3.0556,-3.0192,-2.9042,-2.7952,-2.7622,-2.6409,-2.539,-2.539,-2.537,-2.5341,-2.5341,-2.5322,-2.5303,-2.5322,-2.539,-2.5437,-2.5407,-2.5249,-2.5045,-2.4825,-2.4615,-2.4528,-2.4559,-2.4723,-2.4845,-2.493,-2.5096,-2.5233,-2.536,-2.539,-2.5425,-2.546,-2.5499,-2.5499,-2.5499,-2.5499,-2.5499,-2.5506,-2.5537,-2.5583,0.0,0.7571,0.7213,0.7549,0.8215,0.9012,0.9817,1.0599,0.0,1.0465,1.0347,1.0034,0.9033,0.7848,0.651,0.4934,0.3534,0.0,0.0,0.0,0.0,0.0,0.0,0.0,0.0,0.0,0.0,0.0,0.0,0.0,0.0,0.0,-3.2583,-3.1821,-3.2976,-3.3623,-3.3623,-3.4285,-3.4598,-3.4598,-3.5203,-3.5574,-3.567,-3.5767,0.0,0.0,0.0,0.0,0.0,-3.1872,-3.128,-3.0487,-3.0417,-3.0398,-3.0398,-3.0398,-3.0398,-3.0398,-3.0467,-3.0487,-3.0506,-3.0564,-3.0646,-3.0702,-3.0839,-3.0898,-3.0898,-3.0898,-3.0898,-3.0879,-3.0742,-3.0703,-3.0486,-2.9533,-2.8699,-2.788,-2.6988,-2.6131,-2.5495,-2.5495,-2.5447,-2.5399,-2.5409,-2.5341,-2.5322,-2.539,-2.5457,-2.5473,-2.5389,-2.526,-2.5068,-2.4794,-2.4591,-2.441,-2.4209,-2.4393,-2.4575,-2.4775,-2.4917,-2.5077,-2.5253,-2.5331,-2.537,-2.537,-2.5437,-2.5486,-2.5486,-2.5486,-2.5486,-2.5486,-2.5486,-2.5525,0.6474,0.0,0.6807,0.6734,0.7839,0.897,0.0,0.997,1.0655,1.0072,0.9778,0.9595,0.9443,0.8296,0.7594,0.818,0.0,0.0,0.0,0.0,0.0,0.0,0.0,0.0,0.0,0.0,0.0,0.0,0.0,0.0,0.0,0.0,-3.1986,-3.1821,-3.1911,-3.1953,-3.1953,-3.3122,-3.3611,-3.3399,-3.432,-3.4976,-3.5384,-3.5116,0.0,0.0,0.0,0.0,-3.1939,-3.1155,-3.0709,-3.0487,-3.0417,-3.0398,-3.0398,-3.0398,-3.0398,-3.0398,-3.0417,-3.0417,-3.0417,-3.0506,-3.053,-3.0567,-3.0643,-3.0782,-3.0898,-3.0898,-3.0898,-3.0898,-3.0859,-3.0859,-3.0625,-2.9741,-2.8841,-2.794,-2.7069,-2.6154,-2.5498,-2.5498,-2.5441,-2.5395,-2.5409,-2.5341,-2.5322,-2.539,-2.5399,-2.5365,-2.5199,-2.5013,-2.481,-2.4594,-2.4393,-2.4266,-2.419,-2.4393,-2.4528,-2.4578,-2.4741,-2.4869,-2.4929,-2.5037,-2.5096,-2.5096,-2.5262,-2.5341,-2.5341,-2.5341,-2.5341,-2.5341,-2.5409,-2.5427,0.5227,0.6039,0.6804,0.6877,0.7851,0.8784,0.8858,0.9373,0.9773,0.9658,0.0,0.922,0.9516,0.8646,0.0,0.0,0.0,0.0,0.0,0.0,0.0,0.0,0.0,0.0,0.0,0.0,0.0,0.0,0.0,0.0,0.0,0.0,-3.0399,-3.0033,-3.0385,-3.083,-3.1384,-3.2355,-3.2786,-3.2645,-3.3398,-3.3974,-3.4322,-3.4111,0.0,0.0,0.0,0.0,-3.1359,-3.077,-3.0525,-3.0487,-3.0417,-3.0398,-3.0398,-3.0398,-3.0398,-3.0398,-3.0398,-3.0398,-3.0398,-3.0487,-3.0497,-3.0511,-3.0576,-3.069,-3.0755,-3.0765,-3.0774,-3.0801,-3.0801,-3.0859,-3.0586,-2.9316,-2.8613,-2.7891,-2.6621,-2.5949,-2.5574,-2.5551,-2.5499,-2.5447,-2.5399,-2.537,-2.537,-2.5447,-2.5453,-2.5373,-2.517,-2.4943,-2.4708,-2.453,-2.4321,-2.419,-2.419,-2.4303,-2.441,-2.4495,-2.4591,-2.47,-2.4804,-2.4943,-2.5034,-2.5141,-2.5234,-2.5303,-2.5303,-2.5303,-2.5303,-2.5303,-2.5341,-2.537,0.4297,0.5483,0.662,0.6514,0.709,0.774,0.7963,0.0,0.0,0.0,0.0,0.0,0.9477,0.8839,0.0,0.0,0.0,0.0,0.0,0.0,0.0,0.0,0.0,0.0,0.0,0.0,0.0,0.0,0.0,0.0,0.0,0.0,0.0,-2.7794,-2.8847,-2.9914,-3.0924,-3.1645,-3.1996,-3.1996,-3.2498,-3.2863,-3.3147,-3.3044,-3.2713,0.0,0.0,0.0,-3.0682,-3.0626,-3.056,-3.0487,-3.0417,-3.0398,-3.0398,-3.0398,-3.0398,-3.0398,-3.0398,-3.0398,-3.0398,-3.0467,-3.0487,-3.0506,-3.0544,-3.0564,-3.0582,-3.0576,-3.0637,-3.0696,-3.0703,-3.0781,-3.0469,-2.8887,-2.8398,-2.7851,-2.625,-2.5781,-2.5687,-2.5597,-2.5553,-2.5473,-2.5408,-2.5409,-2.5409,-2.549,-2.5476,-2.5398,-2.5175,-2.4945,-2.4706,-2.4479,-2.4303,-2.419,-2.419,-2.419,-2.4266,-2.4444,-2.4444,-2.4561,-2.479,-2.4891,-2.5041,-2.5303,-2.5264,-2.5264,-2.5303,-2.5303,-2.5303,-2.5303,-2.5303,-2.5322,0.4588,0.5042,0.4835,0.2495,0.2927,0.3809,0.3294,0.4432,0.0,0.0,0.0,0.0,0.0,0.874,0.0,0.0,0.0,0.0,0.0,0.0,0.0,0.0,0.0,0.0,0.0,0.0,0.0,0.0,0.0,0.0,0.0,0.0,0.0,-2.7222,-2.811,-2.868,-2.8858,-3.0344,-3.111,-3.111,-3.1675,-3.2272,-3.2851,-3.2382,-3.2186,0.0,0.0,-3.0957,-3.0683,-3.0619,-3.0557,-3.0487,-3.0417,-3.0398,-3.0398,-3.0398,-3.0398,-3.0398,-3.0398,-3.0398,-3.0398,-3.0398,-3.0417,-3.0417,-3.0417,-3.0417,-3.0429,-3.0417,-3.0528,-3.0632,-3.0693,-3.0723,-3.0508,-2.9609,-2.8848,-2.8027,-2.7012,-2.6211,-2.5687,-2.5597,-2.5553,-2.5475,-2.5409,-2.5409,-2.5406,-2.5408,-2.5428,-2.527,-2.4903,-2.4828,-2.4657,-2.4284,-2.4209,-2.419,-2.419,-2.419,-2.4209,-2.4247,-2.4247,-2.441,-2.479,-2.467,-2.4795,-2.5303,-2.5122,-2.5141,-2.5303,-2.5303,-2.5303,-2.5303,-2.5303,-2.5303,0.3839,0.4049,0.3466,0.0277,0.0779,0.1535,-0.0347,-0.0403,0.0,0.0,0.0,0.0,0.0,0.0,0.0,0.0,0.0,0.0,0.0,0.0,0.0,0.0,0.0,0.0,0.0,0.0,0.0,0.0,0.0,0.0,0.0,0.0,0.0,0.0,-2.7549,-2.8174,-2.8294,-2.9597,-3.0243,-3.0262,-3.0795,-3.122,-3.155,-3.1345,-3.1294,-3.1367,0.0,-3.0879,-3.08,-3.0661,-3.0591,-3.0544,-3.0448,-3.0398,-3.0398,-3.0398,-3.0398,-3.0398,-3.0398,-3.0398,-3.0398,-3.0398,-3.0398,-3.0398,-3.0398,-3.0398,-3.0398,-3.0398,-3.0467,-3.0543,-3.0579,-3.0624,-3.0465,-2.9725,-2.8887,-2.8027,-2.7187,-2.6328,-2.5675,-2.5564,-2.552,-2.5466,-2.537,-2.5409,-2.5449,-2.5406,-2.5347,-2.5168,-2.4835,-2.4717,-2.4528,-2.4228,-2.419,-2.419,-2.419,-2.419,-2.419,-2.419,-2.419,-2.4321,-2.4623,-2.4561,-2.467,-2.5012,-2.4949,-2.4968,-2.5141,-2.5141,-2.5184,-2.5303,-2.5303,-2.5234,0.3495,0.3296,0.2335,-0.0596,0.0,-0.0353,-0.4329,-0.4933,0.0,0.0,0.0,0.0,0.0,0.0,0.0,0.0,0.0,0.0,0.0,0.0,0.0,0.0,0.0,0.0,0.0,0.0,0.0,0.0,0.0,0.0,0.0,0.0,0.0,0.0,-2.7203,-2.7994,-2.8258,-2.9206,-2.9712,-2.9782,-3.0202,-3.0448,-3.0487,-3.0565,-3.0628,-3.0703,-3.084,-3.0897,-3.0889,-3.0687,-3.061,-3.0583,-3.0448,-3.0398,-3.0398,-3.0323,-3.0355,-3.0398,-3.0323,-3.0355,-3.0398,-3.0398,-3.0398,-3.0398,-3.0398,-3.0398,-3.0398,-3.0398,-3.0393,-3.04,-3.0475,-3.055,-3.0439,-2.992,-2.9134,-2.8281,-2.748,-2.6621,-2.5894,-2.5574,-2.5488,-2.5466,-2.5322,-2.5409,-2.5468,-2.5387,-2.5286,-2.511,-2.4823,-2.4566,-2.4338,-2.4209,-2.4132,-2.4113,-2.419,-2.419,-2.419,-2.419,-2.419,-2.4284,-2.4495,-2.4444,-2.4561,-2.479,-2.476,-2.4814,-2.4949,-2.4949,-2.503,-2.5171,-2.5171,-2.521,0.4468,0.3242,0.1405,0.0038,-0.04,-0.2387,-0.9634,-0.8275,0.0,-0.4558,0.0,0.0,0.0,0.0,0.0,0.0,0.0,0.0,0.0,0.0,0.0,0.0,0.0,0.0,0.0,0.0,0.0,0.0,0.0,0.0,0.0,0.0,0.0,0.0,0.0,-2.8047,-2.8376,-2.9262,-2.9796,-2.9984,-3.0267,-3.0448,-3.0506,-3.0568,-3.0644,-3.0703,-3.084,-3.0903,-3.0876,-3.0689,-3.061,-3.0583,-3.0448,-3.0398,-3.0367,-3.0122,-3.0196,-3.0367,-3.0122,-3.0196,-3.0398,-3.0398,-3.0398,-3.0398,-3.0398,-3.0398,-3.0398,-3.0398,-3.0209,-3.0109,-3.0419,-3.0498,-3.0521,-3.0601,-3.0,-2.9199,-2.8379,-2.7519,-2.6637,-2.5671,-2.5488,-2.5466,-2.5322,-2.5409,-2.5468,-2.5328,-2.5247,-2.5102,-2.4827,-2.4349,-2.4081,-2.419,-2.3917,-2.3858,-2.417,-2.419,-2.419,-2.419,-2.419,-2.4284,-2.4495,-2.4321,-2.441,-2.479,-2.4607,-2.4623,-2.4799,-2.4799,-2.4832,-2.4847,-2.4847,-2.5234,0.3685,0.3265,0.2164,-0.0492,-0.1021,0.0,0.0,-0.9902,-1.0816,-1.0181,-0.9589,0.0,0.0,0.0,0.0,0.0,0.0,0.0,0.0,0.0,0.0,0.0,0.0,0.0,0.0,0.0,0.0,0.0,0.0,0.0,0.0,0.0,0.0,0.0,0.0,-2.8358,-2.8646,-2.9361,-2.9796,-2.9999,-3.0267,-3.0398,-3.0448,-3.0544,-3.0615,-3.0641,-3.0817,-3.0901,-3.0878,-3.0684,-3.061,-3.0583,-3.0448,-3.0299,-3.0136,-3.0028,-2.9988,-2.9962,-2.9864,-2.9973,-3.015,-3.015,-3.0267,-3.0398,-3.0398,-3.0398,-3.0398,-3.0398,-3.0323,-3.0286,-3.0405,-3.0305,-3.0253,-3.0521,-2.9579,-2.8561,-2.83,-2.7168,-2.6051,-2.5593,-2.5488,-2.5466,-2.539,-2.541,-2.5383,-2.521,-2.5043,-2.4792,-2.4351,-2.4211,-2.4058,-2.3917,-2.3958,-2.4074,-2.419,-2.419,-2.419,-2.419,-2.419,-2.4228,-2.4321,-2.4247,-2.4266,-2.4409,-2.4339,-2.441,-2.4607,-2.4607,-2.467,-2.4804,-2.4804,-2.49,0.3307,0.335,0.2743,-0.0453,0.0,0.0,-0.5903,-1.0123,-1.3352,-1.2966,-1.2574,0.0,0.0,0.0,0.0,0.0,0.0,0.0,0.0,0.0,0.0,0.0,0.0,0.0,0.0,0.0,0.0,0.0,0.0,0.0,0.0,0.0,0.0,0.0,0.0,-2.8585,-2.8986,-2.9457,-2.9796,-2.9999,-3.0267,-3.0398,-3.0398,-3.0544,-3.0598,-3.0611,-3.081,-3.0901,-3.0878,-3.0684,-3.0527,-3.0414,-3.0405,-3.0196,-2.9908,-2.9908,-2.9813,-2.9696,-2.9644,-2.9748,-2.9924,-2.9984,-3.0117,-3.0299,-3.0367,-3.0398,-3.0398,-3.0398,-3.0343,-3.0299,-3.0367,-3.0267,-3.0182,-3.0432,-2.969,-2.8761,-2.8296,-2.7324,-2.6326,-2.5671,-2.5531,-2.5495,-2.5418,-2.5415,-2.5349,-2.5118,-2.4919,-2.4605,-2.4063,-2.4022,-2.3937,-2.3714,-2.3996,-2.419,-2.419,-2.419,-2.419,-2.419,-2.419,-2.419,-2.419,-2.419,-2.419,-2.419,-2.419,-2.4284,-2.441,-2.441,-2.4478,-2.4607,-2.4607,-2.4676,0.3607,0.3491,0.2871,0.0,0.0,0.0,-0.5998,-0.9091,-1.1687,-1.1681,0.0,-0.8378,0.0,0.0,0.0,0.0,0.0,0.0,0.0,0.0,0.0,0.0,0.0,0.0,0.0,0.0,0.0,0.0,0.0,0.0,0.0,0.0,0.0,0.0,0.0,-2.8742,-2.9392,-2.9607,-2.9796,-2.9999,-3.0267,-3.0398,-3.0398,-3.0544,-3.0598,-3.0611,-3.081,-3.0901,-3.0878,-3.0678,-3.0366,-3.0028,-3.0299,-3.0114,-2.9696,-2.9696,-2.9696,-2.9661,-2.9474,-2.9532,-2.9731,-2.9939,-2.9999,-3.0061,-3.0311,-3.0398,-3.0398,-3.0398,-3.0209,-3.0075,-3.0323,-3.0398,-3.0417,-3.0487,-3.0544,-3.0144,-2.8543,-2.8242,-2.7754,-2.5957,-2.559,-2.5556,-2.5422,-2.544,-2.5379,-2.5033,-2.4885,-2.4588,-2.4063,-2.3806,-2.3692,-2.3692,-2.3996,-2.419,-2.419,-2.4208,-2.4208,-2.419,-2.419,-2.419,-2.419,-2.419,-2.419,-2.419,-2.419,-2.419,-2.419,-2.419,-2.419,-2.419,-2.419,-2.463,0.245,0.2034,0.0,-0.079,0.0,0.0,0.0,-1.031,0.0,0.0,0.0,0.0,0.0,0.0,0.0,0.0,0.0,0.0,0.0,0.0,0.0,0.0,0.0,0.0,0.0,0.0,0.0,0.0,0.0,0.0,0.0,0.0,0.0,0.0,-2.8615,-2.9007,-2.9392,-2.9607,-2.9796,-2.9999,-3.0267,-3.0398,-3.0398,-3.0487,-3.0559,-3.0611,-3.0712,-3.0804,-3.0892,-3.0683,-3.0455,-3.0299,-3.0367,-3.0114,-2.9696,-2.9696,-2.9476,-2.9206,-2.9138,-2.927,-2.9532,-2.9712,-2.978,-2.988,-3.0286,-3.0267,-3.015,-3.0355,-3.0355,-3.0299,-3.0367,-3.0398,-3.0398,-3.0417,-3.0002,-2.934,-2.8335,-2.77,-2.6973,-2.582,-2.5566,-2.5527,-2.5485,-2.5288,-2.5023,-2.4639,-2.4368,-2.4043,-2.3494,-2.3171,-2.3093,-2.3305,-2.3455,-2.3588,-2.3816,-2.3837,-2.3937,-2.419,-2.419,-2.419,-2.419,-2.419,-2.419,-2.419,-2.419,-2.419,-2.419,-2.419,-2.419,-2.419,-2.419,-2.4318,0.1443,0.0152,0.0,-0.2555,-0.3943,-0.5779,-0.9004,0.0,0.0,0.0,0.0,0.0,0.0,0.0,0.0,0.0,0.0,0.0,0.0,0.0,0.0,0.0,0.0,0.0,0.0,0.0,0.0,0.0,0.0,0.0,0.0,0.0,0.0,0.0,-2.8863,-2.916,-2.9513,-2.9625,-2.9845,-3.015,-3.0323,-3.0398,-3.0398,-3.0467,-3.0537,-3.0607,-3.0723,-3.0784,-3.0769,-3.0645,-3.047,-3.0241,-3.0241,-2.9977,-2.9589,-2.9589,-2.9334,-2.8994,-2.8994,-2.9178,-2.9434,-2.9625,-2.9696,-2.9782,-3.026,-3.0209,-3.0061,-3.0323,-3.0398,-3.0398,-3.0398,-3.0398,-3.0398,-3.0398,-3.0052,-2.9413,-2.8305,-2.7718,-2.705,-2.5808,-2.5561,-2.5493,-2.5351,-2.5092,-2.4746,-2.4302,-2.3824,-2.3414,-2.3236,-2.2923,-2.2822,-2.3165,-2.3189,-2.3346,-2.3671,-2.3692,-2.3837,-2.417,-2.419,-2.419,-2.419,-2.419,-2.419,-2.419,-2.419,-2.419,-2.419,-2.419,-2.419,-2.419,-2.419,-2.419,0.0581,0.0,0.0,-0.4633,-0.6071,0.0,-0.7912,0.0,0.0,0.0,0.0,0.0,0.0,0.0,0.0,0.0,0.0,0.0,0.0,0.0,0.0,0.0,0.0,0.0,0.0,0.0,0.0,0.0,0.0,0.0,0.0,0.0,0.0,0.0,-2.8962,-2.9228,-2.9661,-2.9696,-2.9912,0.0,-3.029,-3.0294,-3.0294,-3.0429,-3.0537,-3.0612,-3.0804,-3.0726,-3.0496,-3.0491,-3.0267,-2.9913,-2.9913,-2.9723,-2.9414,-2.9414,-2.9246,-2.8994,-2.8994,-2.9156,-2.9394,-2.9644,-2.9696,-2.9765,-3.026,-3.0151,-2.9966,-3.0304,-3.034,-3.0302,-3.0379,-3.034,-3.0294,-3.0294,-3.0333,-2.9898,-2.8241,-2.7982,-2.7567,-2.5823,-2.5519,-2.5442,-2.5127,-2.4821,-2.4459,-2.3949,-2.3206,-2.2772,-2.3087,-2.2848,-2.2772,-2.3087,-2.3135,-2.3277,-2.361,-2.3649,-2.3816,-2.417,-2.419,-2.419,-2.419,-2.419,-2.419,-2.419,-2.419,-2.419,-2.419,-2.419,-2.419,-2.419,-2.419,-2.419,0.0219,-0.273,0.0,0.0,-0.6279,-0.7247,-0.6539,0.0,0.0,0.0,0.0,0.0,0.0,0.0,0.0,0.0,0.0,0.0,0.0,0.0,0.0,0.0,0.0,0.0,0.0,0.0,0.0,0.0,0.0,0.0,0.0,0.0,0.0,-2.8251,-2.8743,-2.9138,-2.9474,-2.9626,-2.9748,0.0,-2.9538,-2.9371,-2.939,-3.0102,-3.0491,-3.062,-3.0708,-3.0339,-2.9663,-2.966,-2.9506,-2.9286,-2.9286,-2.9427,-2.9644,-2.9644,-2.9375,-2.8994,-2.8994,-2.904,-2.916,-2.957,-2.9589,-2.9589,-3.0202,-2.9768,-2.9254,-3.0151,-2.991,-2.9544,-3.0217,-2.989,-2.9371,-2.9371,-2.939,-2.8956,-2.7336,-2.7007,-2.6711,-2.5707,-2.5348,-2.5114,-2.484,-2.4441,-2.3871,-2.3112,-2.2625,-2.2415,-2.248,-2.2426,-2.2415,-2.248,-2.248,-2.2712,-2.3277,-2.3323,-2.3566,-2.417,-2.419,-2.419,-2.419,-2.419,-2.419,-2.419,-2.419,-2.419,-2.419,-2.419,-2.419,-2.419,-2.419,-2.419,-0.0037,0.0,0.0,-0.5241,0.0,-0.7692,-0.6248,0.0,0.0,0.0,0.0,0.0,0.0,0.0,0.0,0.0,0.0,0.0,0.0,0.0,0.0,0.0,0.0,0.0,0.0,0.0,0.0,0.0,0.0,0.0,0.0,-2.55,-2.6688,-2.7623,-2.7959,-2.8202,-2.8352,-2.8558,-2.8669,-2.8685,-2.8581,-2.8525,-2.8544,-2.9033,-2.9321,-2.9414,-2.9469,-2.9226,-2.8773,-2.878,-2.8683,-2.8506,-2.8387,-2.8389,-2.8546,-2.8838,-2.8719,-2.8484,-2.8888,-2.9089,-2.9225,-2.9474,-2.927,-2.9024,-2.9489,-2.8957,-2.8311,-2.8894,-2.8739,-2.849,-2.8938,-2.872,-2.8291,-2.7975,-2.8217,-2.8179,-2.6916,-2.6677,-2.6419,-2.5443,-2.5077,-2.4787,-2.4424,-2.3812,-2.3182,-2.2616,-2.2388,-2.231,-2.231,-2.231,-2.231,-2.231,-2.231,-2.248,-2.2923,-2.3117,-2.3414,-2.3917,-2.4113,-2.419,-2.419,-2.419,-2.419,-2.419,-2.419,-2.419,-2.419,-2.419,-2.419,-2.419,-2.419,-2.419,0.0037,0.0,-0.4249,-0.5386,-0.6905,0.0,-0.6037,0.0,0.0,0.0,0.0,0.0,0.0,0.0,0.0,0.0,0.0,0.0,0.0,0.0,0.0,0.0,0.0,0.0,0.0,0.0,0.0,0.0,0.0,0.0,-2.4346,-2.5031,-2.5856,-2.7016,-2.7153,-2.7226,-2.7251,-2.7419,-2.7521,-2.7567,-2.7651,-2.7601,-2.7448,-2.7503,-2.7742,-2.8088,-2.8143,-2.8062,-2.7863,-2.786,-2.7797,-2.7648,-2.7433,-2.7286,-2.7266,-2.7923,-2.7987,-2.7915,-2.8723,-2.9156,-2.933,-2.9392,-2.8933,-2.8397,-2.8658,-2.8032,-2.729,-2.7489,-2.7458,-2.7408,-2.7561,-2.7498,-2.728,-2.6724,-2.7044,-2.7255,-2.6524,-2.6388,-2.6113,-2.5132,-2.464,-2.4247,-2.3755,-2.3094,-2.2537,-2.222,-2.2254,-2.231,-2.231,-2.231,-2.231,-2.231,-2.231,-2.2398,-2.2669,-2.3021,-2.3346,-2.3671,-2.4016,-2.419,-2.419,-2.419,-2.419,-2.419,-2.419,-2.419,-2.419,-2.419,-2.419,-2.419,-2.419,-2.419,0.0,0.0,-0.3621,0.0,-0.5757,-0.5026,0.0,0.0,0.0,0.0,0.0,0.0,0.0,0.0,0.0,0.0,0.0,0.0,0.0,0.0,0.0,0.0,0.0,0.0,0.0,0.0,0.0,0.0,0.0,0.0,-2.4002,-2.5221,-2.6054,-2.6409,-2.6927,-2.7289,-2.7461,-2.7489,-2.7502,-2.7502,-2.7006,-2.639,-2.5649,-2.5649,-2.6524,-2.8007,-2.8074,-2.7643,-2.6895,-2.6958,-2.6901,-2.6774,-2.6734,-2.6918,-2.7283,-2.8079,-2.8128,-2.7915,-2.8723,-2.9021,-2.9089,-2.933,-2.8817,-2.8185,-2.8449,-2.7437,-2.6359,-2.7131,-2.6925,-2.6651,-2.7408,-2.717,-2.6715,-2.661,-2.612,-2.561,-2.5495,-2.5335,-2.5101,-2.4728,-2.3879,-2.3047,-2.2461,-2.2358,-2.2203,-2.1764,-2.2032,-2.231,-2.231,-2.231,-2.231,-2.231,-2.231,-2.2398,-2.2669,-2.3021,-2.3346,-2.3671,-2.4016,-2.419,-2.419,-2.419,-2.419,-2.419,-2.419,-2.419,-2.419,-2.419,-2.419,-2.419,-2.419,-2.419,0.1262,-0.1178,-0.3327,0.0,-0.4786,-0.5483,-0.4698,0.0,0.0,0.0,0.0,0.0,0.0,0.0,0.0,0.0,0.0,0.0,0.0,0.0,0.0,0.0,0.0,0.0,0.0,0.0,0.0,0.0,0.0,-2.3088,-2.4381,-2.5087,-2.5533,-2.5726,-2.5989,-2.6123,-2.6104,-2.6216,-2.6282,-2.6263,-2.6002,-2.5668,-2.5303,-2.5303,-2.5755,-2.6554,-2.6618,-2.6389,-2.5983,-2.6033,-2.5996,-2.586,-2.5748,-2.5761,-2.5944,-2.6643,-2.6693,-2.6557,-2.7383,-2.7952,-2.8268,-2.7938,-2.7656,-2.7382,-2.7024,-2.6183,-2.5393,-2.5662,-2.5524,-2.5412,-2.5887,-2.5798,-2.5633,-2.583,-2.5482,-2.5057,-2.4797,-2.4763,-2.4505,-2.354,-2.2894,-2.2275,-2.1606,-2.1702,-2.1823,-2.1628,-2.2337,-2.2767,-2.2361,-2.2665,-2.2767,-2.2344,-2.231,-2.2349,-2.2463,-2.2738,-2.2996,-2.3117,-2.3649,-2.3917,-2.3917,-2.4094,-2.419,-2.419,-2.419,-2.419,-2.419,-2.4016,-2.3917,-2.3917,-2.3917,-2.3917,0.0,0.0,-0.2218,-0.1638,-0.3482,-0.5314,0.0,0.0,0.0,0.0,0.0,0.0,0.0,0.0,0.0,0.0,0.0,0.0,0.0,0.0,0.0,0.0,0.0,0.0,0.0,0.0,0.0,0.0,0.0,-2.3648,-2.4741,-2.493,-2.5088,-2.5284,-2.5303,-2.5224,-2.5088,-2.5224,-2.5303,-2.5303,-2.5303,-2.5303,-2.5303,-2.5303,-2.5341,-2.5409,-2.5466,-2.5459,-2.5378,-2.5472,-2.5389,-2.5214,-2.5065,-2.4891,-2.4794,-2.5459,-2.5579,-2.5531,-2.6319,-2.6998,-2.742,-2.7034,-2.6718,-2.6451,-2.6061,-2.5332,-2.4607,-2.4461,-2.4461,-2.4561,-2.4746,-2.4832,-2.4923,-2.5152,-2.5111,-2.4854,-2.4351,-2.4128,-2.3712,-2.2561,-2.2067,-2.1606,-2.0943,-2.1228,-2.1617,-2.1706,-2.2742,-2.3342,-2.2919,-2.3444,-2.3528,-2.2682,-2.2581,-2.2513,-2.2327,-2.2537,-2.2695,-2.2695,-2.3236,-2.361,-2.3692,-2.3937,-2.4074,-2.4074,-2.4074,-2.4074,-2.4074,-2.3753,-2.3566,-2.3566,-2.3566,-2.3566,0.0,0.1522,0.0,-0.0365,-0.1477,0.0,0.0,0.0,0.0,0.0,0.0,0.0,0.0,0.0,0.0,0.0,0.0,0.0,0.0,0.0,0.0,0.0,0.0,0.0,0.0,0.0,0.0,0.0,0.0,-2.419,-2.4775,-2.493,-2.5088,-2.5284,-2.5303,-2.5284,-2.5274,-2.5284,-2.5303,-2.5303,-2.5303,-2.5303,-2.5303,-2.5303,-2.5341,-2.5409,-2.5466,-2.5434,-2.531,-2.5452,-2.5318,-2.5022,-2.4991,-2.4804,-2.4605,-2.5409,-2.5579,-2.5531,-2.6319,-2.6631,-2.6778,-2.7493,-2.6707,-2.5625,-2.634,-2.5458,-2.4228,-2.4209,-2.4339,-2.4561,-2.4746,-2.4891,-2.4998,-2.501,-2.501,-2.4815,-2.4154,-2.3231,-2.2435,-2.2184,-2.1546,-2.091,-2.0416,-2.1039,-2.172,-2.2036,-2.3054,-2.3947,-2.4337,-2.4814,-2.463,-2.3477,-2.3342,-2.3054,-2.2361,-2.2537,-2.2695,-2.2695,-2.3021,-2.3369,-2.3692,-2.3714,-2.3714,-2.3714,-2.3714,-2.3714,-2.3732,-2.3392,-2.323,-2.323,-2.323,-2.323,0.0,0.0,0.0,0.1606,-0.0041,0.0,0.0,0.0,0.0,0.0,0.0,0.0,0.0,0.0,0.0,0.0,0.0,0.0,0.0,0.0,0.0,0.0,0.0,0.0,0.0,0.0,0.0,0.0,0.0,0.0,-2.4756,-2.493,-2.5088,-2.5284,-2.5303,-2.5303,-2.5303,-2.5303,-2.5303,-2.5303,-2.5303,-2.5303,-2.5303,-2.5303,-2.5341,-2.5409,-2.5429,-2.541,-2.537,-2.5459,-2.5288,-2.4998,-2.4904,-2.4727,-2.4515,-2.4672,-2.4689,-2.4667,-2.4961,-2.5401,-2.5786,-2.5548,-2.5438,-2.5366,-2.5126,-2.4667,-2.419,-2.419,-2.4266,-2.4393,-2.4716,-2.4741,-2.4629,-2.4412,-2.3989,-2.3476,-2.2904,-2.2479,-2.1939,-2.1116,-2.0716,-2.0431,-2.0,-2.0632,-2.1294,-2.1616,-2.2718,-2.3427,-2.3122,-2.3646,-2.3697,-2.2801,-2.2699,-2.2598,-2.2327,-2.2388,-2.2436,-2.2436,-2.273,-2.2947,-2.3045,-2.3259,-2.3392,-2.3392,-2.32,-2.32,-2.3392,-2.3045,-2.2873,-2.2873,-2.2873,-2.2873,0.4073,0.0,0.0,0.0,0.0,0.0,0.0,0.0,0.0,0.0,0.0,0.0,0.0,0.0,0.0,0.0,0.0,0.0,0.0,0.0,0.0,0.0,0.0,0.0,0.0,0.0,0.0,0.0,0.0,0.0,-2.4756,-2.4877,-2.5061,-2.5284,-2.5303,-2.5303,-2.5303,-2.5303,-2.5303,-2.5303,-2.5303,-2.5303,-2.5303,-2.5322,-2.537,-2.5438,-2.5434,-2.543,-2.5409,-2.5459,-2.5267,-2.4911,-2.4828,-2.4639,-2.4375,-2.4247,-2.419,-2.419,-2.419,-2.4538,-2.4942,-2.4685,-2.4777,-2.4962,-2.4667,-2.441,-2.419,-2.419,-2.4247,-2.4375,-2.4716,-2.4617,-2.4351,-2.4081,-2.3302,-2.2495,-2.1995,-2.1795,-2.1456,-2.0501,-2.0177,-2.0,-1.9747,-2.0413,-2.1086,-2.1368,-2.2545,-2.3308,-2.3071,-2.346,-2.3477,-2.275,-2.2682,-2.2581,-2.2327,-2.253,-2.2564,-2.2327,-2.2702,-2.2858,-2.2712,-2.2923,-2.3021,-2.3021,-2.2857,-2.2824,-2.2908,-2.2678,-2.2563,-2.2563,-2.2563,-2.2563,0.0,0.0,0.0,0.0,0.0,0.0,0.0,0.0,0.0,0.0,0.0,0.0,0.0,0.0,0.0,0.0,0.0,0.0,0.0,0.0,0.0,0.0,0.0,0.0,0.0,0.0,0.0,0.0,0.0,-2.4393,-2.479,-2.4818,-2.4949,-2.5303,-2.5303,-2.5303,-2.5303,-2.5303,-2.5303,-2.5303,-2.5303,-2.5303,-2.5303,-2.537,-2.5438,-2.5495,-2.5495,-2.5469,-2.5407,-2.5386,-2.516,-2.4804,-2.479,-2.4561,-2.419,-2.419,-2.419,-2.419,-2.419,-2.419,-2.4318,-2.5127,-2.4832,-2.4337,-2.5146,-2.4814,-2.419,-2.4209,-2.4339,-2.4526,-2.4731,-2.4526,-2.4239,-2.4007,-2.3,-2.1967,-2.1573,-2.1227,-2.0829,-2.0382,-1.9965,-1.9726,-1.9711,-2.0431,-2.1103,-2.1368,-2.2528,-2.3613,-2.4354,-2.4455,-2.4154,-2.3427,-2.3359,-2.3071,-2.2361,-2.297,-2.3054,-2.2361,-2.297,-2.3176,-2.2704,-2.2695,-2.2695,-2.2695,-2.2695,-2.2563,-2.231,-2.231,-2.231,-2.231,-2.231,-2.231,0.4379,0.0,0.0,0.0,0.0,0.0,0.0,0.0,0.0,0.0,0.0,0.0,0.0,0.0,0.0,0.0,0.0,0.0,0.0,0.0,0.0,0.0,0.0,0.0,0.0,0.0,0.0,0.0,-2.4623,-2.4727,-2.4924,-2.5084,-2.5192,-2.5303,-2.5303,-2.5303,-2.5303,-2.5303,-2.5322,-2.537,-2.537,-2.5409,-2.5447,-2.5466,-2.549,-2.5498,-2.5446,-2.542,-2.5379,-2.5231,-2.5025,-2.479,-2.4639,-2.4428,-2.419,-2.419,-2.419,-2.419,-2.419,-2.419,-2.4245,-2.4447,-2.4373,-2.4245,-2.4447,-2.4373,-2.4228,-2.4375,-2.4461,-2.4459,-2.4263,-2.4155,-2.3836,-2.2856,-2.2346,-2.1824,-2.0847,-2.0567,-2.0348,-1.9945,-1.9782,-1.9818,-2.0292,-2.0714,-2.1229,-2.1945,-2.2377,-2.2682,-2.2885,-2.2919,-2.2835,-2.2632,-2.2615,-2.253,-2.2327,-2.2496,-2.253,-2.2327,-2.2496,-2.257,-2.2415,-2.2398,-2.2398,-2.2398,-2.2398,-2.236,-2.231,-2.231,-2.231,-2.231,-2.231,-2.231,0.4502,0.0,0.0,0.0,0.0,0.0,0.0,-0.0242,0.0,0.0,0.0,0.0,0.0,0.0,0.0,0.0,0.0,0.0,0.0,0.0,0.0,0.0,0.0,0.0,0.0,0.0,0.0,-2.479,-2.4716,-2.4741,-2.4917,-2.5171,-2.5303,-2.5341,-2.5303,-2.5322,-2.539,-2.537,-2.539,-2.5447,-2.5432,-2.5439,-2.5451,-2.549,-2.5473,-2.5469,-2.5414,-2.5402,-2.5389,-2.5095,-2.4912,-2.4775,-2.4575,-2.4375,-2.419,-2.419,-2.419,-2.419,-2.419,-2.419,-2.419,-2.419,-2.419,-2.419,-2.419,-2.4266,-2.4339,-2.4461,-2.4559,-2.454,-2.4118,-2.3759,-2.3307,-2.2346,-2.1736,-2.1163,-2.0452,-2.0158,-1.9965,-1.9747,-1.969,-1.9818,-2.0154,-2.0499,-2.0926,-2.1493,-2.184,-2.2003,-2.2003,-2.218,-2.231,-2.231,-2.231,-2.231,-2.231,-2.2581,-2.2632,-2.2327,-2.2598,-2.2632,-2.2327,-2.2398,-2.2398,-2.231,-2.2398,-2.2398,-2.231,-2.231,-2.231,-2.231,-2.231,-2.231,0.4405,0.4169,0.0,0.0,0.0,0.0,0.0182,-0.0957,0.0,0.0,0.0,0.0,0.0,0.0,0.0,0.0,0.0,0.0,0.0,0.0,0.0,0.0,0.0,0.0,0.0,-2.4516,-2.4818,-2.4861,-2.47,-2.467,-2.4847,-2.5157,-2.5341,-2.5409,-2.5351,-2.538,-2.5505,-2.5438,-2.5446,-2.5492,-2.549,-2.5461,-2.5409,-2.5465,-2.5464,-2.5401,-2.5372,-2.536,-2.533,-2.4934,-2.4775,-2.4775,-2.4575,-2.4375,-2.419,-2.4228,-2.4228,-2.4228,-2.4209,-2.4209,-2.4228,-2.4209,-2.419,-2.419,-2.4228,-2.4357,-2.4512,-2.4528,-2.4639,-2.4613,-2.4045,-2.3354,-2.2653,-2.2057,-2.1069,-2.028,-2.0246,-1.9929,-1.969,-1.969,-1.969,-1.9711,-1.9747,-2.0054,-2.0382,-2.0681,-2.1181,-2.1552,-2.1582,-2.1957,-2.2209,-2.2209,-2.2282,-2.231,-2.231,-2.2902,-2.3004,-2.2344,-2.2931,-2.3028,-2.2366,-2.2599,-2.2652,-2.2388,-2.2625,-2.2616,-2.231,-2.231,-2.231,-2.231,-2.231,-2.231,0.3022,0.2138,0.1229,-0.0408,0.0,0.0,0.0,-0.3515,0.0,0.0,0.0,0.0,0.0,0.0,0.0,0.0,0.0,0.0,0.0,0.0,0.0,0.0,0.0,0.0,0.0,-2.4741,-2.4896,-2.5171,-2.516,-2.5179,-2.5288,-2.534,-2.5409,-2.5486,-2.5471,-2.5478,-2.5505,-2.5498,-2.5483,-2.5492,-2.5502,-2.5486,-2.5481,-2.5479,-2.5464,-2.5398,-2.5228,-2.5125,-2.5041,-2.4697,-2.4654,-2.4775,-2.4575,-2.4375,-2.4209,-2.4375,-2.4426,-2.4428,-2.4266,-2.4303,-2.4409,-2.4247,-2.419,-2.4228,-2.4393,-2.4461,-2.4526,-2.47,-2.4579,-2.4204,-2.3343,-2.2705,-2.1984,-2.0911,-2.0452,-2.0212,-1.9874,-1.9747,-1.969,-1.969,-1.969,-1.9818,-2.0124,-2.0246,-2.055,-2.129,-2.1244,-2.1244,-2.1552,-2.1688,-2.1718,-2.1718,-2.2061,-2.231,-2.231,-2.2446,-2.2462,-2.231,-2.2637,-2.2763,-2.2625,-2.2923,-2.3069,-2.3014,-2.3087,-2.2832,-2.231,-2.231,-2.231,-2.231,-2.231,-2.231,-0.025,-0.1086,-0.2025,-0.4477,0.0,0.0,0.0,0.0,-0.7454,0.0,0.0,0.0,0.0,0.0,0.0,0.0,0.0,0.0,0.0,0.0,0.0,0.0,0.0,0.0,0.0,-2.4231,-2.4652,-2.5133,-2.5234,-2.5283,-2.5201,-2.533,-2.5427,-2.5503,-2.549,-2.5527,-2.5605,-2.5522,-2.5527,-2.5547,-2.5527,-2.549,-2.5444,-2.5446,-2.5409,-2.5341,-2.5141,-2.5024,-2.4967,-2.4651,-2.4561,-2.4639,-2.4545,-2.4375,-2.4228,-2.4428,-2.4445,-2.4339,-2.4228,-2.4284,-2.4339,-2.4339,-2.4339,-2.4393,-2.4575,-2.4654,-2.4654,-2.4579,-2.4202,-2.3613,-2.272,-2.1989,-2.1269,-2.0485,-2.0158,-1.9945,-1.9747,-1.969,-1.969,-1.969,-1.969,-1.9747,-1.9965,-2.0,-2.0158,-2.0599,-2.0862,-2.1055,-2.1275,-2.1675,-2.1957,-2.1957,-2.2163,-2.231,-2.231,-2.231,-2.231,-2.231,-2.2563,-2.2695,-2.2695,-2.3165,-2.3369,-2.3189,-2.3045,-2.273,-2.231,-2.2409,-2.2426,-2.231,-2.231,-2.231,0.0,0.0,0.0,0.0,0.0,-1.235,0.0,0.0,0.0,-0.9333,0.0,0.0,0.0,0.0,0.0,0.0,0.0,0.0,0.0,0.0,0.0,0.0,0.0,0.0,0.0,-2.3018,-2.3698,-2.4522,-2.458,-2.4667,-2.4855,-2.5214,-2.5464,-2.5539,-2.5543,-2.5588,-2.5689,-2.557,-2.5541,-2.5563,-2.5505,-2.5437,-2.5311,-2.5311,-2.5282,-2.5182,-2.4993,-2.4892,-2.4885,-2.4572,-2.4426,-2.4462,-2.4478,-2.4375,-2.4228,-2.4428,-2.4393,-2.4266,-2.4209,-2.4266,-2.4339,-2.4461,-2.4543,-2.462,-2.476,-2.4785,-2.467,-2.4219,-2.3634,-2.2922,-2.2061,-2.1283,-2.0605,-2.0265,-1.9945,-1.969,-1.969,-1.969,-1.969,-1.969,-1.969,-1.969,-1.969,-1.969,-1.9726,-1.9803,-2.0345,-2.0797,-2.0959,-2.1615,-2.2077,-2.2152,-2.2254,-2.231,-2.231,-2.231,-2.231,-2.231,-2.2563,-2.2721,-2.2797,-2.3392,-2.3522,-2.3117,-2.2898,-2.2625,-2.231,-2.2563,-2.2563,-2.231,-2.2332,-2.2349,0.0,0.0,0.0,0.0,-1.4625,0.0,0.0,0.0,-1.4898,-1.0884,0.0,0.0,0.0,0.0,0.0,0.0,0.0,0.0,0.0,0.0,0.0,0.0,0.0,0.0,0.0,0.0,-2.138,-2.2929,-2.2361,-2.2641,-2.4293,-2.5081,-2.5543,-2.5662,-2.5683,-2.5659,-2.5616,-2.5608,-2.5523,-2.5428,-2.5409,-2.529,-2.5053,-2.5053,-2.4968,-2.4847,-2.4636,-2.4559,-2.4543,-2.4321,-2.4228,-2.4266,-2.4426,-2.4375,-2.4228,-2.4428,-2.4478,-2.4426,-2.4247,-2.4426,-2.47,-2.4561,-2.4708,-2.4924,-2.4828,-2.4714,-2.4445,-2.3654,-2.2985,-2.2272,-2.1201,-2.0653,-2.0265,-1.9874,-1.9711,-1.969,-1.969,-1.969,-1.969,-1.969,-1.969,-1.969,-1.969,-1.969,-1.9818,-2.0193,-2.0,-2.012,-2.0894,-2.1103,-2.1275,-2.1658,-2.2032,-2.231,-2.231,-2.231,-2.231,-2.231,-2.2563,-2.2848,-2.3117,-2.35,-2.3392,-2.2772,-2.3021,-2.2857,-2.231,-2.2563,-2.2563,-2.231,-2.2537,-2.2527,0.0,0.0,0.0,0.0,0.0,0.0,-1.703,0.0,-1.644,0.0,0.0,0.0,0.0,0.0,0.0,0.0,0.0,0.0,0.0,0.0,0.0,0.0,0.0,0.0,0.0,0.0,0.0,0.0,0.0,-2.1604,-2.3448,-2.4309,-2.5005,-2.5566,-2.5473,-2.5459,-2.555,-2.5389,-2.5287,-2.5229,-2.5176,-2.508,-2.4877,-2.4877,-2.4855,-2.479,-2.4575,-2.4495,-2.4478,-2.4284,-2.419,-2.4209,-2.4284,-2.4266,-2.4228,-2.4428,-2.4428,-2.4339,-2.4357,-2.4478,-2.4654,-2.4747,-2.4885,-2.4955,-2.4752,-2.4473,-2.4062,-2.3071,-2.2341,-2.1678,-2.0734,-2.023,-1.9909,-1.9747,-1.969,-1.969,-1.969,-1.969,-1.969,-1.969,-1.969,-1.9782,-2.0,-2.007,-2.0035,-1.9965,-2.0243,-2.0499,-2.0583,-2.0829,-2.115,-2.1552,-2.1794,-2.2003,-2.2282,-2.231,-2.231,-2.231,-2.2598,-2.2908,-2.3189,-2.3346,-2.3189,-2.2721,-2.2848,-2.2704,-2.231,-2.2563,-2.2422,-2.1899,-2.2005,-2.1994,-1.5738,0.0,0.0,0.0,0.0,0.0,0.0,0.0,0.0,0.0,0.0,0.0,0.0,0.0,0.0,0.0,0.0,0.0,0.0,0.0,0.0,0.0,0.0,0.0,0.0,0.0,0.0,0.0,0.0,0.0,-2.2177,-2.3232,-2.4192,-2.5056,-2.5153,-2.5235,-2.531,-2.513,-2.5015,-2.5018,-2.4981,-2.4864,-2.4716,-2.4716,-2.4685,-2.4623,-2.4478,-2.4428,-2.441,-2.4247,-2.419,-2.419,-2.419,-2.419,-2.4209,-2.4357,-2.4339,-2.4228,-2.4357,-2.4495,-2.4639,-2.4962,-2.4991,-2.4841,-2.4586,-2.4079,-2.3354,-2.2427,-2.1678,-2.1022,-2.0299,-1.9823,-1.9479,-1.9479,-1.9479,-1.9479,-1.9479,-1.9603,-1.969,-1.969,-1.969,-1.9782,-2.0089,-2.0124,-2.0054,-1.9909,-2.0311,-2.0565,-2.0348,-2.0583,-2.0959,-2.1399,-2.1521,-2.1718,-2.2077,-2.2225,-2.231,-2.231,-2.2598,-2.2824,-2.2958,-2.2923,-2.2737,-2.2405,-2.2307,-2.2147,-2.1945,-2.2147,-2.1943,-2.143,-2.1625,-2.1625,0.0,0.0,0.0,-1.9014,0.0,0.0,0.0,0.0,-1.9764,0.0,0.0,0.0,0.0,0.0,0.0,0.0,0.0,0.0,0.0,0.0,0.0,0.0,0.0,0.0,0.0,0.0,0.0,0.0,0.0,0.0,-2.0293,-2.1914,-2.3158,-2.402,-2.4795,-2.5077,-2.4826,-2.481,-2.4801,-2.4804,-2.4804,-2.47,-2.4512,-2.4512,-2.441,-2.4209,-2.4209,-2.4209,-2.4209,-2.419,-2.419,-2.419,-2.419,-2.419,-2.419,-2.4209,-2.4227,-2.419,-2.4209,-2.4461,-2.4847,-2.5171,-2.4972,-2.4572,-2.4353,-2.3433,-2.2332,-2.1711,-2.0958,-2.0246,-1.9854,-1.9317,-1.893,-1.893,-1.893,-1.893,-1.893,-1.9332,-1.969,-1.969,-1.969,-1.9711,-1.9711,-1.9711,-1.9839,-2.0212,-1.9965,-1.9874,-2.0246,-2.0314,-2.0516,-2.0959,-2.1368,-2.1628,-2.1612,-2.2032,-2.231,-2.231,-2.2563,-2.2573,-2.2349,-2.2203,-2.1972,-2.1642,-2.1244,-2.1055,-2.1023,-2.1055,-2.1023,-2.1023,-2.1753,-2.1694,0.0,0.0,-1.8029,-1.8192,0.0,0.0,0.0,0.0,0.0,0.0,0.0,0.0,0.0,0.0,0.0,0.0,0.0,0.0,0.0,0.0,0.0,0.0,0.0,0.0,0.0,0.0,0.0,0.0,0.0,0.0,0.0,-2.1046,-2.2538,-2.3508,-2.4092,-2.4528,-2.4806,-2.4666,-2.4599,-2.4591,-2.4591,-2.4495,-2.4303,-2.4303,-2.4247,-2.419,-2.419,-2.419,-2.419,-2.419,-2.419,-2.419,-2.419,-2.419,-2.419,-2.419,-2.419,-2.4247,-2.4512,-2.4828,-2.5126,-2.5118,-2.4782,-2.4286,-2.3573,-2.2823,-2.1939,-2.0606,-2.0047,-1.9656,-1.8864,-1.8496,-1.838,-1.838,-1.838,-1.8458,-1.8817,-1.9043,-1.9281,-1.9639,-1.969,-1.9782,-2.0054,-1.9874,-1.9747,-1.9874,-2.0,-2.0054,-1.9909,-2.0124,-2.0483,-2.0959,-2.1368,-2.1735,-2.2032,-2.2209,-2.231,-2.231,-2.2388,-2.2243,-2.1853,-2.179,-2.1595,-2.1213,-2.1055,-2.0991,-2.0991,-2.0991,-2.0991,-2.1007,-2.1259,-2.1086,-1.4903,-1.5545,0.0,-1.6862,-1.6905,0.0,-1.6876,0.0,0.0,0.0,0.0,0.0,0.0,0.0,0.0,0.0,0.0,0.0,0.0,0.0,0.0,0.0,0.0,0.0,0.0,0.0,-1.382,-1.5075,0.0,0.0,0.0,0.0,-2.1506,-2.2319,-2.3548,-2.4246,-2.4403,-2.4391,-2.4393,-2.4393,-2.4393,-2.4339,-2.419,-2.419,-2.4247,-2.4303,-2.4228,-2.4247,-2.4303,-2.4228,-2.419,-2.419,-2.419,-2.419,-2.419,-2.419,-2.4247,-2.4357,-2.4685,-2.4936,-2.5084,-2.4911,-2.4379,-2.3671,-2.2934,-2.2014,-2.0973,-1.9893,-1.9353,-1.891,-1.8288,-1.7947,-1.7827,-1.7827,-1.7947,-1.8185,-1.8535,-1.893,-1.9281,-1.9639,-1.969,-1.9782,-2.0035,-1.9874,-1.9747,-1.9909,-2.0,-2.0,-1.9711,-2.0054,-2.0416,-2.0715,-2.1275,-2.1794,-2.2254,-2.231,-2.231,-2.231,-2.2135,-2.1928,-2.1612,-2.129,-2.1007,-2.0764,-2.0599,-2.0548,-2.0548,-2.0698,-2.0764,-2.0764,-2.0926,-2.0829]}]]